ECMWFFLT2_925_thetae_069.txt.gz
Theta_e
320 323 323 325 324 321 324 321 315 318 323 320 315 315 316 314 316 318 315 316 319 320 327 328 325 328 324 332 348 351 354 359 359 358 356 353 353 353 355 357 357 356 354 352 352 352 353 355 354 354 356 355 357 358 359 358 357 356 356 356 356 353 350
318 320 321 322 325 324 321 317 318 323 324 321 317 315 317 317 317 317 314 316 316 314 320 327 326 329 323 327 345 351 353 359 361 359 357 355 355 355 356 357 356 354 354 352 352 353 354 355 355 355 355 356 357 358 359 359 358 358 356 357 357 354 351
317 317 319 320 323 325 323 320 322 322 318 317 317 315 316 318 318 317 315 316 315 314 319 324 324 328 326 330 346 355 356 359 360 358 356 356 355 355 356 357 356 355 353 353 353 353 355 355 356 356 355 356 357 359 360 360 359 359 357 356 356 356 354
315 316 318 317 318 324 324 323 324 322 318 317 318 316 316 317 318 318 317 316 315 321 328 324 324 328 328 334 350 358 358 359 358 356 356 356 355 356 356 355 355 355 353 354 353 353 353 354 355 355 356 356 356 358 360 360 360 361 359 358 357 357 355
313 314 317 316 315 318 320 319 319 319 320 320 320 318 315 315 318 318 320 318 318 326 334 331 330 331 328 335 352 358 358 356 355 355 354 355 355 356 356 355 356 355 355 354 354 355 354 354 356 356 356 357 357 358 360 360 361 361 361 360 359 359 357
314 313 315 317 316 317 318 317 317 317 319 318 317 319 317 315 315 316 318 318 319 328 335 335 334 333 329 332 345 354 357 354 353 354 353 353 354 354 356 355 355 356 355 355 355 354 355 355 356 356 357 357 358 358 360 361 362 361 361 361 360 360 359
315 316 317 316 317 317 317 319 319 320 319 317 315 318 320 316 315 315 315 315 319 329 335 333 333 334 330 328 337 349 356 354 353 353 353 353 353 353 354 355 355 355 355 355 355 354 354 354 355 356 356 357 357 358 360 361 362 362 362 362 361 361 361
316 316 315 314 316 317 318 319 321 321 320 319 317 319 321 318 315 315 315 315 318 327 335 336 338 339 333 329 331 338 347 350 352 354 353 353 353 353 353 354 355 355 355 354 356 354 355 355 357 356 357 357 357 357 359 361 363 362 362 363 362 363 362
319 315 313 316 322 320 318 320 322 322 322 322 322 322 323 321 318 319 320 317 319 328 340 340 339 341 339 339 339 333 336 340 345 352 354 352 351 353 352 353 355 354 355 357 357 355 355 357 359 358 357 358 358 357 359 361 362 363 363 363 363 362 363
323 321 319 322 324 320 318 319 320 320 321 321 321 322 324 325 324 324 323 321 324 332 341 341 340 341 343 345 344 341 339 339 340 347 352 351 351 353 353 354 356 356 356 359 359 357 356 357 359 359 358 358 358 357 359 361 362 363 364 364 364 363 364
320 320 320 320 319 316 315 316 316 317 319 320 321 322 324 326 326 326 327 326 326 329 336 342 341 339 344 347 344 342 343 342 341 346 352 352 350 354 354 353 355 358 359 360 360 357 356 357 358 358 358 358 358 358 358 359 361 362 363 364 364 364 364
315 314 314 314 314 314 314 313 313 315 318 319 320 320 323 326 326 327 331 330 325 325 331 341 342 341 345 346 344 343 343 340 341 346 352 354 351 353 356 355 355 358 359 360 361 359 357 357 357 357 357 357 357 358 358 358 359 360 362 363 364 365 365
311 311 311 312 313 313 313 313 313 314 315 317 317 318 320 323 324 325 328 328 326 325 328 336 342 343 344 344 344 343 342 340 340 344 349 351 351 353 353 354 359 363 361 359 360 359 357 357 357 356 357 357 356 357 357 358 359 360 362 362 363 365 366
311 310 310 311 311 311 312 313 313 313 314 315 315 316 319 320 321 323 324 326 328 327 328 337 344 345 343 342 343 343 342 342 342 346 349 350 350 351 351 351 356 366 371 368 366 363 358 357 358 357 357 357 357 358 357 358 359 359 361 363 363 365 366
312 311 311 311 311 311 312 312 312 313 313 314 314 315 317 320 322 323 323 327 329 329 332 341 346 347 344 342 344 343 343 344 344 346 347 348 350 351 352 352 353 358 362 367 373 371 360 357 358 358 357 358 358 357 359 358 359 359 359 361 363 363 365
313 311 311 312 311 311 311 310 312 312 312 313 315 315 318 320 320 322 322 325 329 330 334 343 346 345 344 342 342 343 342 341 342 343 343 345 346 350 353 354 355 355 356 360 367 367 359 356 359 359 359 359 358 358 359 359 359 359 359 360 361 362 364
315 313 312 312 313 314 313 311 312 312 312 313 313 314 318 318 319 321 321 323 330 333 337 343 344 344 346 341 336 339 340 339 338 338 339 340 341 343 346 349 354 356 357 359 359 356 354 354 357 358 360 360 359 358 359 359 358 359 359 358 359 361 362
316 314 313 314 315 315 315 314 313 313 312 313 314 315 317 318 319 319 320 326 334 336 336 339 340 342 345 338 331 333 336 337 335 335 336 335 337 338 339 341 347 350 351 353 354 352 352 351 352 355 358 359 359 359 359 359 358 358 358 357 357 357 357
316 314 315 317 316 316 315 313 313 316 317 319 321 322 322 325 327 324 326 332 335 334 334 334 336 339 338 333 330 329 329 331 333 333 333 333 333 335 335 336 340 343 344 347 350 352 353 353 350 351 355 357 356 356 358 358 358 358 357 356 356 356 356
316 315 316 316 317 315 314 313 316 323 326 328 331 332 330 330 331 330 332 333 332 331 331 331 332 335 336 334 330 327 326 328 329 330 331 331 330 331 333 333 335 338 341 343 346 349 351 355 354 353 354 355 355 355 358 357 358 358 357 356 356 355 355
317 316 316 315 316 315 314 316 321 328 329 329 334 336 333 329 328 329 331 331 329 329 329 330 331 334 340 341 333 327 325 325 326 328 329 329 328 328 330 332 333 335 337 339 341 344 347 353 355 355 355 355 354 355 356 356 357 357 357 356 356 355 355
317 317 317 318 317 315 315 321 327 326 324 325 328 332 332 329 326 327 328 328 328 327 327 329 332 338 350 348 335 328 325 323 324 326 327 327 327 327 328 330 331 333 335 336 338 341 346 351 355 356 357 358 356 355 355 355 355 356 357 357 356 356 355
317 317 318 318 317 316 319 326 327 322 321 323 324 328 332 328 325 326 326 326 326 325 326 328 330 338 348 343 331 327 327 324 323 324 324 325 326 326 327 328 330 331 333 335 337 340 344 348 352 355 356 357 358 355 354 354 355 356 356 357 356 356 356
318 317 318 317 315 317 322 324 322 320 321 322 322 328 331 327 324 325 325 325 325 324 325 326 327 330 334 331 327 326 326 324 323 322 323 324 325 326 327 327 328 330 331 334 336 338 341 344 348 352 355 357 358 358 356 354 354 355 356 356 356 356 356
318 317 317 316 316 320 321 320 318 320 322 321 322 327 329 325 324 325 325 324 324 323 323 325 326 326 326 326 327 325 323 323 322 321 322 324 325 325 326 326 328 329 330 333 334 336 339 342 346 352 357 357 357 359 359 357 354 354 354 355 355 356 356
318 318 317 317 318 320 319 317 318 321 324 324 324 325 326 323 323 325 325 324 323 323 323 323 325 324 322 324 326 324 323 324 322 321 322 323 324 325 325 326 327 328 330 332 333 335 338 342 348 354 357 359 359 359 360 359 358 355 353 354 356 356 357
318 318 318 318 320 320 318 317 319 322 324 324 323 323 324 324 324 324 324 324 323 323 323 322 323 322 322 323 324 324 324 324 322 321 322 323 324 325 325 325 326 328 330 331 333 335 338 343 348 354 356 359 359 360 361 362 362 359 354 352 354 356 357
317 318 319 319 318 318 317 319 320 320 320 322 323 322 323 323 324 324 325 324 323 322 322 321 321 322 322 323 323 323 324 323 321 321 322 323 324 325 325 325 327 328 330 331 332 335 339 344 350 354 358 362 364 366 368 368 366 362 356 351 352 354 355
316 317 318 318 317 317 317 319 320 319 319 321 322 322 321 322 323 324 324 323 323 322 322 322 321 321 322 322 323 323 322 322 322 322 322 323 324 325 325 326 327 328 329 331 332 335 340 347 352 355 360 364 368 370 371 373 371 367 358 352 352 352 354
315 315 316 317 316 315 314 316 318 318 318 318 319 319 319 320 321 321 322 323 322 321 322 322 321 321 322 322 323 323 322 322 321 322 322 323 324 325 326 326 327 328 330 331 332 336 341 347 351 355 360 363 366 368 370 372 373 370 361 355 353 353 354
314 315 316 315 313 312 312 314 315 315 315 315 315 316 317 317 318 319 320 321 321 321 322 322 322 322 322 322 323 324 323 323 322 322 322 323 324 325 325 326 327 329 330 331 334 337 342 346 350 353 358 361 363 367 368 370 372 372 364 356 357 358 358
313 315 315 312 310 310 312 313 312 312 313 313 313 314 315 315 316 317 318 319 320 320 320 321 322 322 322 322 323 324 324 323 322 322 323 323 324 325 326 326 328 330 331 332 335 338 341 344 345 350 356 360 363 366 366 367 370 372 365 358 358 360 362
312 312 312 311 310 311 311 311 310 310 311 312 312 313 314 314 315 316 317 318 319 319 320 321 322 322 322 322 324 325 324 323 322 322 323 323 323 324 326 327 328 330 331 333 336 338 339 340 343 348 356 359 361 362 363 363 366 371 368 361 361 362 363
312 312 311 310 311 311 310 309 309 310 310 310 311 313 313 314 315 316 316 317 318 319 320 321 321 322 323 324 324 325 324 322 322 322 322 322 323 325 326 326 326 328 330 333 335 336 336 337 340 345 352 357 357 359 361 361 364 370 370 366 363 365 366
312 312 311 310 310 309 309 308 309 310 310 310 312 312 313 313 314 314 315 316 317 318 320 321 321 322 323 323 324 325 323 321 321 322 322 322 323 325 326 326 324 325 329 332 334 335 334 335 336 338 345 353 357 357 359 360 362 368 371 368 365 366 368
312 311 311 310 310 310 309 309 309 309 310 311 312 312 312 312 313 313 314 315 316 317 319 320 321 322 322 321 323 324 324 321 321 322 322 321 323 325 326 326 323 324 328 331 332 332 333 333 333 334 339 347 351 352 354 358 361 365 371 371 368 368 369
312 311 310 310 310 311 310 309 308 308 310 311 311 311 311 312 313 313 314 314 315 317 318 319 320 321 321 321 321 322 323 321 321 321 321 320 322 324 327 326 323 323 327 330 329 329 330 331 331 332 335 340 344 345 350 356 359 361 367 371 369 366 366

ECMWFFLT2_925_thetae_072.txt.gz
Theta_e
315 314 315 314 317 322 325 321 317 321 327 323 317 319 325 319 315 321 322 319 325 326 327 331 326 330 341 346 351 350 349 353 357 359 358 355 354 352 352 353 352 353 352 350 351 350 351 351 351 351 350 351 350 349 350 350 350 351 351 351 352 350 350
315 314 316 316 316 320 321 317 320 327 326 324 324 319 320 319 318 323 321 317 323 321 322 336 333 323 329 342 350 349 349 354 356 357 357 354 354 351 352 353 352 353 352 350 351 351 351 351 352 352 351 351 352 350 350 350 350 351 351 351 352 350 350
315 315 317 318 317 317 317 316 321 327 320 320 325 319 318 320 319 321 321 320 322 319 322 332 329 323 324 336 347 350 351 356 356 356 355 353 353 351 352 353 352 353 352 351 350 350 351 352 351 353 353 352 353 352 352 351 351 351 352 352 352 351 350
314 317 318 316 315 314 316 316 318 323 319 318 321 320 320 321 320 322 324 325 325 325 331 333 331 334 332 334 347 351 351 356 357 354 355 353 351 351 352 353 353 352 352 352 350 350 351 352 352 353 353 353 354 354 353 352 352 352 352 353 353 352 350
314 316 316 315 314 313 313 313 314 317 320 321 321 320 320 320 322 323 322 325 328 331 336 337 340 345 340 338 347 350 350 356 355 354 355 352 351 352 351 353 354 353 353 352 351 350 350 351 352 353 353 354 354 354 354 353 353 353 353 353 353 353 352
315 315 314 314 315 314 312 313 316 317 318 320 318 321 323 319 320 324 323 323 326 330 335 341 344 345 342 340 343 347 349 353 355 355 354 352 351 351 351 353 353 353 353 352 351 351 350 351 353 353 353 354 354 355 355 354 354 353 353 353 354 354 353
315 315 316 315 316 317 316 316 318 317 317 318 317 321 325 319 319 326 325 320 324 330 333 339 344 344 342 341 343 347 349 350 355 356 353 353 352 350 351 353 353 353 352 352 352 351 350 351 352 353 354 354 355 355 356 356 355 355 354 354 354 354 354
316 313 315 319 317 317 318 317 317 315 314 316 317 320 324 322 323 327 322 316 321 328 328 333 344 344 341 342 343 345 348 348 352 355 354 353 352 352 353 352 353 354 352 352 352 351 351 351 352 353 354 354 354 355 356 357 356 356 355 355 354 355 354
318 315 321 325 319 314 315 315 315 314 313 314 317 321 327 327 325 324 323 321 323 327 326 330 341 344 342 344 343 344 347 346 348 353 356 355 354 354 354 353 355 355 353 354 352 351 352 352 352 353 353 354 355 355 356 357 357 357 357 356 355 355 355
321 320 323 323 317 313 313 313 313 313 313 313 315 321 327 328 325 323 325 325 324 325 324 328 340 344 344 346 344 343 346 347 350 353 355 356 356 356 355 355 355 355 355 355 353 353 352 351 353 354 354 354 354 355 356 357 358 358 358 357 357 356 356
319 317 318 316 313 312 311 311 312 312 313 313 314 321 325 325 324 326 329 326 322 322 322 328 340 345 344 345 343 342 343 346 350 354 356 355 353 354 355 355 357 357 357 356 353 352 352 352 353 353 354 355 354 355 356 357 358 358 358 359 358 358 357
315 314 313 311 311 311 310 310 311 311 313 313 313 317 320 319 321 327 332 330 322 320 324 333 342 345 344 344 342 341 340 342 345 350 354 355 352 352 352 352 356 358 360 363 360 353 351 352 352 353 354 354 354 355 355 357 358 358 359 359 359 359 359
313 311 311 311 310 311 310 310 310 311 312 313 313 314 315 316 319 323 328 329 325 323 331 341 343 343 343 342 341 341 338 337 340 342 345 348 348 349 349 349 351 353 354 359 360 356 354 353 353 353 354 354 354 355 355 356 358 359 359 360 359 360 360
313 311 312 312 311 311 311 310 310 311 311 312 312 312 312 314 318 320 323 327 328 329 338 343 340 338 338 338 339 340 338 335 335 336 337 339 340 342 344 344 346 348 349 350 352 352 352 354 355 354 354 356 355 355 355 356 358 359 360 360 360 360 360
315 312 313 312 312 313 312 311 311 311 311 312 311 312 314 315 318 320 321 325 331 336 341 342 337 334 334 335 337 338 337 334 334 334 334 334 335 336 338 339 340 342 345 347 350 350 349 349 352 355 355 356 356 356 356 356 357 360 360 361 361 361 361
316 313 313 313 313 313 312 312 313 312 311 311 311 312 313 314 316 317 317 325 336 341 340 339 335 332 331 333 334 336 335 333 332 332 331 332 333 334 334 336 337 338 340 344 347 349 349 349 349 351 354 355 356 356 357 356 357 359 360 361 361 362 362
318 314 313 314 314 315 315 314 314 312 313 313 313 316 319 321 323 320 320 331 340 338 335 336 335 331 330 331 332 333 334 334 332 329 329 329 330 332 334 334 334 335 336 339 342 344 347 349 349 349 350 353 355 356 356 357 357 358 359 361 361 362 363
320 317 315 316 317 316 316 316 312 311 317 322 324 327 328 329 331 328 328 334 335 331 331 334 334 331 329 328 328 329 331 334 332 328 327 327 328 330 332 333 334 334 334 336 338 339 340 343 347 350 349 349 354 356 356 356 357 357 358 359 360 361 362
320 319 318 319 320 317 314 314 312 313 320 326 329 330 329 328 329 329 330 330 328 328 329 330 332 332 328 326 326 325 326 330 331 328 326 326 326 327 328 330 332 333 333 334 335 336 337 339 342 348 352 350 351 354 356 357 357 357 357 358 359 360 361
319 320 319 318 320 317 312 313 315 319 323 326 329 333 331 327 327 328 328 327 326 326 326 326 329 330 329 327 326 325 324 325 328 328 326 325 325 326 326 327 328 330 330 331 333 334 336 338 339 345 351 353 351 352 353 355 357 357 357 357 358 359 360
317 318 318 318 317 315 312 314 320 322 321 321 325 331 331 327 325 326 326 326 325 324 324 325 325 327 334 336 329 325 324 323 324 326 325 324 324 325 326 326 327 328 329 330 332 334 335 337 338 341 345 348 350 351 352 352 354 355 356 357 357 358 359
317 316 317 318 316 314 314 318 322 320 317 318 321 325 328 326 322 324 325 324 324 324 324 324 323 327 341 344 331 324 325 323 322 324 324 324 325 325 325 326 326 327 328 329 331 333 334 336 337 339 341 344 347 350 352 352 352 354 354 355 356 357 358
317 315 316 317 315 315 318 321 321 317 316 319 320 322 327 324 320 321 324 324 323 323 324 324 323 327 336 335 326 323 326 324 322 322 323 324 324 324 325 326 326 327 327 329 331 332 333 334 336 338 340 343 346 350 353 353 353 353 353 354 356 357 357
318 317 317 316 315 317 319 319 318 316 317 321 321 322 325 322 318 319 322 324 324 323 324 324 324 325 327 326 323 323 324 324 322 321 322 323 324 324 325 325 326 326 327 328 330 331 332 334 336 338 340 343 347 351 354 356 355 353 353 354 356 357 356
319 318 317 317 318 319 318 317 317 318 319 322 324 323 322 320 318 320 322 324 324 323 323 324 325 325 324 323 322 321 322 324 323 321 321 322 323 324 324 325 326 326 327 328 329 330 332 334 336 337 340 343 347 350 353 356 357 357 356 354 354 355 356
319 319 318 317 318 318 317 317 319 320 322 324 324 321 318 318 319 321 322 323 324 324 323 323 324 323 321 321 322 321 322 324 323 321 320 321 322 323 324 324 325 326 327 328 329 330 332 334 335 337 340 344 348 350 353 356 359 361 362 360 357 354 354
318 318 317 318 319 318 316 317 320 321 323 323 320 317 318 319 320 320 321 321 323 323 323 323 323 323 321 321 321 322 322 323 323 321 320 321 322 323 323 324 325 326 327 328 329 330 332 334 336 338 341 345 348 350 353 356 359 362 365 366 365 361 357
317 317 318 319 319 317 316 318 320 320 319 319 318 318 319 319 318 318 319 319 320 321 321 322 323 323 322 322 322 322 323 324 322 321 320 320 321 323 323 323 325 326 326 328 329 331 333 335 337 339 341 343 346 347 350 353 357 360 363 366 367 367 365
316 317 317 318 317 317 315 315 317 317 317 318 318 317 316 315 315 316 317 316 317 318 319 321 322 322 321 322 322 322 323 323 322 321 320 320 321 322 322 323 324 325 326 328 329 331 333 336 337 338 339 341 343 345 346 349 354 358 362 365 367 367 366
314 315 314 315 315 314 312 311 313 314 314 315 314 313 312 313 313 314 314 315 315 316 318 320 320 320 320 321 322 323 324 324 322 320 319 319 321 322 321 322 324 325 325 326 329 331 334 336 336 336 336 338 340 342 344 348 353 358 361 363 363 363 364
313 313 315 315 313 311 310 310 311 311 310 311 311 311 311 311 311 312 313 314 314 315 317 318 319 320 320 320 321 322 323 325 324 320 318 319 321 321 321 321 324 325 324 324 328 331 333 334 334 334 334 335 336 338 341 346 352 356 358 360 361 360 361
313 312 313 313 311 310 310 311 310 308 309 309 309 309 310 310 310 311 312 313 314 315 316 317 318 319 320 320 321 320 322 325 325 319 318 320 321 320 320 321 323 325 324 323 327 330 331 331 332 332 332 333 334 335 338 344 349 353 356 358 359 359 360
312 312 312 312 311 311 311 311 309 308 308 309 309 309 309 310 310 312 312 312 313 313 314 316 317 318 319 320 320 320 322 326 324 319 318 320 320 320 320 320 322 325 324 323 326 329 329 328 329 330 331 331 331 333 337 341 344 346 348 352 357 359 360
312 313 313 313 312 311 310 309 308 308 308 308 308 309 309 309 311 312 312 312 312 312 313 315 316 317 318 319 319 320 322 323 321 319 319 320 320 319 319 320 322 325 325 323 326 328 328 326 327 329 329 329 330 332 334 336 337 338 342 347 354 359 360
314 314 314 313 311 311 309 308 308 309 308 308 308 308 309 310 311 311 311 311 312 312 312 313 314 316 317 317 318 319 319 319 319 319 320 320 319 319 319 320 322 325 325 324 325 328 327 326 327 328 328 328 329 330 330 331 333 335 338 344 351 357 358
315 314 314 313 312 311 310 308 308 309 308 308 308 308 309 309 310 310 311 311 311 312 312 313 313 314 315 315 316 317 318 318 319 320 320 320 320 319 319 320 323 325 325 324 325 327 326 325 326 326 327 327 327 328 328 329 331 334 337 342 349 355 356
315 314 314 313 312 312 310 309 309 308 308 308 308 308 308 309 309 310 311 311 311 311 312 312 313 313 314 315 315 316 317 318 319 320 321 320 319 318 319 320 323 326 326 325 326 326 325 325 325 325 325 327 327 327 328 330 331 333 336 342 348 352 354

ECMWFFLT2_925_thetae_075.txt.gz
Theta_e
315 315 315 315 315 318 323 320 316 315 318 325 321 319 328 325 316 321 322 318 327 329 324 332 335 334 339 343 349 353 352 354 354 357 358 357 356 355 353 352 352 351 350 349 349 348 348 348 346 344 344 343 345 347 348 349 349 350 349 350 350 350 350
316 313 315 316 313 315 320 316 316 319 317 323 325 321 325 323 317 323 323 316 323 326 322 331 344 343 342 341 342 344 350 354 353 356 357 357 356 355 354 354 352 351 350 349 350 348 348 349 347 346 344 344 345 347 348 348 348 350 350 350 350 350 350
315 314 315 318 314 313 316 315 318 321 317 320 325 320 320 322 321 323 321 319 323 325 327 333 340 345 346 345 342 339 343 351 354 355 356 358 357 356 355 354 353 351 350 349 350 348 349 349 348 348 346 345 344 345 348 348 348 348 349 350 350 350 350
314 316 316 316 315 313 316 315 315 318 319 318 319 319 321 322 324 324 321 322 325 330 335 333 334 344 348 346 347 343 339 344 351 353 355 357 357 356 355 353 352 352 350 350 350 349 349 349 349 348 347 346 345 345 347 348 348 349 349 350 350 350 349
315 316 316 315 314 314 315 316 313 314 318 318 318 319 319 321 327 329 326 326 330 337 337 327 329 343 348 345 347 346 341 340 345 350 353 356 357 356 354 353 352 351 350 350 350 349 350 349 349 349 348 347 346 346 346 347 348 348 348 349 350 350 350
315 316 316 314 315 315 314 314 314 312 314 318 322 324 323 321 322 324 325 324 330 340 332 322 328 340 346 344 342 345 346 343 343 347 350 354 356 356 354 352 351 351 351 350 350 350 350 349 350 350 349 349 348 347 347 347 348 348 348 349 350 350 349
315 314 315 313 314 315 313 312 312 312 313 314 319 324 325 322 319 325 330 326 331 342 329 319 329 341 342 341 339 341 344 345 346 348 349 353 354 355 354 352 351 351 350 350 350 350 350 350 350 350 350 349 349 349 348 347 348 348 348 348 349 350 350
318 314 316 316 313 312 313 312 311 311 312 312 314 317 319 322 324 329 331 324 328 337 326 321 334 342 338 338 338 338 340 343 348 352 354 355 353 352 351 350 351 351 350 350 350 349 349 350 350 350 350 351 350 350 349 349 349 348 348 348 349 350 349
320 321 325 322 314 311 312 311 310 311 311 311 313 316 322 328 324 324 326 324 326 327 322 329 340 342 339 338 336 337 337 338 343 348 354 357 357 357 355 354 354 352 351 351 351 350 349 349 350 350 350 351 350 351 350 350 350 349 349 349 349 350 350
317 323 327 321 314 312 312 310 310 310 310 311 314 316 325 329 323 321 326 325 324 322 325 338 343 340 341 339 334 335 335 334 337 340 344 348 351 356 360 361 361 359 358 354 350 350 350 349 350 350 351 351 351 352 351 351 351 351 350 350 350 351 351
322 325 324 318 315 313 311 310 310 310 310 312 313 316 321 322 319 326 333 326 322 325 332 340 341 339 342 341 336 334 333 332 333 334 337 338 340 343 347 351 355 360 366 362 355 351 349 350 350 350 351 351 351 352 352 352 353 352 351 351 351 352 352
319 319 317 313 312 312 310 311 311 310 310 311 313 314 317 317 317 326 338 331 321 325 336 341 338 337 339 340 338 335 331 331 330 330 333 334 334 336 337 340 343 349 354 359 357 352 349 349 349 350 351 351 352 353 352 353 354 353 353 353 352 352 352
314 312 313 312 311 311 311 313 312 311 311 311 312 313 315 315 315 320 326 323 320 327 339 340 334 334 337 336 336 335 330 330 330 329 330 331 331 333 333 334 337 339 342 346 350 351 351 351 350 349 351 351 352 353 353 353 354 354 354 354 353 353 353
316 314 314 313 312 312 313 313 314 313 311 310 311 312 313 314 316 318 317 319 327 334 337 336 331 330 332 331 331 332 331 329 329 329 329 329 330 331 331 332 333 334 336 338 341 345 348 351 352 351 350 352 352 352 353 353 354 355 355 354 354 355 354
317 315 314 313 313 314 313 313 314 312 312 313 312 311 311 313 316 319 317 320 331 335 333 334 331 327 328 328 329 330 330 328 328 328 328 329 328 329 330 331 331 331 332 334 336 339 341 344 349 351 352 353 352 353 353 353 355 355 356 356 356 355 355
317 316 314 314 315 313 312 314 314 313 313 315 316 316 319 320 320 321 319 322 331 333 330 331 330 326 327 327 326 328 328 327 326 327 327 328 328 328 328 330 330 330 330 332 334 336 337 340 344 347 350 353 353 353 353 353 354 355 356 357 357 357 356
319 318 315 317 316 312 315 317 314 312 313 315 322 329 330 328 326 325 324 326 329 329 327 330 330 326 326 326 325 326 327 327 326 325 326 326 327 328 328 328 329 329 329 331 332 334 335 337 339 343 348 351 352 353 354 354 354 355 356 357 357 357 358
321 320 317 317 315 314 317 317 312 313 317 320 329 335 331 328 328 328 328 327 327 326 326 328 328 327 326 325 324 324 326 327 326 325 324 325 327 328 328 328 329 329 329 330 331 332 334 336 338 340 345 349 350 351 352 354 354 354 354 354 355 356 358
320 321 319 317 317 316 315 312 311 317 321 322 328 332 327 324 325 326 327 326 324 325 326 325 326 327 325 324 324 323 323 326 327 326 324 323 325 326 326 328 329 329 328 329 330 331 332 334 336 338 340 344 347 350 351 352 353 354 353 353 353 355 356
318 319 318 316 316 316 313 313 318 323 323 323 326 330 328 324 322 323 325 325 324 324 323 322 324 325 325 324 323 323 322 323 325 325 325 323 323 323 324 325 327 327 327 327 328 330 332 333 335 337 339 340 343 347 350 351 351 352 352 353 353 353 356
317 317 317 316 314 314 316 320 322 322 321 321 324 327 328 324 320 321 323 323 323 323 322 322 322 323 326 328 325 322 322 322 323 324 324 323 322 323 324 325 325 326 326 327 328 329 331 332 334 335 337 339 342 345 349 351 351 351 351 352 353 354 356
317 316 317 318 317 316 317 319 320 318 317 318 319 323 328 325 319 318 320 322 324 323 322 322 322 323 329 332 327 322 321 322 321 321 322 322 322 323 323 324 325 325 326 327 328 329 330 331 333 334 336 339 341 345 349 351 353 353 352 352 352 354 356
317 315 317 318 317 317 318 319 319 316 315 317 318 321 327 324 317 317 319 321 323 324 323 323 322 324 328 329 324 321 322 323 322 321 321 321 321 322 323 323 324 325 326 327 328 329 329 331 332 334 336 339 341 345 348 350 352 354 355 354 354 354 354
318 316 317 317 315 317 319 318 318 317 316 317 317 320 325 322 315 316 318 320 321 323 324 323 323 324 325 324 322 321 320 321 321 321 321 321 320 321 322 322 324 325 325 326 327 328 329 331 332 334 336 338 341 344 346 349 352 354 355 357 357 356 354
318 318 317 316 317 318 318 317 318 319 317 316 317 319 321 318 315 317 318 319 319 321 321 322 322 322 323 322 322 320 320 321 322 321 320 320 320 320 321 322 323 324 325 326 326 327 329 330 332 335 336 338 340 342 345 347 350 351 352 353 357 359 356
318 318 318 318 318 317 316 317 319 319 318 318 319 318 316 315 317 318 318 317 317 317 318 319 319 320 320 321 321 320 320 321 322 320 319 319 320 320 320 321 322 323 324 325 325 326 328 330 332 334 336 337 339 340 341 343 345 345 346 349 353 357 357
317 316 317 317 318 317 315 316 319 319 319 319 317 315 315 316 317 317 316 315 315 315 315 316 317 318 318 319 320 320 319 320 320 319 318 319 319 320 320 320 321 322 324 325 325 325 326 329 332 334 335 336 336 338 339 339 340 341 344 347 351 355 359
316 316 317 318 318 317 315 316 317 318 316 316 315 316 315 314 313 313 314 313 313 313 313 314 315 316 317 318 318 319 319 320 319 318 318 319 319 319 320 320 320 321 323 325 325 324 325 328 331 333 334 334 335 335 336 336 337 339 342 346 350 354 358
316 317 318 317 316 316 315 316 316 315 314 313 314 313 312 311 311 311 311 311 311 311 312 313 314 315 316 317 317 317 318 320 319 318 318 318 318 319 320 320 319 319 321 324 325 324 325 327 329 329 330 331 333 333 334 334 335 337 340 345 349 353 356
315 314 314 313 313 313 314 313 312 312 312 312 310 310 310 310 309 310 310 310 310 310 312 314 315 314 315 315 316 316 318 319 318 317 317 317 318 319 320 320 319 319 320 323 325 325 325 327 328 327 327 329 330 331 332 331 332 335 340 344 348 350 353
313 313 315 315 314 314 313 311 311 311 311 309 309 309 309 309 308 309 309 309 309 310 312 314 314 314 314 314 315 316 317 318 317 316 316 317 318 319 320 320 319 319 320 322 325 325 325 326 327 327 326 327 328 329 329 329 331 334 339 342 343 344 347
312 313 314 314 312 312 311 311 311 311 310 309 308 308 308 308 307 308 308 308 309 311 312 313 313 313 314 314 315 315 316 317 317 316 316 317 318 318 320 320 319 318 320 322 324 325 325 325 326 326 326 326 327 328 327 328 330 331 334 336 338 340 342
313 312 312 311 310 311 312 312 311 310 310 309 309 308 307 307 307 307 307 308 309 310 311 311 311 312 313 314 315 314 315 316 317 316 316 317 318 318 319 320 319 319 320 322 324 325 325 325 326 326 325 325 326 326 327 327 328 328 330 332 335 337 340
314 313 313 313 312 312 313 312 310 310 310 309 309 308 307 307 307 307 307 307 308 309 310 310 311 311 312 312 313 314 314 314 315 315 316 316 317 317 319 320 319 318 319 322 324 325 325 325 325 325 325 325 325 326 326 327 327 327 328 330 332 336 340
316 315 315 314 313 313 313 311 310 310 309 309 309 309 308 307 307 307 307 307 308 308 308 309 310 310 311 311 312 313 313 313 313 314 314 315 316 317 318 319 319 318 319 322 324 325 325 325 325 324 324 324 324 325 326 326 327 328 328 329 332 336 339
314 315 316 315 313 314 313 312 311 310 308 309 309 308 308 307 307 306 306 307 307 307 308 309 309 310 310 310 311 311 312 312 312 313 314 315 316 317 318 319 319 318 319 322 325 324 324 325 324 323 323 323 324 324 325 326 327 329 329 330 332 334 337
315 317 317 314 313 314 313 310 310 309 307 308 309 309 308 308 307 307 307 307 307 308 308 308 309 309 309 310 310 311 311 311 312 313 315 316 318 319 320 321 319 318 320 323 324 324 324 324 323 322 322 322 323 323 324 325 327 329 330 332 334 335 338

ECMWFFLT2_925_thetae_078.txt.gz
Theta_e
314 314 313 314 314 317 320 318 318 317 319 328 325 319 329 327 317 320 320 320 329 327 323 328 328 330 340 343 342 342 342 344 351 356 355 353 352 351 350 350 350 350 349 349 348 346 344 344 343 344 344 345 346 346 347 348 349 349 349 349 350 350 349
317 313 313 315 312 314 320 318 318 317 315 324 326 321 327 326 317 319 322 324 331 330 326 329 329 329 339 344 341 340 343 343 346 351 353 354 354 351 351 351 350 350 349 348 349 347 345 345 344 343 344 345 345 346 347 348 348 348 348 349 349 349 349
317 314 313 317 315 313 318 317 316 317 318 322 323 321 321 321 321 320 320 330 335 329 326 327 328 334 341 343 340 340 341 342 343 346 348 353 355 353 353 352 350 350 349 349 349 347 347 345 344 343 343 344 345 345 347 347 348 348 348 348 349 349 349
314 316 315 317 316 314 315 314 312 315 321 321 317 321 320 320 327 323 320 332 336 329 327 327 332 341 342 340 340 340 340 340 342 344 346 349 353 355 354 352 351 350 349 349 348 348 348 346 345 344 343 343 344 345 346 347 347 348 348 348 349 349 349
314 315 315 315 315 314 312 312 312 311 316 319 318 319 319 321 329 329 332 337 331 326 327 329 338 343 339 339 340 338 338 338 339 342 344 346 350 354 354 352 352 350 349 349 348 348 348 346 346 345 343 343 343 345 346 346 347 347 348 348 348 349 349
314 314 313 312 312 311 310 311 311 310 312 319 326 322 318 323 326 327 337 337 325 321 324 330 341 341 336 337 336 336 337 335 336 339 340 343 348 353 354 353 352 350 350 349 349 349 348 347 347 346 344 343 343 344 345 346 347 347 348 348 348 349 349
314 313 312 313 312 310 311 310 309 311 311 315 325 324 320 325 325 324 335 336 326 323 325 333 341 339 336 336 333 334 335 333 335 335 336 339 344 350 354 354 353 352 350 349 349 349 348 347 348 347 345 344 343 344 344 345 347 347 347 348 348 349 349
324 318 313 314 313 310 312 311 309 310 309 310 316 320 322 327 323 323 333 332 324 325 328 334 339 337 337 336 332 332 332 332 334 333 334 336 337 342 348 353 356 353 350 350 349 349 349 348 348 347 347 345 344 344 344 345 346 346 347 347 348 349 349
328 322 319 318 315 313 313 311 310 310 310 310 314 317 326 331 322 320 331 333 326 324 328 334 334 334 337 335 332 333 330 330 332 331 333 333 333 335 337 342 350 352 352 353 350 349 349 348 348 348 348 347 345 344 344 344 346 346 347 347 348 348 348
322 321 324 321 317 315 313 311 311 311 310 311 315 319 327 329 321 322 331 330 323 320 327 334 333 332 335 333 332 333 330 329 330 330 331 331 331 333 333 334 338 341 346 349 349 349 349 348 349 348 348 348 347 346 345 344 345 346 346 346 347 348 348
319 319 321 319 317 315 312 312 313 313 312 312 317 323 325 322 319 325 332 325 315 319 331 334 331 331 333 331 331 331 329 329 329 329 330 330 330 331 331 332 333 334 337 339 342 346 348 349 349 348 349 349 348 347 347 345 346 346 346 347 347 348 348
314 315 316 314 315 313 312 313 314 314 314 312 314 318 320 319 318 326 338 329 314 320 334 333 329 330 331 329 329 329 328 328 328 329 330 329 329 329 330 330 331 332 334 335 337 339 342 347 348 348 349 349 349 349 348 347 347 346 346 347 347 348 348
314 314 314 314 314 312 312 315 314 315 316 313 312 314 317 320 318 321 331 325 316 324 333 331 327 328 328 326 327 326 326 327 326 327 329 328 328 328 329 330 330 330 331 332 334 336 337 340 344 347 349 349 349 350 349 349 348 347 348 347 347 348 347
314 314 314 314 314 313 314 315 314 315 315 313 312 312 314 316 316 318 320 317 318 326 329 328 327 326 325 324 325 325 325 326 325 326 327 327 328 327 328 328 328 329 330 330 332 333 335 336 339 342 346 349 350 349 349 350 349 349 349 348 348 348 348
314 314 315 314 314 315 314 315 315 315 314 315 314 312 313 314 315 316 314 315 324 327 326 328 327 325 324 323 324 324 324 324 325 325 325 326 327 327 327 327 327 327 328 329 330 332 333 335 337 338 341 345 350 351 350 350 350 350 350 350 349 349 348
315 314 314 315 316 315 313 314 315 314 314 315 315 318 322 322 321 320 318 322 332 330 325 327 327 324 324 324 323 324 324 323 323 324 324 324 325 326 326 326 327 327 326 328 329 330 332 334 335 336 338 341 345 348 351 351 351 351 351 351 351 350 350
320 316 316 317 314 312 313 315 313 313 315 316 319 326 330 327 326 327 326 328 330 327 325 326 326 325 325 324 323 324 324 324 323 322 322 323 323 324 325 325 326 326 326 328 329 329 331 333 334 335 337 338 340 343 348 351 352 352 352 352 352 352 351
320 319 320 318 311 311 315 314 310 311 316 320 326 331 329 326 326 328 328 327 325 325 325 324 323 325 325 324 323 323 324 324 323 322 322 321 322 323 323 324 325 325 326 327 328 328 330 332 333 334 335 337 338 342 346 349 351 353 353 353 353 353 353
318 321 322 317 313 313 314 311 311 315 319 322 327 329 324 322 325 325 325 325 324 324 325 323 322 324 325 323 322 320 322 324 324 322 321 321 321 321 322 323 324 325 326 326 327 328 329 330 331 333 335 336 338 342 346 348 350 351 353 354 354 354 354
318 319 318 314 313 314 315 317 319 321 323 323 325 327 324 321 321 322 323 324 324 323 323 322 322 322 323 324 324 320 319 321 323 323 322 321 320 320 321 322 323 324 325 325 326 328 328 329 330 332 334 335 337 342 345 347 349 350 350 351 353 354 355
318 318 317 316 315 315 319 324 323 320 320 321 321 325 325 320 318 320 321 321 322 321 321 321 320 320 323 327 326 320 318 319 321 322 322 321 320 321 321 322 322 323 324 325 326 327 327 328 330 331 332 334 337 341 344 346 348 350 349 349 350 350 352
318 317 317 319 318 318 319 321 320 318 317 317 318 322 324 319 316 317 319 320 320 320 320 320 320 322 326 328 324 319 318 318 318 319 320 320 321 321 321 321 322 323 323 324 326 326 326 327 329 330 332 334 337 341 344 345 346 348 350 349 349 349 349
318 315 317 318 318 319 320 320 319 317 316 316 317 319 322 319 314 315 318 319 318 318 318 318 319 322 327 325 320 318 317 318 318 318 319 319 320 320 321 321 322 322 322 323 325 325 326 326 327 330 332 334 336 340 342 343 345 347 347 346 346 347 348
318 316 317 317 316 318 320 320 320 317 315 316 317 319 321 318 314 315 317 317 316 316 316 316 317 320 321 320 318 317 317 317 317 318 318 318 319 319 320 320 322 322 321 322 324 324 325 325 326 328 332 334 336 337 339 341 343 344 343 343 344 345 346
317 317 318 317 317 319 320 320 320 318 315 315 316 318 318 315 314 316 316 314 314 314 314 314 315 316 316 316 315 315 316 317 317 317 317 317 318 318 319 319 321 321 321 321 322 323 324 324 325 327 331 333 334 335 336 338 340 339 339 341 344 346 347
316 317 318 317 318 319 320 320 319 317 316 317 316 315 314 314 315 316 314 313 313 313 312 312 313 313 313 313 314 315 316 316 316 316 316 317 317 317 318 318 319 321 321 321 321 322 323 324 324 327 329 330 330 332 333 334 335 335 335 338 342 346 348
315 316 315 316 318 317 318 319 317 316 319 319 314 313 314 314 314 314 313 312 311 311 311 310 311 311 311 312 314 314 315 315 315 315 316 316 316 317 318 318 319 320 321 321 321 321 322 323 324 326 328 328 328 330 331 331 332 332 332 335 340 345 348
316 317 314 315 318 318 317 318 318 320 321 317 314 315 315 313 312 312 312 311 310 310 310 310 310 310 311 312 313 313 314 314 314 315 315 316 316 317 317 318 318 319 320 321 321 321 321 322 324 325 326 327 327 328 329 328 329 329 330 332 337 343 348
317 318 316 316 318 319 317 317 319 319 318 315 314 314 313 311 312 311 310 310 309 309 309 309 309 310 311 312 312 312 312 313 313 314 315 315 316 316 316 317 318 319 320 320 320 320 321 322 323 324 325 326 326 327 327 327 327 328 328 331 335 340 344
314 315 315 314 314 315 314 314 315 314 314 314 313 311 311 311 311 310 309 309 309 308 308 308 308 309 310 311 311 311 312 312 312 313 314 314 315 316 316 316 316 317 318 319 319 320 321 322 323 323 324 325 326 326 326 326 327 327 328 329 332 335 338
313 314 317 314 313 313 313 313 313 312 312 313 312 311 311 310 309 309 308 308 308 307 308 308 308 309 310 310 311 311 311 311 312 312 313 313 314 315 315 315 316 316 317 318 319 319 320 321 323 323 323 324 325 325 325 326 326 327 328 328 329 331 334
313 315 316 314 313 313 313 312 312 311 311 312 311 310 310 309 308 307 307 307 307 307 307 308 308 309 309 310 310 310 310 311 311 311 312 312 313 314 314 314 315 315 316 317 319 319 320 320 322 323 323 324 324 324 324 325 326 326 327 328 329 330 331
313 313 312 311 310 311 311 311 310 309 309 312 311 310 309 308 308 307 306 306 307 307 307 307 307 307 308 309 309 309 310 310 310 310 311 312 312 313 313 313 314 314 315 317 318 319 320 319 321 323 324 324 323 323 323 324 325 326 327 328 329 330 331
314 313 313 312 312 314 315 315 313 311 309 310 311 310 309 309 308 307 307 306 305 306 306 306 306 307 307 308 308 309 309 309 309 310 311 311 312 312 312 312 313 313 314 316 317 319 319 319 321 323 324 323 323 322 323 324 324 325 326 327 329 330 332
316 313 314 314 313 314 315 314 314 312 309 309 311 311 310 310 308 307 307 307 306 306 306 306 306 306 307 307 308 308 308 309 309 310 310 310 311 311 311 311 312 313 314 315 317 318 319 319 321 323 324 323 322 322 322 323 323 324 325 326 328 331 332
314 313 315 314 313 315 315 314 314 312 308 309 311 310 309 309 307 306 307 307 307 307 306 306 306 306 306 307 307 307 308 309 308 309 309 310 310 310 310 311 312 313 315 316 318 319 319 319 321 323 324 323 321 321 321 322 322 322 324 325 328 330 332
314 315 316 313 314 316 314 311 311 308 305 307 310 309 308 308 307 307 307 307 306 306 306 305 305 305 305 306 306 307 307 307 308 308 309 310 311 311 312 313 314 315 317 317 318 319 319 319 321 323 323 322 320 320 321 321 321 322 323 324 326 328 330

ECMWFFLT2_925_thetae_081.txt.gz
Theta_e
312 312 312 313 313 315 316 316 316 316 317 318 318 315 317 316 313 316 318 317 321 324 325 336 343 341 341 340 340 341 340 341 343 344 347 349 351 352 350 351 351 352 354 354 352 350 348 349 349 349 351 351 351 352 352 352 352 353 352 351 351 350 349
313 312 311 312 313 314 315 315 315 316 316 318 319 317 316 315 313 315 318 320 325 325 326 338 345 342 340 339 339 340 340 340 341 341 343 344 347 350 350 351 351 352 354 354 353 351 349 349 348 349 350 350 351 351 351 352 353 353 353 352 352 351 351
312 312 313 314 314 314 314 314 314 315 315 317 319 317 316 315 315 318 321 323 328 331 333 340 345 342 341 339 337 339 339 340 340 340 340 341 343 346 350 351 350 351 353 353 353 353 350 349 348 349 349 350 350 350 351 352 352 352 352 352 352 352 351
312 313 314 313 313 313 313 314 314 314 316 317 317 317 315 316 317 320 322 323 328 333 336 341 343 341 340 339 337 337 337 338 339 339 339 340 341 344 348 350 350 350 351 353 353 353 352 349 348 348 348 349 349 349 350 351 351 352 352 352 352 352 352
313 313 312 311 311 312 313 313 313 313 315 316 316 317 316 316 319 320 321 325 329 333 337 341 341 339 338 338 337 335 334 335 337 337 338 338 340 342 346 349 350 349 351 352 352 352 352 350 348 348 347 348 349 348 349 350 351 352 352 352 352 352 352
313 311 310 310 311 311 311 311 311 311 313 316 316 317 316 316 319 320 321 327 329 330 336 338 337 337 336 335 335 334 333 333 334 335 336 337 339 340 344 348 349 349 351 352 351 352 351 350 349 348 347 347 348 348 349 350 350 351 351 351 352 352 352
312 311 310 311 310 310 311 311 311 311 312 315 316 318 317 316 318 320 323 328 328 327 334 337 335 335 333 332 333 333 332 331 332 333 334 335 337 338 340 344 347 350 352 351 351 351 351 350 349 348 347 347 347 348 348 349 350 350 350 351 352 352 352
313 311 311 311 310 310 311 311 312 311 311 312 314 317 318 317 318 320 323 328 325 326 333 335 333 333 331 330 331 331 331 330 330 332 333 333 335 336 337 339 341 346 350 352 352 352 352 351 350 349 347 346 346 347 347 348 349 350 350 350 351 352 352
315 314 313 313 312 311 311 311 311 311 311 312 313 316 319 319 317 318 322 324 322 326 334 334 331 332 331 329 329 329 330 329 329 330 331 331 332 334 334 336 337 340 342 346 351 353 354 353 350 350 348 346 346 346 347 348 348 349 350 350 351 351 352
313 316 315 314 314 312 311 311 312 311 311 312 313 316 318 318 318 319 320 319 320 327 334 333 331 332 330 329 328 328 328 328 328 329 329 330 331 331 332 333 334 336 337 340 344 347 351 352 351 351 349 348 346 346 346 347 348 348 349 349 350 351 351
313 315 315 312 313 312 312 312 311 311 311 312 313 315 316 316 317 318 319 317 319 328 334 333 332 331 330 329 327 327 328 327 327 328 329 329 328 329 330 331 332 333 335 338 340 342 344 348 350 351 350 349 347 346 346 346 347 348 349 350 350 351 351
312 312 312 311 311 312 312 312 311 311 311 312 312 313 314 316 315 317 321 319 319 327 332 332 331 329 328 328 327 327 327 326 326 326 327 328 327 327 328 328 329 330 332 334 337 339 341 343 346 349 351 351 349 348 347 346 347 347 349 349 350 351 351
311 311 311 311 311 311 311 311 311 311 311 311 313 313 313 314 314 318 322 320 320 328 331 330 329 327 327 326 325 326 325 325 325 325 325 326 326 327 327 327 328 328 329 331 334 336 338 340 342 344 347 350 351 351 349 347 346 347 348 349 350 350 351
312 311 311 311 311 311 311 310 310 311 311 311 311 311 312 313 313 315 317 319 324 329 329 328 327 326 325 325 325 325 325 325 325 324 324 324 324 325 326 327 327 327 327 329 331 333 335 337 339 341 343 345 347 351 351 350 348 346 348 349 350 350 350
311 311 311 310 310 310 310 309 310 310 310 311 310 312 316 317 314 314 314 318 326 328 327 327 327 325 325 325 324 325 324 324 324 324 323 323 322 323 325 326 326 326 327 328 329 330 332 335 337 339 341 342 345 347 350 352 351 348 348 349 349 350 350
311 312 311 310 310 310 309 309 310 310 310 311 312 318 324 324 322 321 317 317 325 327 326 327 327 326 327 325 324 324 324 323 323 323 323 322 322 322 323 324 325 326 326 328 329 329 330 332 334 336 338 341 343 346 348 351 353 352 350 349 349 349 350
311 311 310 311 310 308 308 310 310 311 313 315 318 323 327 327 326 326 322 322 326 325 324 325 326 325 326 325 322 322 323 323 322 322 322 321 321 322 322 322 323 324 325 327 328 328 329 331 332 334 336 338 341 345 348 350 353 354 353 352 350 350 350
311 311 312 312 308 306 309 311 310 312 314 318 323 326 327 327 326 326 325 324 324 323 323 324 323 323 324 323 321 320 321 322 322 321 321 321 320 321 321 322 323 323 324 326 326 327 329 330 331 332 334 336 338 342 347 349 352 353 354 355 354 352 352
312 313 312 310 308 309 310 310 312 315 317 320 325 326 325 325 325 325 325 325 324 323 322 322 321 322 322 322 322 319 318 320 321 320 321 320 320 320 320 321 323 323 324 324 325 327 328 328 329 331 333 334 336 341 345 348 350 352 353 354 355 355 355
313 314 311 309 310 311 310 311 315 318 319 321 324 324 324 323 322 324 325 324 323 322 321 321 321 321 320 322 323 320 317 319 320 320 320 319 319 320 320 321 322 323 323 323 324 326 327 327 328 329 331 333 336 339 343 346 348 349 349 350 351 352 354
314 314 312 312 313 312 312 315 318 317 318 320 320 321 323 321 320 321 323 323 322 321 320 319 319 320 323 325 325 320 317 317 318 319 320 319 319 320 321 321 322 322 323 323 323 325 326 326 327 328 330 333 336 338 341 343 345 347 347 347 347 347 349
314 313 314 314 313 312 315 318 317 315 316 317 317 318 320 320 319 319 320 321 320 319 318 318 318 321 324 326 325 320 316 316 317 318 319 320 320 320 321 321 321 322 323 323 323 324 325 325 326 327 330 333 335 337 339 341 343 344 344 344 345 346 348
314 314 314 314 313 313 315 317 316 314 314 316 316 315 317 319 317 317 318 319 318 317 317 317 318 321 323 324 322 318 315 315 316 317 318 319 319 319 320 320 320 322 323 323 323 323 323 324 325 327 329 331 333 335 337 338 340 340 338 337 339 343 346
315 314 314 314 314 314 315 315 314 314 315 316 315 314 318 318 316 316 317 317 316 316 316 315 317 320 321 321 318 315 314 316 316 316 317 318 318 318 319 319 319 321 322 323 323 322 322 324 325 326 328 330 331 333 334 335 336 336 335 333 335 339 342
315 315 315 315 314 314 315 315 314 314 314 314 314 315 318 317 315 315 315 315 314 314 314 314 316 316 316 315 313 312 313 314 315 316 316 316 316 317 318 319 319 320 320 322 322 322 322 323 324 325 327 329 330 331 332 333 333 333 333 332 334 337 340
315 315 315 315 314 315 316 315 315 315 314 314 315 315 314 315 315 314 314 313 313 313 313 313 313 313 312 311 311 311 312 313 314 315 315 315 315 316 316 318 319 319 319 320 321 322 322 322 323 324 326 327 329 329 330 331 330 331 331 331 333 337 338
314 314 314 314 315 316 316 315 315 316 315 314 314 314 313 314 314 313 313 313 312 312 312 312 311 311 311 311 311 311 312 312 314 314 314 315 315 315 315 316 317 318 318 319 319 320 321 321 322 324 325 327 328 329 329 329 329 329 331 331 332 336 338
314 314 314 315 315 315 315 315 316 317 316 314 313 313 313 314 313 312 312 312 311 310 310 310 310 310 310 310 311 311 311 312 313 313 314 314 314 315 315 315 315 317 317 318 318 319 319 321 322 323 325 327 328 328 328 328 328 329 330 330 331 333 335
314 314 314 314 314 315 315 315 315 315 314 313 312 312 312 312 312 311 311 311 310 309 309 309 309 310 310 309 310 310 310 311 312 313 313 313 314 314 314 314 315 315 316 317 317 318 319 320 321 322 324 326 327 328 327 327 328 328 329 330 331 332 333
313 312 313 313 312 313 314 314 314 314 313 312 312 311 311 311 311 310 310 309 309 309 309 309 309 309 309 309 309 309 309 310 311 313 313 313 313 313 313 314 314 314 315 315 316 317 318 319 320 321 323 324 325 326 327 326 327 328 328 329 331 332 333
312 313 314 313 312 313 313 313 313 313 312 311 311 311 311 310 309 309 309 308 308 308 308 309 309 309 309 308 308 309 309 309 311 312 312 312 313 313 313 313 314 314 314 315 316 316 317 319 319 319 321 323 324 325 326 326 326 327 328 329 330 331 332
312 313 314 313 311 311 311 311 312 312 312 311 311 310 310 310 309 309 309 308 308 308 308 308 308 308 308 308 308 308 309 310 311 311 311 312 312 312 312 313 313 313 314 314 315 316 317 318 319 319 320 323 323 323 324 325 325 326 327 328 329 330 331
313 313 313 312 312 312 311 311 311 311 311 311 310 310 309 309 309 309 309 309 309 308 308 308 308 308 308 308 309 308 308 310 310 310 310 311 311 311 312 312 312 313 314 314 314 315 315 317 318 319 320 322 323 322 322 323 324 325 326 327 328 329 330
314 314 314 313 313 312 311 312 312 312 311 310 310 310 309 308 308 308 308 308 309 308 308 308 308 307 308 309 309 308 309 309 310 309 310 310 310 310 311 311 312 312 313 313 314 314 315 316 318 319 320 322 323 323 322 322 322 324 325 326 326 327 329
315 314 315 315 313 312 312 311 311 311 311 310 310 310 309 309 309 309 308 308 308 308 309 309 309 308 308 308 308 308 308 309 309 309 309 309 309 310 310 310 311 311 312 312 313 314 314 315 317 319 320 322 323 324 323 322 321 322 324 325 325 326 328
315 314 315 314 312 312 313 311 311 311 311 310 310 310 309 309 309 309 309 309 308 308 309 309 309 309 308 308 307 307 308 308 308 308 308 308 309 309 309 310 310 311 312 313 313 314 315 316 317 319 320 322 323 323 323 322 321 321 323 323 324 325 326
315 315 315 313 312 312 312 310 310 311 311 311 310 309 310 310 310 310 310 310 310 309 309 309 309 308 308 307 306 306 307 307 307 308 308 308 309 309 310 310 310 311 312 312 314 315 315 316 318 319 320 322 323 323 322 321 321 321 322 322 323 323 324

ECMWFFLT2_925_thetae_084.txt.gz
Theta_e
317 317 317 319 317 318 322 321 318 320 324 322 315 313 314 312 313 315 313 317 327 333 337 342 342 342 343 342 342 342 344 346 346 347 348 348 349 351 352 354 354 355 357 356 355 354 354 354 355 355 355 355 357 359 361 362 363 363 362 361 361 360 360
317 317 317 318 318 318 319 317 318 322 323 322 318 315 315 313 313 315 312 316 322 321 328 341 344 343 344 343 342 342 342 344 345 346 347 347 348 348 349 352 353 355 357 357 356 355 354 355 355 355 355 355 357 358 360 361 362 362 362 361 361 360 360
316 317 317 317 318 319 319 318 321 321 317 316 317 315 315 313 313 314 313 316 322 323 329 340 343 343 344 343 342 342 341 342 343 344 345 346 347 347 348 350 352 354 357 357 357 355 354 354 355 355 355 355 357 358 358 359 360 361 361 360 360 360 360
317 318 317 314 315 318 319 319 321 322 317 315 316 315 315 313 311 314 316 317 324 332 337 341 342 343 343 342 342 341 340 341 341 342 344 345 346 347 349 349 350 352 355 356 356 356 355 354 354 355 355 355 356 357 357 357 358 359 359 359 359 360 359
315 315 315 314 315 316 317 317 316 318 318 318 318 316 315 313 311 314 316 318 327 337 341 340 342 342 340 340 341 340 339 339 340 340 342 344 345 346 348 350 349 351 354 356 355 356 355 354 353 354 354 354 355 355 356 356 356 358 358 358 359 359 359
313 313 314 314 315 315 316 316 315 316 317 316 316 315 315 314 313 314 314 320 331 338 339 339 340 339 338 339 339 338 337 338 338 338 339 341 343 344 346 347 347 350 354 355 355 355 355 354 354 354 354 354 354 354 355 355 355 356 356 357 357 359 359
313 313 314 314 313 315 317 316 317 318 318 316 314 314 315 313 314 315 314 322 335 338 336 339 338 337 337 337 338 338 336 335 336 336 336 338 340 341 342 343 344 347 350 353 354 355 355 355 354 354 353 353 354 354 354 354 354 355 355 355 357 358 359
315 314 315 315 314 315 316 316 317 317 317 318 316 318 319 314 313 314 313 322 334 336 336 338 335 336 337 335 336 336 334 334 334 334 334 335 337 338 338 340 342 345 345 346 349 352 355 356 355 354 354 353 353 353 353 353 354 354 354 354 355 357 359
314 314 315 315 314 315 315 315 316 316 317 319 318 320 322 317 317 317 313 320 333 336 336 337 335 335 336 334 335 334 333 333 332 331 332 332 334 335 336 337 339 340 342 343 344 346 350 353 354 354 354 353 353 353 352 353 353 353 354 354 354 356 358
314 316 316 314 314 315 315 314 315 315 315 317 318 319 317 316 320 322 318 324 336 339 337 337 335 335 335 334 334 333 333 332 331 330 330 329 331 332 332 334 334 336 338 339 341 343 345 349 352 353 353 353 352 352 352 353 353 353 354 354 354 355 356
316 318 318 316 315 314 314 313 314 314 314 316 318 317 316 317 320 321 323 332 338 338 337 338 335 334 334 333 333 332 332 331 330 329 328 328 328 329 330 331 331 333 335 336 338 340 342 345 348 351 353 353 353 353 352 352 352 352 352 353 353 354 355
316 317 316 315 315 314 314 313 313 313 314 316 317 316 317 320 319 319 325 332 334 334 336 336 334 334 333 332 331 331 331 331 329 329 328 327 327 326 327 328 329 331 331 334 336 337 339 342 345 347 350 352 353 355 354 352 351 351 352 351 353 354 354
314 315 314 313 314 314 313 313 312 313 313 314 315 315 316 319 319 319 323 327 330 333 333 332 333 333 332 331 331 329 329 329 329 328 328 327 326 326 326 327 328 328 328 331 334 335 337 339 341 344 347 349 352 353 354 354 352 351 351 352 352 353 354
313 313 312 312 312 312 312 312 312 312 313 313 314 314 314 317 318 319 322 325 329 331 330 331 332 331 331 330 330 330 329 328 329 328 327 327 326 326 326 326 326 326 327 330 331 333 334 335 337 340 342 345 349 351 353 354 354 352 350 351 352 353 354
312 312 312 311 311 311 310 311 311 311 312 312 312 313 315 316 316 317 320 323 326 328 329 330 330 329 331 330 330 330 329 327 327 328 327 326 326 326 326 327 326 325 326 328 329 331 332 333 334 337 338 341 345 349 352 353 354 354 351 350 351 353 353
312 311 311 310 310 310 308 309 311 311 311 312 313 317 320 320 319 318 316 318 325 329 329 329 329 329 330 330 329 330 329 327 327 327 326 326 326 326 327 327 326 325 325 326 327 329 331 332 332 333 335 338 341 344 348 352 353 354 354 352 350 351 353
312 311 310 311 310 309 309 310 312 312 313 314 316 320 324 324 324 321 317 320 327 330 328 329 330 328 329 329 328 327 328 327 326 325 325 325 325 326 326 326 326 326 326 326 326 328 330 331 331 331 333 335 337 339 343 349 353 354 355 355 355 354 352
313 311 311 312 310 309 311 313 313 315 316 316 318 321 324 325 324 324 324 325 328 326 326 328 328 327 328 327 326 324 325 326 325 325 324 324 324 325 325 326 327 328 328 327 326 327 328 329 329 330 331 333 336 338 342 347 351 354 356 356 357 358 355
313 313 313 313 312 312 314 315 314 316 318 320 321 324 324 324 324 325 326 325 325 325 325 325 326 326 326 325 325 324 322 324 325 324 323 323 322 322 323 325 326 327 327 327 327 327 327 327 328 329 331 333 335 338 341 345 348 351 355 356 356 358 358
315 314 312 313 314 315 314 313 314 316 317 319 322 324 323 323 323 324 325 325 325 325 324 324 324 324 324 325 326 323 321 321 323 323 322 321 321 321 322 323 324 325 326 326 327 327 326 326 328 329 330 332 334 336 339 343 345 346 349 352 353 355 357
316 314 312 314 316 315 313 315 317 318 318 320 321 322 323 323 322 321 324 325 325 324 323 323 322 322 324 326 326 323 320 319 320 322 322 321 321 322 322 322 323 322 323 325 326 326 326 326 327 328 329 331 333 335 337 340 342 343 343 345 346 348 350
316 314 313 314 314 314 318 320 318 318 319 320 320 318 319 323 322 321 322 324 323 323 322 322 322 322 324 327 326 322 319 318 319 320 321 321 321 321 321 321 322 321 322 323 324 324 325 325 326 327 329 331 332 334 336 337 339 340 340 340 340 343 345
316 315 314 314 314 316 321 321 318 317 316 317 318 317 317 322 322 320 320 321 321 321 321 321 322 323 323 325 325 320 317 317 318 319 320 320 320 319 319 320 320 321 322 322 322 322 324 325 325 326 328 330 331 333 334 335 337 338 338 338 338 339 341
316 316 315 314 315 318 321 319 317 316 316 317 319 319 320 322 320 318 319 319 318 319 319 319 321 322 322 322 320 317 316 317 317 318 318 318 319 319 318 318 319 320 321 321 321 321 322 323 323 325 327 328 330 332 333 334 336 336 335 336 337 338 339
316 316 315 314 315 318 319 318 316 316 316 317 318 320 321 321 319 318 319 318 317 318 318 318 319 319 319 318 316 315 315 316 316 316 316 317 317 317 317 318 318 318 319 320 320 320 321 321 322 323 325 328 329 330 331 333 334 334 334 335 336 337 338
316 316 315 315 315 318 318 317 317 316 315 316 318 320 320 319 318 319 318 317 317 317 317 317 318 317 316 315 314 314 314 315 315 316 316 316 316 317 317 317 317 317 318 319 319 320 319 319 320 321 323 327 329 329 330 331 331 332 333 335 336 336 337
315 315 315 314 315 318 318 317 317 316 315 316 318 319 318 318 317 318 317 316 317 316 316 316 316 315 315 314 314 314 314 314 315 315 315 316 316 316 316 316 316 317 317 317 318 318 319 319 320 321 322 325 328 329 329 330 330 330 332 333 334 335 337
313 313 314 315 315 318 317 315 315 317 317 318 319 318 316 316 316 316 315 316 316 315 315 315 314 314 314 314 314 314 313 314 315 314 315 315 315 315 315 315 316 316 317 317 317 317 318 319 321 321 322 323 326 327 329 329 329 330 331 332 333 335 336
314 314 316 317 316 317 316 314 314 316 317 318 318 317 315 315 315 315 315 315 315 315 314 313 313 313 313 313 313 313 312 313 314 314 314 314 314 314 314 315 315 316 316 317 317 317 317 319 320 321 322 322 323 326 328 328 329 329 330 331 332 333 335
315 315 316 316 315 314 315 314 314 315 316 316 315 315 314 314 314 314 314 314 313 314 313 313 313 313 313 313 313 312 313 313 314 314 314 314 314 314 314 314 315 316 316 316 317 317 318 318 320 321 321 321 321 323 326 327 327 328 329 330 331 332 334
316 315 315 315 314 314 314 314 314 315 315 315 314 314 313 313 313 313 313 313 312 312 313 313 313 313 313 313 313 313 313 313 314 314 314 314 314 314 314 314 315 316 316 317 317 318 318 319 319 320 321 321 320 320 323 325 326 327 328 329 330 331 332
316 316 316 316 315 315 314 313 313 314 315 314 314 313 313 313 314 314 314 313 312 312 312 313 313 313 313 313 313 313 313 314 314 314 314 314 314 314 314 315 315 316 316 317 317 318 319 319 319 319 320 320 320 320 321 323 326 327 328 328 329 330 331
316 316 316 316 316 315 315 314 313 313 313 314 314 313 313 313 314 314 314 313 313 312 312 313 313 312 312 312 313 312 312 313 314 313 313 313 313 314 314 314 314 315 315 316 317 317 318 319 319 319 319 320 321 321 322 324 326 327 328 328 328 329 330
315 316 316 316 316 316 315 315 314 313 313 313 313 314 314 313 313 313 313 313 313 313 312 312 312 311 311 312 312 311 312 312 312 312 312 312 313 313 313 313 314 314 314 315 315 316 316 317 318 318 318 319 320 321 322 325 325 325 326 328 328 328 329
315 316 316 315 316 315 315 315 314 314 313 313 313 314 314 313 313 314 313 313 313 312 311 311 311 311 311 311 311 311 311 311 310 311 311 311 311 312 312 312 312 313 313 313 314 315 315 316 317 318 319 319 320 321 322 324 325 324 325 325 327 328 328
316 315 315 316 317 316 315 314 314 314 314 314 313 314 314 314 314 314 313 313 312 311 311 311 311 311 311 310 310 310 310 310 310 310 310 310 310 310 311 311 312 312 313 313 313 314 314 315 316 317 318 319 320 321 322 324 325 324 324 324 325 326 327
316 315 315 317 317 315 315 314 314 314 315 314 314 314 314 314 314 314 313 313 312 311 311 311 310 310 310 309 309 309 309 308 309 309 309 310 310 310 311 311 312 312 312 312 313 313 314 314 315 316 317 318 320 321 322 323 324 324 324 324 324 324 325

ECMWFFLT2_925_thetae_087.txt.gz
Theta_e
322 323 322 324 321 318 322 323 319 321 325 323 313 311 313 311 312 312 312 322 333 339 343 345 344 346 346 345 346 346 349 350 349 351 352 351 354 355 356 356 355 356 356 355 354 355 355 356 354 354 354 354 356 360 362 364 365 364 364 364 362 362 361
320 321 320 322 323 321 320 317 319 324 326 324 318 313 313 312 312 312 311 319 327 330 336 345 345 346 346 346 346 346 347 348 348 349 350 351 352 354 355 356 356 357 358 357 356 354 354 354 354 355 355 356 358 360 361 362 365 365 364 364 362 362 362
319 321 320 319 321 323 322 319 323 323 317 316 318 315 314 312 311 312 311 315 320 322 329 342 345 345 346 346 346 346 346 347 347 347 348 349 350 352 353 355 356 356 358 359 359 357 356 356 355 353 354 356 358 359 360 361 363 364 364 363 362 361 362
320 320 318 314 316 321 322 322 324 323 318 317 317 316 316 312 311 313 311 313 321 326 334 342 344 345 345 346 346 346 345 345 345 345 346 347 349 350 351 353 354 355 357 358 357 356 355 355 356 355 353 355 356 358 360 359 360 362 362 361 361 361 361
317 316 317 316 316 318 319 318 318 319 319 320 318 317 316 312 313 314 310 316 328 336 341 343 343 343 343 343 345 345 344 343 343 344 345 345 347 348 349 350 350 353 357 357 355 355 354 353 354 355 355 356 357 356 358 358 358 361 361 360 360 362 361
313 315 319 320 319 320 319 318 318 318 317 316 314 314 314 311 312 312 312 324 334 338 339 341 340 341 340 341 343 342 342 342 342 343 343 344 345 345 346 347 346 349 355 357 356 356 355 354 355 356 357 357 357 356 356 355 357 359 359 358 358 361 361
315 318 320 320 319 321 322 320 321 322 319 315 311 312 313 311 312 311 315 330 339 339 339 340 338 339 339 339 341 340 340 340 341 342 341 341 342 343 344 343 343 348 351 353 355 356 356 355 355 355 357 358 356 356 356 355 356 356 355 356 357 359 361
318 319 320 320 320 321 320 320 322 321 320 319 316 317 318 313 312 310 316 332 340 338 339 340 336 339 338 337 339 339 339 339 338 339 339 339 340 341 341 341 342 346 347 348 351 353 356 357 355 354 356 358 356 354 354 353 353 353 354 355 357 359 360
315 316 317 317 318 319 318 320 322 321 322 323 320 321 321 318 315 311 316 329 337 338 341 339 335 338 337 336 338 336 338 338 336 336 337 337 338 338 339 339 340 342 344 345 347 349 352 355 356 356 355 356 355 352 351 352 352 352 354 355 356 358 359
315 316 316 314 316 318 318 319 321 321 321 321 320 318 316 316 317 315 320 330 336 339 341 338 336 337 337 337 337 335 336 336 335 336 335 336 337 337 337 337 337 338 340 343 345 346 347 349 352 354 354 354 354 352 351 352 353 353 354 355 355 355 357
317 319 319 319 318 316 315 316 318 320 320 321 321 316 314 317 316 319 329 337 337 338 340 339 338 337 337 337 336 335 336 335 335 335 334 334 334 334 335 334 334 336 338 340 343 343 344 345 347 349 352 353 354 354 353 353 353 354 354 354 355 355 356
317 319 318 320 320 316 315 316 316 318 319 321 320 316 318 322 317 321 338 342 334 337 341 338 338 337 337 337 335 335 335 334 334 334 334 334 332 331 332 332 332 333 334 337 340 340 341 342 343 345 347 350 351 353 353 352 352 353 352 352 354 355 356
316 317 316 317 319 317 317 316 315 317 318 319 320 318 321 326 321 326 341 342 336 339 339 336 337 337 336 335 334 334 334 333 334 334 333 333 331 331 331 330 331 331 331 334 337 337 338 338 340 341 343 345 348 350 352 353 352 353 352 352 353 354 355
315 315 315 315 316 315 316 316 316 317 317 318 319 319 322 327 326 330 338 339 338 338 336 336 336 334 334 334 333 333 333 333 333 332 332 331 331 331 330 330 331 330 330 333 334 335 336 336 336 338 340 342 344 347 349 351 353 354 353 352 354 354 354
313 313 314 313 314 314 313 314 315 315 316 316 317 318 320 323 326 329 333 335 336 335 334 334 333 333 335 334 333 334 333 331 332 331 331 331 330 330 331 331 331 330 330 332 333 334 335 335 335 337 338 340 342 345 346 348 351 353 353 354 354 353 354
311 312 312 311 313 313 310 311 313 314 314 315 316 318 321 321 322 324 328 330 333 334 332 331 331 333 334 333 334 334 332 331 330 330 330 330 330 330 330 332 332 330 330 331 332 332 332 334 335 335 336 338 340 342 344 347 350 351 353 354 353 352 353
310 311 311 311 311 309 308 311 313 314 315 317 319 322 324 325 324 322 323 327 331 333 331 330 331 331 332 332 332 332 332 332 329 329 329 328 328 329 330 330 330 330 331 331 332 332 331 332 334 334 335 337 338 339 341 344 348 350 352 354 354 355 355
311 312 311 311 309 308 311 314 315 317 317 317 320 322 323 326 327 326 328 330 331 331 331 330 330 330 331 330 329 329 331 332 329 327 327 326 326 327 328 328 328 329 330 331 331 332 331 331 332 333 334 336 338 338 340 343 346 347 349 351 352 354 355
312 313 311 309 310 312 316 318 317 318 319 317 321 326 326 325 326 329 331 331 329 329 329 329 329 329 328 327 327 327 327 329 329 327 326 325 325 325 326 327 327 328 328 329 330 330 330 330 331 332 333 335 337 338 339 341 343 345 346 346 346 349 352
314 314 309 310 314 317 318 317 315 315 318 319 321 325 325 324 325 328 329 328 328 328 327 326 327 327 326 327 327 325 324 326 327 325 325 324 323 324 324 325 326 326 325 326 327 328 329 329 329 330 332 334 335 337 338 339 340 342 343 343 343 344 346
315 313 309 314 318 318 316 317 317 318 320 320 321 322 323 323 323 325 327 327 326 325 325 325 325 325 326 327 327 325 323 323 324 325 324 322 323 324 323 323 325 324 324 325 325 325 327 327 327 329 331 332 334 336 337 338 338 340 340 341 341 341 342
315 313 312 315 316 315 317 320 321 321 320 320 320 320 322 324 323 322 325 326 325 324 325 324 324 325 327 329 328 324 322 321 321 323 323 322 322 322 321 322 323 322 323 324 324 323 325 325 325 326 329 332 334 335 336 337 338 338 339 339 339 340 340
314 313 313 313 313 317 323 323 320 318 317 317 317 315 317 323 324 321 323 324 323 323 324 323 324 325 327 329 327 323 320 320 320 321 321 321 321 320 320 321 321 320 322 323 323 323 323 323 323 324 325 329 332 334 334 336 337 337 337 337 338 339 339
314 314 313 311 314 321 325 322 318 317 316 317 317 315 317 323 323 321 321 322 321 322 322 322 323 324 326 326 324 320 319 320 320 320 320 320 320 320 319 320 320 319 320 322 321 321 322 323 323 322 323 325 329 331 333 335 335 335 335 336 337 338 339
313 314 313 311 317 324 324 320 318 317 316 316 317 319 322 325 323 321 321 321 320 320 320 320 321 323 323 321 320 319 319 319 319 319 319 319 319 319 319 319 319 319 319 320 320 320 321 321 322 322 322 324 326 329 331 333 334 334 334 336 337 337 338
313 314 313 312 317 323 322 319 319 317 316 317 320 322 324 323 321 321 320 319 319 319 319 319 320 320 320 318 318 318 317 318 319 319 318 318 318 318 318 318 318 318 319 319 319 319 320 320 320 322 323 324 326 327 328 330 331 332 333 335 336 336 337
314 314 314 313 317 322 322 319 319 317 316 319 322 323 323 321 320 320 319 318 319 318 318 319 318 318 319 318 317 317 317 317 318 318 318 318 318 318 317 317 317 318 318 319 319 319 319 319 320 322 323 325 326 325 326 328 330 330 332 333 335 336 336
314 313 314 316 319 321 320 317 317 318 319 321 322 321 320 319 319 318 318 318 318 317 318 318 317 317 317 317 317 317 317 317 318 318 318 318 317 317 317 316 317 317 317 318 318 318 319 319 320 322 323 325 326 326 326 327 328 329 331 332 333 334 335
317 315 317 320 321 320 318 316 316 318 319 321 321 320 320 319 317 317 317 317 317 317 317 317 317 316 316 316 316 317 316 316 317 318 318 317 317 317 316 316 316 317 317 317 317 317 319 320 320 322 323 323 325 326 326 326 326 327 329 331 332 333 334
318 317 318 320 319 319 318 316 316 317 318 318 319 318 317 316 316 317 316 316 316 317 317 317 317 316 316 316 316 316 316 316 317 317 317 317 318 318 317 317 317 317 317 316 317 318 319 320 321 321 322 322 323 324 325 325 324 325 326 330 331 331 332
317 317 317 318 318 318 317 316 317 317 317 317 317 317 317 316 316 316 316 316 316 316 316 316 316 317 317 316 316 316 316 316 317 317 317 317 317 318 318 318 317 317 317 317 318 319 320 321 321 321 322 322 322 322 323 324 323 323 325 328 329 330 330
316 317 318 318 318 318 317 317 316 317 317 317 317 317 317 316 316 316 316 316 315 315 315 316 316 316 316 315 315 315 315 316 316 315 315 316 316 316 317 317 317 317 318 318 318 319 320 320 321 321 322 322 322 322 322 323 323 324 325 327 328 329 329
317 317 317 318 318 318 318 318 317 317 317 317 317 317 316 316 316 316 316 316 315 315 315 316 316 316 315 315 315 314 314 315 315 314 314 314 314 315 315 316 316 317 317 317 318 319 319 319 320 320 321 322 322 322 322 323 324 325 326 328 329 329 329
317 317 318 319 319 319 319 318 318 317 317 316 316 316 316 316 316 316 316 316 316 315 315 315 315 315 315 315 314 314 314 314 314 313 313 313 313 314 314 314 315 315 316 317 317 318 318 319 319 319 320 320 322 322 323 324 324 324 326 328 329 328 328
317 317 318 319 319 319 319 318 317 317 317 316 316 316 316 315 315 316 316 315 315 314 314 314 314 314 314 314 314 313 313 313 313 312 312 312 312 312 313 313 314 314 315 316 316 317 318 318 318 319 319 320 320 321 322 323 324 325 326 327 328 328 327
318 318 318 319 319 319 319 319 318 318 317 316 316 316 316 315 316 316 315 315 314 314 313 313 313 312 313 312 312 312 313 312 312 312 311 311 311 311 312 312 313 314 314 315 315 316 317 317 317 318 318 318 319 320 321 322 323 324 326 327 328 328 327
319 318 318 319 319 319 319 319 318 318 318 317 316 316 316 315 316 316 315 315 315 314 314 313 312 312 312 312 311 311 311 311 311 311 311 311 311 311 312 312 312 313 313 314 314 315 315 316 316 316 317 317 317 318 319 320 321 322 324 325 326 327 327

ECMWFFLT2_925_thetae_093.txt.gz
Theta_e
326 327 327 325 326 327 330 324 320 327 331 327 320 318 320 317 317 326 335 342 349 350 355 361 358 356 356 355 355 355 357 358 359 360 359 358 359 361 360 360 359 357 356 355 353 352 351 351 352 352 351 351 354 356 356 357 357 357 358 358 357 357 357
324 326 327 326 327 330 327 320 322 331 330 327 324 320 319 317 318 331 340 342 344 346 351 360 360 359 360 357 354 356 356 357 358 358 359 360 361 363 363 361 358 356 355 355 356 354 353 353 352 353 354 353 355 357 356 357 358 358 358 359 359 358 358
323 325 326 324 326 327 327 323 327 330 322 321 323 319 319 318 319 336 346 342 342 343 346 354 356 357 361 357 353 355 355 356 357 356 356 357 358 360 362 363 363 361 356 355 356 355 355 355 353 354 355 354 357 359 358 358 359 358 359 360 361 361 360
324 325 322 319 322 325 329 328 327 328 322 321 322 319 320 317 318 338 350 346 347 348 349 355 357 357 355 352 353 353 352 354 354 354 355 355 356 359 360 360 362 361 358 357 357 355 355 354 353 355 356 355 357 361 360 360 360 359 359 360 361 361 362
320 320 320 321 321 323 325 323 320 321 321 323 322 319 319 316 319 336 349 348 348 351 354 356 359 360 354 350 352 350 349 350 350 351 352 353 356 357 356 356 357 357 357 357 357 355 354 354 355 356 357 355 355 358 360 360 359 358 358 359 359 360 361
316 318 322 323 323 324 324 322 319 320 321 319 318 320 320 313 317 332 345 348 347 349 353 353 351 355 355 349 349 349 347 347 348 348 349 350 352 352 351 351 352 355 357 358 359 356 353 354 356 355 354 354 354 355 355 355 355 356 356 357 356 358 359
319 322 324 323 323 323 322 324 325 323 323 319 315 318 321 319 323 332 340 345 349 351 354 352 348 351 353 348 346 347 346 346 346 346 346 347 348 347 347 346 348 352 356 358 359 357 354 355 355 354 353 352 352 353 352 353 353 353 353 355 355 355 357
324 323 324 322 322 323 321 322 325 323 323 322 319 321 325 327 333 339 342 346 350 351 352 352 348 349 349 346 346 346 346 346 345 344 344 345 346 345 344 343 344 348 351 353 355 355 354 354 354 354 353 352 352 352 352 352 352 353 353 354 355 354 354
326 325 325 322 321 321 320 321 323 323 322 324 327 327 329 332 333 337 344 349 351 351 351 349 348 349 347 345 346 345 345 345 343 342 341 342 343 343 342 341 341 343 345 347 350 351 353 353 354 353 353 353 353 352 352 351 352 354 354 353 354 354 353
327 327 326 324 323 322 320 321 322 322 322 323 326 325 329 339 342 338 340 346 350 353 351 347 347 347 343 343 343 342 343 343 342 341 340 339 340 341 341 341 341 341 342 344 345 347 349 350 352 353 353 353 353 352 353 353 353 356 355 354 354 353 354
328 327 327 328 325 319 317 318 319 321 323 323 325 327 330 341 347 343 341 343 346 348 348 348 350 348 343 341 341 340 341 341 340 340 339 338 337 338 339 339 339 340 341 342 344 345 346 346 347 351 353 353 354 354 354 354 354 355 355 354 353 351 351
326 327 326 324 321 317 316 317 318 319 322 322 323 324 328 338 345 345 346 343 341 343 345 347 350 349 343 340 340 340 339 339 338 338 338 337 336 336 337 337 337 339 340 340 341 342 344 344 344 346 350 351 352 354 355 355 354 354 353 352 352 351 351
323 324 324 323 320 319 318 318 318 318 320 322 319 319 326 339 343 344 348 346 344 345 344 343 345 345 340 339 339 338 337 338 337 336 336 335 335 335 335 335 335 337 338 339 339 340 342 344 343 344 346 348 349 351 353 354 354 354 354 353 352 353 352
319 320 322 322 320 319 318 318 320 319 319 320 318 322 334 344 343 344 349 349 347 347 346 343 340 337 336 337 337 337 337 337 336 336 335 335 334 334 334 334 334 334 336 336 337 339 339 341 342 344 345 346 347 349 350 351 352 353 354 353 354 354 354
317 316 319 321 320 319 317 316 319 319 319 319 319 325 336 344 344 344 347 348 348 348 347 344 335 335 336 335 336 337 337 336 335 334 334 334 334 333 333 334 333 333 334 334 334 336 337 337 340 342 344 345 346 347 348 349 350 351 351 352 353 356 356
316 315 317 318 318 318 315 315 317 317 318 319 318 323 332 339 342 343 343 344 346 347 348 344 335 335 335 334 335 336 334 334 333 332 332 332 332 332 332 334 334 333 333 333 333 335 336 336 337 339 341 343 343 345 347 347 348 348 348 348 349 352 354
317 315 314 316 317 317 316 316 318 319 319 319 319 322 330 336 342 344 342 342 343 342 344 343 338 335 335 334 334 334 334 333 331 331 331 330 330 332 332 332 333 333 332 332 332 334 335 335 335 337 339 340 342 343 344 344 345 345 345 345 345 346 349
318 317 317 320 318 316 318 319 319 319 319 322 324 326 330 335 340 343 342 342 342 341 341 342 338 335 335 335 333 333 334 333 331 330 330 328 329 331 332 333 332 330 330 330 329 330 333 334 334 336 338 338 340 342 341 341 342 342 343 343 342 343 344
320 321 320 319 317 317 319 319 319 320 321 324 328 330 333 337 338 339 341 341 339 339 340 341 340 335 333 333 331 330 331 332 331 328 328 328 328 328 330 333 331 328 327 328 326 326 329 332 333 334 336 337 339 340 339 338 339 340 341 341 341 341 342
321 321 318 318 320 321 320 320 321 321 323 326 330 330 332 335 336 336 338 338 335 335 336 337 337 334 331 331 331 328 328 330 331 328 326 326 325 324 326 328 326 325 325 326 325 324 326 330 331 331 332 333 336 338 339 338 337 338 339 340 340 340 341
319 318 317 321 325 322 322 326 325 324 325 327 331 332 331 333 335 334 336 337 335 333 333 333 333 331 330 331 331 329 326 326 328 327 325 324 323 323 323 323 323 323 323 324 324 322 323 327 329 328 328 328 330 334 336 337 336 336 337 339 339 339 340
323 319 319 321 322 321 325 327 325 323 321 322 331 335 330 331 335 333 334 336 335 333 332 331 331 330 330 332 331 328 326 324 324 324 322 321 322 321 321 321 322 322 321 322 322 321 321 324 327 327 327 327 327 329 331 334 334 333 334 337 338 338 339
328 323 319 319 323 328 331 328 322 320 317 318 330 332 327 331 335 333 333 334 333 333 332 330 330 330 331 332 329 324 323 322 321 322 321 321 320 319 319 320 321 321 320 320 320 320 320 322 324 326 327 327 326 327 328 330 331 330 331 334 336 336 337
327 325 321 321 328 334 334 326 319 318 319 321 323 320 322 332 332 327 330 333 331 331 331 330 331 331 331 330 327 322 321 321 320 321 321 320 319 319 319 320 320 320 320 319 319 319 319 321 322 325 327 327 327 327 328 329 329 329 328 330 333 334 335
324 323 321 324 329 330 328 325 321 320 323 324 321 322 330 335 328 323 326 329 328 328 328 329 330 329 328 327 323 320 321 321 321 320 320 319 319 319 319 319 319 319 319 319 318 317 319 321 322 323 325 325 326 327 328 328 329 328 327 328 330 332 334
320 320 320 326 331 328 325 325 324 326 328 327 326 331 335 331 325 324 324 324 325 326 325 326 327 324 322 321 320 320 322 321 320 320 319 319 319 319 320 320 319 319 319 318 318 318 319 321 322 322 323 323 324 326 327 328 328 327 326 326 327 329 333
319 318 319 327 331 329 326 327 328 331 333 332 332 333 331 327 326 326 324 324 325 325 324 324 323 322 321 322 322 322 322 321 320 320 320 320 319 319 320 320 320 319 319 318 318 319 320 320 321 321 322 323 324 325 325 325 324 324 325 326 327 329 332
320 320 322 327 330 328 328 330 331 331 332 334 334 331 328 328 328 328 329 327 325 325 326 325 323 323 322 323 324 324 322 321 320 319 319 319 319 319 319 319 319 318 318 318 319 319 320 321 321 321 321 322 323 324 324 323 323 324 325 325 326 326 327
326 326 328 330 330 328 328 330 330 330 329 331 332 330 329 329 326 326 328 327 326 328 328 326 325 325 323 321 323 323 323 321 319 319 319 319 318 318 318 317 318 318 318 318 319 319 320 320 320 321 321 321 322 322 323 322 323 324 324 323 324 324 323
328 328 329 330 328 325 325 327 329 330 327 326 328 329 329 328 326 324 325 324 325 328 329 328 327 325 323 322 322 323 323 321 318 318 318 317 317 317 316 316 317 317 317 318 318 319 319 319 320 321 321 321 321 321 322 322 323 323 323 323 325 326 325
325 324 327 330 328 325 324 324 326 328 326 326 328 329 328 326 325 324 324 323 322 324 327 328 327 324 322 322 323 324 325 322 318 317 317 316 316 316 316 316 316 315 316 316 317 317 318 318 319 319 320 320 320 321 321 322 322 323 323 324 325 326 326
325 324 326 327 326 325 325 324 324 325 325 326 327 328 327 325 324 322 321 321 321 322 324 326 325 323 323 324 324 325 325 320 316 316 316 316 316 315 315 315 315 314 315 316 316 316 317 317 317 318 319 319 320 320 321 321 321 321 322 323 324 324 325
327 328 329 329 328 326 325 324 324 325 326 326 326 326 325 323 323 323 320 319 318 319 321 324 324 323 324 323 322 324 322 318 316 316 315 315 315 314 314 314 313 313 314 314 315 316 316 317 317 318 318 318 318 319 319 319 320 320 320 321 321 322 323
327 329 329 331 331 328 325 325 326 327 327 326 325 325 323 322 322 324 322 319 316 316 317 318 320 324 324 320 317 319 319 316 315 315 314 314 313 313 313 313 312 312 313 314 315 316 316 316 316 316 317 317 317 317 317 318 318 318 319 319 319 319 320
329 328 327 328 329 328 327 326 326 327 326 325 325 325 324 323 321 322 323 321 318 318 317 314 315 321 321 317 315 317 316 314 313 314 313 313 312 312 312 312 312 312 313 314 315 315 315 315 315 316 316 316 316 316 316 317 317 317 317 318 319 320 319
328 327 327 327 327 327 327 326 326 326 324 323 325 326 326 324 320 318 321 322 320 320 320 317 314 316 316 314 314 316 314 313 313 313 312 312 312 312 311 312 312 313 314 314 314 314 315 315 315 316 316 316 317 317 317 316 317 317 316 317 318 319 319
327 326 325 325 325 325 324 323 325 325 322 322 325 325 325 324 320 318 320 320 318 319 321 319 315 314 314 314 314 313 313 312 312 312 311 311 311 311 311 312 313 314 314 314 314 315 315 316 316 317 317 318 318 318 317 317 316 317 317 317 317 317 317

ECMWFFLT2_925_thetae_096.txt.gz
Theta_e
327 326 329 328 326 329 331 324 322 329 337 334 323 323 329 325 325 333 343 349 349 352 357 358 360 363 362 359 358 359 360 359 360 360 361 359 358 359 357 357 358 355 354 353 352 351 348 348 348 348 350 352 352 352 352 352 351 351 353 353 353 354 355
325 324 326 327 327 334 331 320 324 333 331 331 327 324 325 323 329 340 346 350 348 348 356 361 361 362 361 360 359 359 359 361 362 362 362 360 359 360 359 359 359 355 353 353 353 352 349 348 350 351 351 352 353 352 352 353 353 352 353 353 354 354 355
324 324 323 324 325 330 330 325 329 329 322 325 328 324 321 321 335 350 350 347 347 348 353 358 359 361 361 360 360 360 360 360 359 360 360 359 360 361 360 360 359 355 353 354 353 352 351 350 350 352 353 353 354 353 353 353 354 352 352 353 354 353 353
323 326 324 322 322 325 328 327 329 330 327 327 325 324 325 325 338 352 350 346 349 353 356 358 359 358 357 357 358 357 356 356 355 356 356 356 358 360 360 360 359 356 353 353 352 351 351 351 350 351 352 354 355 354 354 354 355 354 354 354 354 354 354
322 323 323 322 323 325 325 323 322 323 324 325 324 323 323 327 340 350 349 349 352 353 355 356 355 355 353 354 354 352 351 351 352 353 353 353 353 354 356 358 358 355 353 352 351 351 351 350 350 350 351 354 355 355 354 354 354 356 356 356 356 356 355
319 321 322 322 325 324 324 323 322 323 323 321 320 321 322 327 339 345 347 351 351 350 352 352 352 352 351 351 351 348 348 348 348 349 349 348 348 348 350 352 354 354 353 352 351 351 352 352 351 351 352 353 355 356 355 354 354 355 357 358 358 357 357
320 322 324 323 322 323 325 323 323 326 326 324 319 319 325 333 337 340 345 350 352 351 350 350 351 351 350 350 349 346 345 345 345 346 345 344 344 344 345 346 350 352 351 351 351 351 352 353 353 352 353 353 353 355 355 355 356 356 357 358 359 358 358
329 327 327 326 323 325 326 323 323 323 321 325 326 325 334 341 341 344 348 351 353 352 350 349 349 352 351 350 349 347 344 342 342 343 343 343 342 342 342 343 345 348 348 349 351 351 352 353 353 353 352 351 352 354 355 356 356 356 356 358 359 360 360
332 332 330 327 324 324 324 321 322 322 320 326 331 335 344 344 339 343 349 352 352 351 351 349 348 351 352 350 348 344 342 341 340 341 341 341 341 341 341 342 343 346 347 347 349 350 350 350 351 351 351 351 351 352 354 354 355 355 355 355 357 358 358
330 330 329 326 325 324 322 321 320 320 323 328 329 334 344 344 340 343 347 350 352 350 351 351 350 351 351 351 348 342 340 340 339 339 340 339 340 340 340 341 341 343 345 346 346 347 348 349 350 349 350 351 351 351 351 351 352 353 353 354 354 355 356
335 333 334 333 328 322 316 316 319 318 322 331 335 337 341 344 346 348 347 348 350 349 350 351 352 351 349 348 347 342 339 339 338 338 339 338 338 339 338 339 339 341 343 344 346 346 347 349 351 350 351 351 351 351 350 350 351 351 352 352 352 353 354
331 331 334 331 325 321 316 315 318 317 320 327 331 332 337 342 346 348 349 348 348 349 349 349 351 351 347 344 344 341 338 338 338 338 338 337 336 338 338 338 338 339 341 342 344 345 345 347 348 349 350 350 351 351 350 351 352 352 351 352 352 352 353
322 323 325 323 320 320 319 318 316 316 321 325 325 328 340 349 348 347 347 347 347 347 346 346 347 347 345 343 342 339 337 337 336 336 336 336 335 336 337 336 336 337 338 339 341 341 343 345 345 345 346 347 349 351 350 351 353 353 352 352 353 353 353
320 321 322 319 318 319 319 319 318 317 324 333 335 336 343 350 347 344 346 348 348 348 345 344 344 343 341 341 340 338 336 336 336 335 335 335 334 334 334 334 335 335 335 336 337 338 340 343 344 344 345 346 347 348 348 349 352 354 353 352 352 352 351
321 321 322 319 317 318 318 318 319 319 323 331 342 345 344 346 346 344 345 348 348 347 346 343 342 342 339 337 337 337 336 335 334 334 333 332 333 333 333 334 334 333 334 335 335 336 338 340 342 343 343 345 346 346 347 347 348 351 352 353 353 352 352
325 321 320 319 318 320 318 317 319 321 320 322 335 346 346 345 345 344 345 347 346 345 344 340 340 340 337 336 336 335 334 333 332 332 331 330 330 331 331 333 333 333 333 334 334 335 336 338 340 342 343 343 343 344 345 345 345 347 348 349 350 351 352
328 321 318 320 322 320 318 317 319 323 326 326 334 344 345 342 343 343 343 345 344 343 340 337 337 336 335 334 334 332 332 332 330 329 329 329 329 330 330 332 333 331 331 333 334 334 334 336 338 340 340 341 341 342 343 343 342 343 343 343 344 346 348
325 320 322 329 328 320 318 319 320 325 331 334 338 342 342 341 340 340 341 342 342 341 338 335 334 334 333 333 331 331 331 330 329 329 329 329 330 330 330 330 329 328 327 330 333 333 332 333 337 340 339 337 337 339 341 341 341 340 341 341 341 343 344
323 325 328 328 324 320 321 321 322 326 331 335 339 341 340 339 339 339 339 339 339 340 340 338 335 332 330 330 329 329 329 329 329 328 328 329 329 328 328 328 325 324 324 328 331 331 330 330 333 336 338 337 335 335 337 339 339 339 340 341 341 342 343
322 325 327 324 321 323 328 325 322 327 330 332 338 340 337 336 338 339 339 338 337 337 338 338 335 330 327 327 327 327 327 328 328 327 326 326 326 325 325 323 322 323 323 325 328 330 328 327 329 332 335 337 336 334 333 336 338 338 338 339 340 342 342
322 322 327 330 326 323 327 328 324 325 325 325 335 339 335 334 337 337 337 337 336 335 335 334 332 330 328 328 325 324 323 324 325 325 323 322 322 321 321 320 320 321 320 322 326 328 327 326 326 326 329 332 333 332 331 331 334 335 335 336 338 340 341
329 327 328 330 325 320 325 329 324 320 321 323 331 335 331 332 335 336 335 335 334 334 335 334 333 334 336 333 327 322 320 320 321 320 319 319 319 319 319 319 318 318 318 320 323 326 327 326 325 325 326 328 330 330 329 328 329 331 331 332 334 337 339
333 331 325 324 325 327 333 335 328 320 320 323 331 335 331 328 331 333 334 334 333 333 334 333 333 335 337 333 326 321 320 319 318 318 318 318 319 319 319 318 318 317 318 319 321 323 324 324 324 324 325 326 327 329 328 328 327 327 327 328 330 333 336
333 331 325 327 332 332 331 332 328 322 322 324 331 335 333 328 327 330 332 332 332 332 332 332 332 331 330 328 323 320 319 318 318 318 319 319 320 321 320 318 318 318 318 319 320 321 321 322 322 323 324 325 326 327 326 326 325 325 325 326 327 329 332
330 328 324 328 337 335 328 326 327 327 326 323 325 330 332 329 326 327 330 330 329 330 330 329 329 327 324 322 320 319 318 318 318 318 319 320 321 320 320 319 318 318 318 319 320 320 320 321 321 322 323 324 324 324 324 324 324 325 325 325 326 327 331
326 329 326 328 336 336 328 327 332 334 327 320 323 328 330 329 324 323 327 329 328 328 327 326 325 323 321 320 319 319 319 319 318 318 319 319 319 319 319 318 317 317 318 318 319 320 320 320 321 321 322 322 323 323 322 323 324 324 324 324 324 325 326
323 325 324 327 334 333 327 327 333 336 331 327 330 331 327 327 325 322 324 325 324 324 323 321 321 320 319 320 320 320 320 319 318 318 318 318 318 318 318 318 317 317 317 318 318 319 319 319 320 320 321 321 321 321 322 322 323 323 323 322 322 323 324
321 323 322 326 332 333 332 333 333 332 332 336 338 331 325 326 326 324 324 324 322 321 320 320 320 320 319 320 320 320 320 320 318 317 317 317 317 317 317 317 316 316 317 317 317 317 318 319 319 320 320 320 320 320 321 321 322 322 322 321 321 323 324
328 331 328 329 333 332 330 333 333 330 331 336 334 328 325 326 324 323 325 324 322 321 320 320 320 320 319 320 320 320 321 320 317 316 316 316 316 316 316 316 316 316 316 316 316 317 317 318 318 318 319 319 319 320 320 321 321 321 321 321 322 323 323
327 330 329 328 329 328 327 328 330 328 327 327 325 324 325 324 321 322 326 326 324 323 321 321 321 320 319 319 319 320 320 319 316 316 316 316 316 316 316 316 316 315 315 315 316 316 316 316 317 317 318 318 319 319 319 320 320 320 320 320 321 321 320
322 323 326 327 326 327 328 328 328 328 326 323 322 323 324 322 321 321 322 324 325 323 321 322 322 320 320 320 320 319 319 318 315 315 315 316 315 315 315 315 315 315 315 315 315 315 315 316 317 317 317 318 318 318 318 318 318 318 319 319 319 319 318
323 321 324 327 327 327 327 325 325 326 326 324 322 322 323 323 322 320 318 319 321 321 320 320 320 320 320 320 320 320 318 316 314 314 315 315 315 315 314 314 313 314 313 313 313 314 315 316 316 316 316 316 316 316 317 317 317 317 317 317 317 317 318
332 328 327 329 327 325 325 327 326 325 324 323 323 323 323 323 323 321 318 317 318 318 318 317 319 321 321 318 317 320 318 314 313 315 315 314 314 313 313 312 312 312 312 313 314 315 315 315 315 315 315 315 315 315 315 316 316 316 316 316 316 316 317
333 331 328 328 326 323 325 326 327 326 326 324 322 322 323 324 325 323 320 317 316 315 315 315 318 323 323 317 315 317 317 314 313 314 313 312 312 312 312 312 311 311 313 314 314 314 314 314 314 314 314 315 315 315 315 316 316 316 316 316 316 316 316
334 332 329 328 328 328 326 324 325 327 327 326 325 324 324 323 321 321 320 320 319 318 315 313 314 318 318 314 312 313 313 313 313 313 312 311 311 311 311 311 312 313 314 314 313 313 314 314 314 315 316 317 317 317 317 317 317 316 316 316 316 317 317
333 331 329 327 327 327 326 324 324 323 322 324 326 327 328 325 318 315 318 319 318 320 319 315 313 314 313 312 312 312 312 312 312 311 311 311 311 311 312 312 313 313 313 313 313 314 314 315 316 316 317 317 317 317 317 318 318 317 317 317 317 317 316
328 327 327 326 325 325 325 325 323 320 319 321 323 325 328 328 321 316 316 315 313 316 319 316 314 314 313 312 312 312 311 311 311 311 311 311 311 312 313 313 313 313 313 313 313 313 314 315 316 316 316 317 316 316 316 316 317 317 318 318 318 318 317

ECMWFFLT2_925_thetae_102.txt.gz
Theta_e
323 325 324 322 322 322 321 320 319 321 326 330 325 323 333 336 336 342 348 353 358 355 351 351 353 358 360 359 358 360 359 358 357 356 353 351 351 351 354 356 355 351 345 341 341 342 344 344 344 345 346 347 348 348 349 350 350 350 350 351 350 350 350
325 323 322 322 322 325 324 318 321 325 324 331 330 324 331 338 339 344 352 356 356 351 349 351 354 359 361 361 360 360 360 359 357 357 354 351 350 351 356 358 355 351 348 345 342 341 343 344 344 344 345 347 347 348 349 349 350 350 350 350 349 349 349
325 324 321 321 323 325 326 323 325 325 321 323 325 323 327 333 342 352 353 351 352 351 351 352 355 358 360 362 362 360 361 360 359 359 358 356 355 356 358 359 358 354 350 349 345 342 343 343 344 344 345 347 348 348 349 349 349 349 349 350 349 350 349
320 325 325 323 325 325 325 326 323 325 328 326 323 324 330 336 344 351 350 350 353 353 351 352 355 357 359 361 361 359 358 357 358 359 361 360 357 358 359 357 357 354 350 350 348 344 344 343 344 344 344 346 347 348 349 349 349 349 350 350 350 350 350
319 322 323 323 326 324 324 326 321 321 325 325 323 322 329 344 353 351 349 350 352 351 350 352 355 355 355 357 357 355 352 352 353 353 356 357 353 354 355 354 353 351 349 350 349 347 346 344 345 345 345 346 347 347 348 348 349 349 349 350 350 350 350
320 323 324 323 324 323 327 327 320 320 322 322 324 320 323 342 353 349 348 351 352 350 349 351 353 352 352 351 351 352 351 350 351 351 352 353 352 352 351 351 352 351 349 350 350 349 348 347 347 346 345 346 347 348 348 348 348 349 349 350 350 350 349
322 324 324 323 321 321 326 324 319 322 324 324 327 323 325 339 347 346 348 351 352 349 348 350 350 348 349 348 348 349 350 349 350 350 351 352 353 352 351 351 351 350 349 350 349 349 349 349 350 350 349 348 347 347 348 348 348 349 349 349 349 350 350
338 333 330 329 326 324 326 325 323 321 317 321 327 331 338 344 347 350 349 349 352 349 348 350 348 346 347 346 346 347 347 347 347 348 350 351 351 351 351 351 350 349 349 349 349 349 349 349 349 350 351 350 350 349 349 349 349 349 350 350 350 351 350
338 336 335 331 326 327 327 327 328 321 318 323 329 336 345 345 345 347 343 345 352 351 348 348 347 346 346 344 344 345 346 346 345 345 347 348 348 349 349 350 349 349 349 349 349 349 349 349 349 349 349 350 351 352 350 349 350 350 351 351 351 351 351
328 328 332 328 324 327 325 323 323 318 319 326 331 335 335 333 338 343 342 348 354 351 349 350 347 345 345 343 342 342 343 344 343 344 345 345 346 348 349 348 347 348 349 348 348 348 348 349 348 348 348 349 350 351 352 351 351 352 352 351 352 352 352
328 329 334 331 329 328 322 319 320 319 322 330 337 339 334 333 340 344 346 352 353 352 353 352 348 345 344 343 342 341 341 342 341 343 343 343 345 346 346 346 346 347 347 346 347 347 348 348 348 348 348 348 349 350 350 350 352 352 351 351 352 352 353
331 334 333 326 325 324 319 319 320 320 329 336 334 332 335 340 341 342 347 352 351 352 355 352 347 345 343 342 342 341 341 340 340 341 341 342 343 343 344 344 344 346 347 346 346 347 348 349 349 348 348 348 349 349 348 349 351 351 351 351 351 353 353
330 331 326 322 321 320 319 321 320 319 329 339 337 335 342 345 338 339 348 351 350 352 352 349 345 343 342 342 341 340 339 339 338 338 339 340 340 341 341 341 342 344 345 345 345 346 346 347 347 347 347 347 348 348 349 349 350 350 351 350 351 352 352
325 327 326 324 322 320 320 322 322 321 327 337 346 346 346 348 345 345 348 349 351 352 349 345 342 340 340 340 338 338 338 338 338 337 338 339 339 339 339 339 340 340 341 342 343 343 344 345 345 345 346 346 346 347 347 348 349 349 349 349 349 350 350
321 324 329 330 326 321 321 322 326 329 328 334 349 350 346 349 350 347 348 350 352 351 345 341 340 338 339 338 337 337 337 336 337 336 337 338 338 338 338 338 339 338 339 340 340 341 341 341 342 342 343 344 343 343 345 346 347 348 349 349 349 349 349
322 321 326 332 330 323 321 323 330 336 331 329 341 345 343 348 350 347 349 352 351 347 342 340 339 338 337 337 336 336 335 335 335 335 336 336 336 336 336 336 337 337 337 338 338 339 339 339 340 340 341 342 341 342 343 343 345 347 348 348 348 348 348
324 322 325 332 331 325 325 326 329 336 336 334 341 343 339 342 346 347 349 349 347 344 340 339 339 337 336 336 334 335 335 334 333 331 332 333 332 332 333 333 334 334 334 334 335 336 336 336 336 337 337 337 338 339 341 342 343 344 344 344 345 345 347
323 324 330 334 332 329 330 328 327 334 338 339 342 339 334 337 340 343 346 345 343 341 339 338 338 335 335 334 331 331 331 331 330 327 327 328 328 328 329 329 330 330 330 330 331 331 331 331 330 330 330 330 331 333 335 337 339 340 340 340 341 341 342
325 331 335 331 330 332 334 329 327 333 336 335 339 338 333 335 339 341 344 343 340 339 337 336 335 332 330 329 328 327 326 326 326 325 324 325 325 325 327 327 327 327 327 327 327 327 327 327 326 325 325 326 326 328 330 331 333 334 334 334 334 335 335
320 329 334 333 333 331 331 329 325 327 330 331 340 345 336 333 337 340 340 339 337 335 334 331 330 329 327 326 325 324 323 323 323 323 322 322 323 324 325 324 324 324 325 325 326 326 325 325 323 323 324 325 325 325 326 327 327 327 328 328 328 330 330
320 326 330 332 330 323 324 326 323 323 322 321 336 349 341 332 336 338 336 336 334 332 331 329 328 326 325 326 324 320 319 320 320 320 320 321 322 322 322 321 322 322 323 324 324 324 324 323 323 323 323 324 324 323 323 324 324 325 325 325 325 326 327
328 332 331 327 325 325 328 327 324 323 320 317 330 347 345 335 334 335 335 336 334 331 329 328 328 327 328 328 324 319 317 318 318 319 320 320 320 321 320 321 321 321 322 323 323 323 323 322 323 322 322 322 322 322 322 321 322 323 323 323 324 324 326
331 336 333 327 327 330 330 329 327 324 321 322 331 342 344 338 334 333 334 335 335 332 330 329 328 329 330 327 322 319 318 318 317 318 319 319 319 320 320 320 320 320 321 322 322 322 322 322 322 322 322 321 321 321 320 320 320 321 321 321 322 323 324
334 335 330 325 328 329 327 330 331 324 321 325 331 336 338 337 334 333 332 332 333 332 331 330 330 330 329 327 324 321 320 318 317 318 318 318 319 319 319 319 320 320 320 321 321 321 321 321 321 321 321 321 320 320 320 320 320 319 319 319 319 321 323
331 330 323 321 327 327 324 326 328 323 321 324 331 336 336 335 334 333 331 330 329 330 332 334 333 330 327 325 325 324 322 320 319 318 317 318 318 319 319 319 319 319 319 319 319 319 320 320 320 320 320 319 320 319 319 319 320 318 318 317 317 319 321
320 327 326 325 327 324 322 325 325 323 323 326 331 332 331 332 334 333 331 329 329 331 334 334 331 328 324 321 322 323 322 322 321 319 318 319 319 318 318 318 318 318 318 318 318 318 319 320 319 319 319 319 319 319 318 318 318 318 317 317 316 316 318
319 328 329 326 325 323 323 326 326 322 321 324 327 325 324 328 333 332 330 330 330 331 332 329 326 324 323 321 322 321 321 321 320 319 319 319 318 317 317 317 317 317 316 316 317 317 318 318 318 319 318 318 317 317 317 317 317 317 316 316 315 316 316
325 329 327 324 325 323 322 324 325 324 323 323 327 329 327 327 329 330 330 331 330 329 328 327 326 324 322 321 321 320 320 319 319 318 318 317 317 317 316 316 316 315 316 316 316 317 317 317 317 317 317 317 316 316 316 316 316 316 316 315 315 316 316
324 327 327 328 327 324 322 323 323 326 327 324 325 330 329 327 327 330 331 331 329 325 324 325 325 322 320 321 320 320 320 318 317 317 317 316 316 316 315 315 314 314 314 315 316 316 316 316 316 316 315 315 315 315 315 316 316 316 315 315 315 315 316
320 320 322 325 325 323 324 324 322 322 324 323 322 325 327 326 327 328 329 328 326 322 321 323 323 320 320 320 320 319 319 317 316 316 316 315 315 315 314 314 314 314 314 315 315 315 315 315 315 315 315 315 315 315 315 315 315 315 315 315 315 315 315
320 319 321 324 324 322 323 326 326 324 323 321 321 322 324 323 323 325 325 324 323 321 321 321 320 319 319 319 319 318 317 316 315 314 314 315 314 314 314 314 314 315 315 315 315 314 314 314 314 314 314 314 315 315 315 315 315 315 315 316 315 315 315
322 320 321 324 324 321 320 323 326 326 324 322 320 320 321 320 319 321 321 321 323 324 323 322 321 320 320 319 318 318 316 315 314 314 313 314 314 313 313 313 313 314 314 314 314 313 313 314 314 315 315 315 315 315 316 315 315 315 315 316 316 315 316
329 323 321 323 324 323 322 322 323 322 323 324 324 322 321 319 318 319 319 319 321 323 324 323 323 323 322 320 318 317 316 313 313 313 313 313 313 313 312 312 312 313 314 314 313 313 314 315 315 315 315 315 316 316 316 316 316 316 316 316 316 316 316
330 327 323 322 323 326 324 321 322 323 323 326 329 327 324 322 320 319 319 318 318 320 321 320 321 323 323 320 318 316 314 312 313 313 313 313 313 312 311 312 313 313 313 313 313 314 315 315 315 315 315 314 314 314 315 315 315 315 316 316 316 316 317
328 327 327 325 325 327 324 320 323 323 322 327 331 327 325 325 320 317 318 318 317 319 319 318 319 320 319 317 316 314 313 312 313 313 313 312 312 311 312 313 313 313 313 313 313 314 315 315 315 315 314 313 313 312 312 312 312 312 313 312 313 315 316
324 324 329 328 324 323 323 322 325 322 320 326 330 326 326 325 318 314 316 316 315 316 317 316 316 317 316 315 314 313 312 312 313 312 312 312 311 311 312 313 313 313 313 313 313 314 315 315 315 315 314 313 312 311 311 310 310 310 309 309 310 313 315
323 324 329 327 323 323 323 322 322 319 317 321 325 324 324 323 319 316 316 315 312 313 314 314 313 314 314 313 313 313 312 312 312 312 311 311 311 312 313 313 313 312 312 312 313 314 314 314 314 314 313 312 312 311 310 309 309 308 308 307 307 311 314

ECMWFFLT2_925_thetae_105.txt.gz
Theta_e
318 320 320 319 318 317 317 316 315 318 321 321 320 321 326 326 324 332 336 332 336 341 343 351 357 356 356 353 350 352 353 355 355 354 353 353 353 355 356 355 350 346 346 347 348 348 348 348 349 349 350 350 350 351 351 352 353 352 351 351 351 352 352
318 317 318 319 319 319 317 314 316 320 321 322 321 319 324 325 321 329 334 331 333 334 336 351 360 356 357 357 354 355 355 355 355 354 353 352 353 354 355 357 354 348 346 346 347 347 347 348 348 349 349 349 350 351 351 352 353 352 352 351 352 352 351
319 317 318 318 319 319 319 317 319 320 315 317 321 319 319 321 321 329 335 335 334 331 335 350 357 357 359 358 357 356 356 356 355 354 353 352 352 353 354 357 357 352 347 345 346 347 347 348 348 348 349 350 350 351 352 352 353 352 352 353 353 352 352
318 318 319 316 317 320 319 319 320 320 317 316 319 319 317 318 322 327 333 336 335 335 343 353 356 359 361 359 359 358 356 356 355 354 353 352 352 354 355 356 357 356 352 348 347 347 347 347 348 348 348 349 350 351 352 353 353 353 353 354 353 352 352
317 318 320 318 319 319 318 318 317 318 320 318 319 320 319 321 323 325 327 329 333 341 350 354 356 358 358 358 358 357 357 356 356 355 354 352 352 354 355 355 356 357 355 353 349 346 346 346 347 347 347 348 350 351 352 352 352 352 353 353 353 352 353
315 318 320 319 320 320 318 319 317 316 319 317 315 317 323 326 327 327 324 322 331 345 349 352 355 354 354 356 355 354 356 356 356 355 354 352 352 352 353 354 356 356 355 355 353 348 347 347 347 347 346 347 349 350 351 352 352 352 352 353 353 352 352
319 320 321 319 318 319 318 318 318 318 319 318 313 313 321 327 330 332 327 323 335 347 348 350 354 352 352 355 354 354 355 356 356 356 354 354 353 352 351 353 354 352 352 353 352 349 348 347 346 346 344 345 346 348 349 351 352 352 352 352 353 352 352
322 321 321 321 319 319 319 319 321 320 317 317 316 318 325 327 329 331 325 325 338 347 348 350 351 350 351 351 353 353 352 353 354 355 356 355 354 353 352 352 352 351 351 351 350 350 351 350 348 346 343 343 346 347 348 348 350 351 351 351 351 351 351
318 318 319 319 319 320 320 321 323 322 323 321 320 327 330 326 330 331 321 324 339 347 349 350 350 350 350 349 351 351 349 350 350 351 353 353 353 354 353 352 351 351 352 351 350 351 352 352 351 349 346 347 348 348 348 348 348 349 348 348 349 349 350
318 318 318 317 318 319 319 322 324 326 329 326 323 327 324 320 333 335 322 327 345 351 350 351 351 350 348 348 348 348 348 349 349 349 350 350 351 353 353 353 352 351 352 352 351 351 351 351 351 350 349 349 349 348 348 347 347 348 348 348 348 349 349
320 319 319 318 319 319 318 323 328 329 331 330 327 325 320 322 333 334 330 339 348 350 350 352 352 349 348 348 347 346 347 347 347 348 348 348 349 350 350 351 351 350 349 349 350 350 350 350 350 350 350 350 350 350 349 348 348 349 348 349 349 349 350
323 323 322 320 319 318 319 326 332 333 334 334 329 324 325 330 327 325 337 349 347 346 350 352 351 349 347 347 346 346 347 347 346 346 346 346 346 346 347 348 349 348 348 348 349 350 350 350 350 349 350 350 350 351 351 350 351 350 350 350 349 349 350
324 324 322 321 320 319 322 330 334 334 335 338 337 333 335 338 328 325 341 352 348 347 349 349 348 347 346 346 345 344 345 346 345 345 344 344 343 344 346 347 347 347 348 349 349 349 350 350 350 350 350 350 350 350 350 351 351 351 351 351 351 350 350
322 322 322 323 321 319 323 328 332 334 335 338 341 341 340 342 340 338 345 350 349 348 348 347 346 344 343 343 342 343 344 345 345 344 343 343 342 343 343 344 344 344 344 345 346 346 347 347 348 348 348 348 349 349 350 350 351 351 351 352 352 351 350
320 320 323 325 323 322 323 326 330 334 336 338 340 342 340 342 345 345 346 349 350 349 346 345 343 342 342 342 341 343 343 343 344 343 342 341 341 341 341 341 341 340 341 342 342 342 343 343 344 345 345 346 347 347 348 349 350 350 350 350 351 350 351
318 319 322 325 326 322 320 325 332 335 336 337 338 340 340 340 344 346 345 346 348 348 345 342 342 341 341 341 341 342 341 342 343 342 340 340 339 338 338 338 338 337 337 338 337 337 337 338 339 340 342 343 344 345 346 347 348 349 349 349 349 350 350
317 319 322 326 327 324 321 325 332 336 338 337 337 338 339 339 341 343 343 344 347 347 343 342 342 341 341 341 340 340 341 342 341 339 338 338 336 336 336 335 335 334 334 333 333 332 331 332 333 335 336 337 338 340 342 343 344 345 345 345 346 347 349
318 321 323 325 328 327 326 328 332 336 338 338 339 339 337 338 340 340 341 344 345 344 342 342 342 340 339 338 336 337 339 339 338 336 336 335 334 334 334 333 332 332 331 330 329 329 329 328 329 330 332 332 332 334 335 337 338 338 339 339 340 342 344
320 323 323 325 327 327 325 326 330 334 334 333 336 338 337 336 338 339 342 344 343 342 341 339 336 333 330 328 329 331 332 334 335 334 333 333 333 332 331 330 330 330 330 329 328 328 327 327 327 328 328 328 329 329 330 331 332 332 333 334 335 337 338
320 322 321 324 325 323 321 321 324 327 328 327 330 335 336 336 336 340 344 343 340 338 335 332 329 327 325 323 323 324 326 328 331 333 333 332 331 330 329 329 329 329 328 328 328 327 326 325 326 326 326 326 327 327 327 327 328 328 329 329 330 332 334
320 320 320 321 322 322 321 320 321 322 323 323 326 333 336 335 335 339 341 338 335 332 329 327 326 325 325 325 322 321 323 325 327 330 330 329 328 328 328 328 327 326 326 326 326 326 325 324 324 325 325 326 325 325 325 325 326 326 327 327 327 327 328
319 319 321 321 321 322 322 320 320 320 319 319 324 332 335 334 335 337 337 334 332 330 327 327 327 328 330 330 325 320 322 324 324 326 326 326 326 327 327 326 326 325 325 324 324 324 324 324 323 323 324 324 323 323 324 324 325 325 326 327 327 327 327
319 318 320 321 321 322 322 320 321 320 319 320 324 327 330 333 335 334 335 333 331 330 329 327 328 331 333 330 324 319 321 323 323 323 324 324 324 325 325 325 325 324 324 323 322 322 323 322 322 321 321 321 321 323 324 323 324 325 325 325 325 326 327
322 320 318 319 321 322 323 323 322 320 319 321 324 323 325 332 335 333 333 333 331 331 332 330 331 334 335 331 325 320 321 323 323 323 323 323 322 323 323 323 323 322 322 321 322 322 321 321 321 320 320 321 322 323 323 322 322 323 324 323 323 324 325
319 319 318 319 321 322 323 323 322 321 320 322 323 323 323 329 334 333 333 332 331 331 332 332 334 334 332 331 326 323 322 323 324 323 322 322 322 322 322 322 322 321 321 321 322 321 321 320 321 320 320 321 322 323 322 321 322 321 321 321 321 322 322
316 317 318 318 319 320 321 322 322 322 322 323 324 323 322 326 331 333 333 332 331 330 330 333 334 330 325 324 323 323 323 324 323 322 322 322 322 322 322 322 321 321 322 322 321 321 321 321 321 321 321 322 322 322 321 321 321 319 319 319 320 320 320
316 316 315 317 320 321 321 322 324 324 323 323 323 322 322 326 330 331 332 331 330 330 330 330 329 325 322 322 322 322 323 323 323 323 322 322 322 321 321 321 320 321 321 321 321 320 320 321 321 321 321 321 321 321 320 320 320 319 317 317 319 320 319
318 317 316 318 321 322 320 322 324 324 322 321 321 321 322 327 330 330 330 330 329 329 328 326 324 322 322 322 322 322 322 322 322 322 322 321 321 320 319 319 319 320 320 319 319 319 318 318 319 319 321 321 320 320 319 319 319 319 317 316 318 320 320
319 320 320 321 321 320 320 320 321 320 319 318 319 319 321 326 329 329 329 328 327 327 326 324 322 321 322 322 322 322 321 321 322 321 321 320 320 319 318 317 317 319 319 318 318 318 318 317 317 318 319 320 319 319 317 317 318 318 318 318 319 320 321
319 319 319 321 321 321 320 320 319 318 318 317 318 319 321 323 326 328 328 326 326 326 325 324 323 322 322 322 322 320 320 321 321 320 320 320 319 318 318 317 316 317 318 318 318 318 318 317 317 317 317 318 318 317 316 317 318 318 318 319 319 319 320
318 319 321 322 321 320 320 320 320 319 318 317 317 319 319 319 322 326 326 324 324 326 325 324 323 322 322 322 322 321 320 320 320 320 319 319 319 318 317 316 315 316 317 318 319 318 318 318 318 317 317 317 317 316 317 318 319 319 319 319 319 320 320
319 320 321 321 320 319 319 320 321 320 319 319 318 317 318 319 321 323 324 323 323 325 325 324 323 323 322 322 322 320 320 320 320 319 319 318 318 318 317 315 314 315 316 317 317 317 317 317 317 317 318 318 317 317 318 318 319 319 319 319 319 319 320
321 321 321 320 321 321 320 320 320 320 320 321 319 317 317 319 320 321 322 323 323 323 323 323 325 325 324 323 321 320 320 320 319 318 318 318 317 317 316 315 314 314 314 314 314 315 315 315 315 316 317 317 317 317 317 318 319 319 319 319 319 319 319
321 321 321 322 323 322 321 320 320 320 320 321 321 319 317 318 319 321 322 322 322 323 322 323 324 324 321 320 320 320 319 318 317 316 317 317 316 315 314 314 315 315 314 314 314 314 315 315 314 314 314 314 315 314 314 316 317 317 318 318 318 317 317
322 321 321 321 322 322 321 320 319 320 320 320 321 321 319 317 318 319 320 320 321 322 322 322 322 321 320 320 320 319 318 317 316 315 315 315 315 313 314 316 317 316 316 315 315 315 316 315 314 314 312 312 312 311 311 312 312 314 315 316 316 316 316
323 322 321 321 321 322 321 319 319 320 321 321 320 321 320 320 319 319 319 318 319 320 321 321 321 321 322 321 320 319 318 317 315 314 314 314 313 313 314 317 318 317 317 318 317 317 316 316 315 314 313 312 311 310 310 309 309 310 313 314 315 315 315
323 322 321 320 321 321 320 320 319 320 321 322 321 320 321 322 322 321 320 319 319 318 319 320 319 318 320 322 320 319 319 317 316 315 314 313 313 314 316 318 317 317 318 318 317 316 316 315 314 314 313 312 311 310 309 309 309 310 311 312 313 314 313

ECMWFFLT2_925_thetae_108.txt.gz
Theta_e
322 322 321 323 320 317 319 317 314 316 321 320 315 314 318 318 318 321 322 323 328 335 344 352 354 354 355 353 350 351 353 355 356 356 356 355 354 353 354 354 352 351 352 351 352 353 354 353 353 353 353 355 357 359 360 360 359 358 357 357 357 357 358
321 322 321 322 321 321 319 315 316 320 322 321 318 315 317 319 319 318 319 322 322 323 333 352 359 356 357 355 351 351 354 356 356 355 355 355 354 354 355 355 352 352 352 352 352 353 353 352 352 353 354 356 358 359 359 359 358 357 356 356 356 356 356
321 322 321 320 321 322 320 318 321 319 315 314 315 316 316 317 318 317 317 321 319 318 327 345 355 357 359 358 356 355 354 356 355 353 354 355 355 357 358 356 354 353 352 353 353 352 353 353 353 353 355 356 357 358 357 356 356 356 355 353 353 355 355
322 321 319 316 317 322 321 321 323 320 316 313 313 315 315 315 316 315 317 320 319 322 336 350 357 362 361 360 359 357 355 355 354 352 354 354 355 357 357 356 355 354 353 353 353 352 353 354 354 354 355 356 356 356 357 356 355 356 355 352 352 354 354
319 317 319 317 317 320 318 317 318 317 317 316 316 315 313 314 314 315 317 318 319 334 356 362 360 360 359 359 359 357 355 353 353 353 353 353 354 355 356 355 354 354 353 351 350 351 353 354 353 353 354 356 356 356 357 357 357 358 357 355 353 354 354
314 316 322 322 322 323 320 317 316 316 316 314 315 315 313 313 314 314 315 315 323 344 358 357 357 357 356 358 357 356 356 354 354 354 353 352 354 354 355 354 354 354 354 351 349 350 352 352 353 353 354 354 354 356 356 357 358 358 358 357 355 356 356
317 321 323 322 322 324 323 321 321 322 319 314 311 311 312 313 313 315 316 316 329 350 353 352 356 355 354 356 356 356 356 356 357 356 354 354 354 355 355 354 354 355 354 354 353 351 352 353 352 352 354 354 354 355 356 357 359 359 358 358 358 359 358
320 321 322 322 323 323 322 323 325 325 321 319 317 315 316 315 311 314 316 316 330 349 352 351 354 355 356 357 356 356 356 357 358 357 357 356 355 356 355 356 357 357 357 357 354 351 351 353 354 355 355 355 355 356 356 357 358 359 358 357 358 359 359
318 318 319 320 321 322 322 324 329 328 326 326 322 319 322 318 313 314 314 315 330 348 352 350 352 355 357 356 354 355 354 356 357 357 357 357 356 355 355 356 357 356 357 356 353 350 349 350 355 355 353 354 356 357 357 357 357 358 358 357 358 358 359
317 318 317 317 318 321 323 326 330 330 329 328 322 318 316 315 316 318 314 316 335 353 352 349 352 354 355 355 354 353 353 354 355 356 356 356 355 355 356 356 355 354 355 355 354 353 351 352 354 352 350 351 352 352 354 355 356 358 358 358 358 358 358
317 318 319 320 321 320 321 324 327 329 331 332 325 317 315 317 318 317 317 323 335 347 352 352 353 353 353 354 354 353 354 354 353 354 354 354 355 354 355 356 354 354 354 354 355 354 354 354 352 350 350 350 348 347 351 353 354 355 356 356 356 358 358
319 321 321 322 322 320 320 322 324 327 333 335 326 319 322 327 319 314 325 333 328 337 352 353 351 353 352 353 354 353 354 353 352 352 351 351 353 353 353 353 353 353 353 353 355 354 353 353 352 351 351 350 349 349 351 352 350 350 351 351 351 352 355
322 324 323 322 322 322 322 323 323 326 332 335 330 326 332 335 324 321 337 341 329 335 351 350 350 353 351 352 353 351 351 352 351 350 350 349 350 351 351 351 351 352 351 352 354 353 352 352 352 352 351 351 351 351 351 350 348 348 350 349 348 347 348
321 323 324 324 322 321 321 322 324 325 330 335 336 336 339 338 333 334 342 345 342 346 350 348 349 350 349 350 350 349 350 351 349 349 350 349 349 349 349 349 349 349 350 352 353 353 353 353 352 352 351 352 352 351 352 351 350 350 351 351 350 348 347
318 320 323 324 322 321 320 321 323 324 327 331 335 339 340 338 337 339 341 343 346 348 348 348 348 347 348 349 348 349 350 348 348 348 348 348 347 346 345 346 345 345 346 348 349 349 350 351 350 350 350 350 351 352 352 351 352 352 351 351 351 350 349
316 318 321 321 322 322 318 318 322 325 325 329 334 339 341 338 340 341 338 337 343 347 347 348 348 347 348 348 348 349 349 347 347 346 345 345 344 342 342 343 342 341 341 343 344 344 344 344 345 346 347 348 349 350 351 351 352 352 351 351 352 352 352
316 318 321 321 320 318 317 319 325 328 329 330 334 338 340 341 343 340 335 339 347 348 346 347 348 347 347 348 347 346 347 346 345 344 343 342 341 340 340 339 339 338 338 339 340 340 340 340 340 340 341 342 343 345 347 349 350 350 350 351 351 351 352
315 318 321 321 319 317 320 327 331 332 332 330 331 334 337 339 341 340 339 344 348 347 345 346 347 347 346 345 344 343 345 344 343 342 342 340 339 338 337 337 338 338 337 337 336 336 336 336 336 336 336 336 338 340 341 343 344 346 346 347 347 349 350
315 318 320 320 320 321 324 329 329 330 331 330 332 336 337 336 338 341 342 343 344 345 346 343 341 340 338 336 336 338 340 341 341 341 340 339 338 335 335 336 337 337 336 335 334 335 335 334 333 334 334 335 335 336 338 339 340 341 342 343 343 345 346
317 317 317 320 323 324 325 324 323 325 327 328 331 335 337 337 339 342 344 343 343 345 344 340 337 335 333 332 331 332 335 338 339 339 338 337 335 334 335 335 335 335 335 335 334 334 334 333 333 333 333 334 333 333 334 335 335 336 338 338 339 341 342
317 314 315 320 322 322 323 324 323 323 325 326 328 331 335 338 338 341 343 343 341 342 341 339 336 334 335 334 331 330 332 333 334 336 336 334 332 333 334 333 333 332 332 334 334 333 333 333 332 332 332 333 332 332 332 331 331 332 333 333 334 336 338
317 315 316 319 319 320 323 325 323 323 323 325 326 328 333 338 338 338 341 342 340 340 339 337 336 337 340 338 332 329 330 330 331 333 333 330 329 329 330 331 331 330 330 331 331 331 331 331 331 331 331 331 331 332 332 331 331 332 333 332 331 332 334
316 315 314 316 318 322 326 326 324 323 323 325 326 326 328 335 337 337 339 340 339 337 336 336 338 340 344 340 332 328 330 331 332 332 331 329 327 327 327 328 328 328 328 328 328 329 329 329 328 329 329 329 329 329 330 330 331 332 333 333 332 331 331
316 315 314 316 320 325 327 326 324 323 323 325 326 324 324 328 333 336 338 339 338 336 336 338 341 343 343 338 330 327 329 330 330 330 330 329 328 327 327 326 326 326 326 325 325 326 326 326 326 326 327 327 327 327 328 328 329 330 331 332 332 331 330
314 314 313 316 323 327 327 326 325 323 324 325 323 323 325 326 329 334 337 337 337 335 335 338 341 340 338 333 329 328 329 329 328 328 328 328 327 326 326 325 324 324 323 323 323 324 324 324 323 324 325 326 325 325 325 326 326 328 329 330 330 331 330
314 314 314 315 322 327 327 326 325 325 327 327 323 325 328 327 328 333 336 336 336 335 334 336 337 335 332 329 328 328 328 328 328 327 326 326 326 325 325 324 323 323 323 323 322 323 323 323 322 323 325 325 325 325 324 324 324 325 327 328 328 329 329
314 313 313 314 321 326 327 327 327 327 328 327 326 326 327 328 331 333 334 336 336 334 334 335 334 332 330 328 327 327 327 327 327 327 326 326 325 324 323 323 323 323 322 322 322 322 322 323 323 323 324 325 325 325 324 323 323 324 325 326 327 327 327
316 314 316 319 323 326 326 326 327 326 325 325 325 326 326 328 332 333 334 336 335 334 334 334 332 330 329 328 328 328 327 327 327 327 326 325 323 323 322 322 322 321 321 321 321 321 322 322 323 323 323 324 324 324 324 323 323 323 324 324 325 325 325
320 319 321 323 325 325 325 325 325 325 324 324 324 326 327 329 331 333 334 334 334 333 334 332 330 330 329 328 328 327 326 326 327 327 325 324 323 322 322 322 322 321 320 321 321 321 321 321 322 322 322 323 323 323 323 323 323 323 323 323 324 324 324
322 322 323 325 325 326 325 324 324 324 324 323 324 326 327 328 330 332 332 332 333 332 331 331 331 330 329 328 327 325 325 326 327 326 324 322 321 320 320 321 321 320 320 320 320 321 321 320 321 321 321 322 323 322 322 322 322 323 323 323 324 324 324
321 322 326 327 326 325 325 324 324 325 324 324 324 325 327 327 329 331 331 331 331 330 330 331 331 329 328 328 326 325 325 326 326 325 323 322 321 320 320 320 320 320 319 319 320 320 321 320 320 320 320 321 322 322 322 322 322 322 322 323 324 324 324
322 324 326 326 325 325 325 325 325 325 325 325 323 324 326 327 329 330 330 330 329 328 328 328 328 327 327 327 326 325 325 326 325 324 323 323 323 322 321 320 321 320 320 319 319 320 320 320 320 320 320 320 320 321 321 320 320 321 321 321 322 323 323
322 324 325 325 325 326 325 324 324 325 325 325 324 322 324 326 328 329 329 329 329 329 328 328 327 326 326 327 326 325 324 324 324 323 323 323 323 322 321 321 321 321 321 320 320 319 319 319 319 319 320 319 319 320 319 319 319 319 320 320 321 322 322
321 325 326 325 325 326 325 324 324 324 324 325 324 323 323 324 326 328 328 328 328 329 328 328 327 326 326 327 325 325 324 323 322 321 322 321 321 321 321 321 320 320 320 319 319 318 318 319 319 318 318 318 318 318 318 318 319 319 319 320 321 321 321
323 325 326 325 325 325 325 324 324 324 324 324 325 324 323 322 323 326 327 326 326 326 327 327 326 326 327 327 326 325 325 323 321 320 319 317 317 318 320 321 320 319 319 319 318 318 318 318 317 316 316 315 315 315 316 316 317 318 318 319 319 319 319
324 324 324 325 324 324 324 323 323 324 324 324 324 324 324 324 324 324 324 324 325 325 326 327 326 326 327 327 326 326 325 323 321 320 318 316 315 315 317 319 321 320 320 319 319 318 318 317 316 316 315 314 313 313 314 314 315 316 317 318 318 318 317
324 323 324 324 323 323 323 323 323 324 324 325 324 324 324 324 324 324 323 323 323 323 325 326 326 326 327 326 325 325 325 323 322 320 318 317 316 315 315 318 320 321 321 320 320 319 318 318 317 316 315 314 314 313 313 313 314 314 314 316 316 316 316

ECMWFFLT2_925_thetae_111.txt.gz
Theta_e
324 323 321 323 321 318 320 317 314 317 324 321 313 312 315 314 314 316 316 319 330 341 348 352 353 354 352 346 350 355 353 352 355 357 357 355 353 355 357 360 357 352 351 350 349 349 349 351 352 352 352 351 351 353 354 354 355 356 357 359 359 359 360
323 323 322 322 323 322 319 314 316 321 323 321 315 312 314 314 315 317 316 317 321 327 337 349 351 350 352 349 346 351 356 357 356 356 356 355 354 354 355 358 359 355 350 350 349 349 351 352 352 352 352 352 352 353 354 354 353 354 355 356 357 357 360
322 323 322 320 321 324 321 319 322 320 313 312 313 312 312 314 315 316 317 318 317 320 332 345 347 349 354 353 349 350 357 361 359 356 356 356 355 355 354 356 357 354 350 350 349 350 352 352 352 353 352 352 353 354 354 353 351 352 352 353 353 355 357
322 321 320 315 316 321 322 322 324 322 316 313 312 313 313 313 314 316 317 316 317 326 342 348 349 356 359 356 356 357 357 360 359 357 357 357 356 355 355 356 356 354 350 350 349 350 352 352 353 353 353 353 355 355 355 352 350 350 350 350 350 352 354
320 318 318 316 317 319 318 317 317 317 317 317 315 314 313 313 313 315 315 315 322 343 361 361 359 361 358 356 360 361 358 357 356 357 357 356 357 356 356 357 356 355 353 350 350 352 352 354 354 353 353 354 356 356 354 352 351 350 350 349 349 351 352
315 317 321 321 321 322 319 316 316 317 316 315 313 312 312 311 311 312 313 316 329 350 361 362 362 358 356 357 357 359 359 356 355 355 356 356 357 357 357 357 355 355 355 353 354 354 354 356 356 355 356 357 356 356 354 354 353 352 352 351 350 350 351
318 321 323 322 322 324 324 320 319 322 319 314 310 310 311 311 310 311 311 315 332 352 356 358 360 356 356 357 356 357 360 357 357 355 355 357 358 358 358 357 356 356 357 356 357 356 355 357 357 356 358 359 359 359 358 358 357 356 355 353 352 353 352
322 323 323 324 324 323 322 322 321 322 319 318 316 314 315 312 309 312 309 311 330 352 355 357 357 357 359 357 356 358 358 359 359 357 357 358 358 358 358 358 358 358 357 358 357 357 358 357 356 356 358 358 359 360 360 361 361 360 359 356 354 354 355
319 320 320 320 321 321 321 321 324 323 321 323 322 318 319 314 310 313 309 312 333 354 355 355 356 356 357 356 355 356 357 360 359 357 358 357 357 358 357 358 358 358 358 359 360 360 361 359 357 357 358 357 358 359 360 362 363 363 361 359 357 357 358
317 318 318 316 316 319 321 321 324 325 324 325 322 317 314 313 314 316 311 317 339 357 355 354 356 355 356 357 355 354 356 357 358 358 358 357 358 358 357 356 357 358 358 358 358 357 358 361 360 357 358 358 358 359 360 361 363 364 363 361 359 360 361
318 319 321 322 320 318 317 319 323 325 326 327 323 317 314 316 317 314 315 324 335 345 353 355 354 354 355 357 356 354 355 356 356 358 358 357 358 356 354 354 354 356 357 356 355 351 352 358 358 355 355 357 359 360 360 361 361 362 363 362 361 361 361
321 323 324 324 323 320 318 320 322 325 327 327 323 318 318 323 318 314 326 336 328 332 348 352 352 355 354 354 355 355 355 355 354 356 356 356 357 356 355 354 353 354 356 356 356 353 352 354 353 352 350 350 353 354 355 357 358 359 362 363 363 363 363
321 324 325 324 324 323 323 324 323 325 327 325 323 321 323 326 319 317 333 341 332 335 347 347 349 353 352 352 354 354 354 354 354 354 354 355 356 356 356 355 353 353 354 356 356 354 353 354 353 354 351 349 348 348 347 349 351 354 357 359 360 362 363
320 323 323 324 323 321 322 323 323 326 327 327 329 328 329 332 327 327 334 337 339 348 351 348 349 349 350 353 353 353 353 353 353 354 354 354 354 354 355 354 354 354 354 356 357 356 355 354 353 354 353 353 351 349 348 347 347 349 351 353 356 358 358
318 322 323 323 323 321 320 320 323 325 323 327 331 331 335 336 332 331 329 331 342 352 351 350 349 349 352 353 351 353 353 351 352 354 353 354 354 352 352 352 352 353 353 355 357 357 356 355 355 354 353 354 354 352 351 350 349 349 349 351 354 355 355
314 319 321 321 321 321 319 318 322 323 323 325 329 333 337 335 333 333 327 327 340 350 349 349 350 349 352 352 351 353 352 349 351 351 351 351 352 351 350 350 350 350 350 352 353 352 353 354 354 354 354 354 354 354 354 352 351 350 349 349 352 353 353
314 317 320 320 320 318 316 318 321 324 328 329 330 333 337 337 337 337 332 333 345 350 348 348 350 349 351 352 351 351 351 351 350 348 348 348 348 349 349 348 348 347 347 348 349 349 349 350 350 351 352 352 352 353 353 353 353 352 351 351 351 352 352
314 317 320 320 318 317 319 326 328 330 332 332 330 332 334 335 337 338 338 343 350 349 347 349 349 349 351 350 348 348 349 350 348 347 347 346 346 347 345 344 344 344 343 343 343 345 345 345 346 347 348 348 348 349 350 350 351 352 352 352 352 352 353
315 317 319 319 319 321 326 330 330 329 329 329 329 332 334 334 335 338 341 345 348 348 348 348 347 346 346 345 345 345 345 346 347 346 345 344 344 343 342 342 342 342 342 341 341 342 342 343 343 344 344 344 344 345 346 347 348 349 350 349 350 350 350
316 316 318 320 322 325 327 327 326 326 327 328 328 330 334 335 334 338 342 344 345 347 347 345 345 344 343 342 342 341 340 343 345 343 342 341 340 340 341 341 341 342 341 340 339 340 340 341 341 341 341 342 342 342 343 344 344 345 345 345 346 346 346
318 314 315 318 321 324 326 327 326 326 327 329 329 330 334 336 334 338 342 343 344 345 345 344 343 341 342 344 340 336 337 340 341 342 341 339 338 339 339 339 340 339 338 339 339 339 339 339 338 338 339 340 340 340 340 340 340 340 340 341 342 343 344
319 315 314 316 318 323 328 329 327 326 326 327 328 329 331 334 334 335 339 341 344 345 344 343 341 341 345 346 340 335 335 337 337 338 338 338 337 336 335 335 335 335 334 335 336 336 336 336 336 337 337 338 338 337 337 338 337 336 337 337 338 339 341
317 316 315 316 318 325 331 330 326 324 325 326 327 325 326 331 332 333 338 341 343 344 343 342 341 343 347 345 338 334 334 334 334 333 333 333 333 332 332 332 332 332 332 332 332 332 332 332 332 333 334 335 336 336 336 337 336 336 335 335 335 336 338
314 315 315 317 323 329 332 328 325 324 325 327 326 322 324 329 330 331 337 341 341 342 343 341 343 346 346 342 335 332 332 333 332 331 329 328 328 329 329 329 328 328 327 326 327 328 328 328 328 329 330 331 332 332 333 334 334 333 334 334 335 335 335
312 313 313 319 327 330 330 328 326 324 324 325 324 323 327 331 330 330 334 338 339 341 341 341 342 342 340 336 332 331 332 332 332 331 328 326 325 325 325 325 325 324 323 322 323 323 324 325 326 327 329 329 329 329 330 330 331 332 332 334 334 334 334
313 313 314 319 326 328 327 327 326 325 327 326 325 327 330 331 331 332 334 337 338 339 339 340 339 337 334 332 331 330 330 331 331 329 327 326 324 323 323 323 323 322 322 323 323 323 323 324 324 326 328 329 328 327 327 327 328 329 330 332 332 333 334
314 313 315 321 325 327 326 327 328 329 329 329 329 328 329 331 331 332 335 337 338 338 339 338 336 335 333 332 331 329 328 329 329 328 326 326 326 325 324 324 323 322 321 322 323 323 324 324 325 325 327 327 327 326 326 326 326 327 328 329 329 330 331
317 317 319 324 327 326 325 327 329 329 328 328 328 329 329 330 330 330 334 337 337 337 337 337 335 334 333 332 332 331 329 327 328 327 326 325 324 323 322 322 322 322 323 322 322 322 323 323 324 325 326 327 327 326 326 326 325 326 327 327 327 327 327
321 322 323 324 325 325 325 326 327 328 327 326 328 328 328 328 330 332 334 336 336 335 335 335 333 332 332 331 330 330 328 327 326 326 324 322 321 320 318 318 318 320 322 323 322 323 323 323 324 324 324 325 325 326 326 326 326 326 327 327 327 327 326
323 323 323 324 324 325 325 325 326 327 327 326 326 328 328 328 330 332 333 333 335 334 333 333 333 332 332 331 330 329 328 327 327 326 324 322 320 318 318 318 318 319 319 319 320 322 322 322 323 323 323 324 324 324 325 325 326 326 326 327 327 327 326
322 323 327 326 325 324 325 325 326 327 327 326 326 327 328 329 330 330 331 332 333 334 333 333 333 331 331 331 330 329 327 327 327 326 325 323 320 319 320 321 321 321 320 319 320 321 321 322 323 323 323 323 324 324 323 323 324 325 325 326 327 327 326
323 326 329 327 324 325 325 325 326 327 327 327 327 326 328 329 329 329 330 331 331 332 333 333 332 330 329 329 330 329 328 328 328 327 325 323 322 322 323 322 322 322 321 321 321 320 320 321 322 322 323 322 322 323 323 322 323 324 324 324 325 325 325
324 327 328 326 325 327 327 326 327 327 327 327 326 326 326 328 328 329 330 330 330 332 333 332 331 330 329 329 330 329 329 329 328 327 326 325 324 324 324 324 324 323 323 323 322 320 319 319 318 319 321 321 321 321 322 322 322 323 323 324 324 325 325
323 327 329 328 326 328 328 328 327 326 326 327 327 326 326 326 327 329 329 329 330 331 332 331 330 330 330 329 329 329 330 330 329 327 326 326 325 325 324 324 324 324 323 323 322 321 320 319 316 316 318 318 319 320 320 321 322 322 322 324 324 323 323
325 327 327 326 325 326 328 327 326 325 325 326 327 327 326 326 326 327 328 328 329 329 330 331 330 330 330 330 328 328 330 330 329 328 327 326 325 323 323 323 323 322 321 321 322 321 321 319 318 317 317 316 316 317 318 319 320 320 322 323 323 322 321
326 326 326 325 324 326 327 326 326 325 325 325 326 326 325 325 326 326 326 326 326 327 329 330 330 330 331 330 328 328 328 328 327 327 326 324 322 320 321 323 324 322 321 321 321 321 320 319 318 318 317 316 315 315 316 316 317 319 320 322 322 321 320
325 326 326 325 324 325 325 324 324 325 325 325 326 326 325 325 325 325 325 325 325 325 326 328 329 330 330 330 329 328 327 327 327 325 324 323 321 319 320 322 323 323 321 320 321 321 320 319 319 319 318 317 317 316 316 315 315 316 317 318 318 317 318

ECMWFFLT2_925_thetae_117.txt.gz
Theta_e
325 325 325 324 323 322 324 323 320 323 329 324 316 317 317 315 317 321 331 341 347 352 359 360 358 358 360 359 360 361 359 358 359 359 359 361 363 364 363 365 361 351 348 350 351 351 351 350 350 353 355 356 358 359 359 360 361 361 361 360 359 359 357
324 324 325 323 324 325 320 317 320 325 328 325 318 316 315 316 317 319 330 340 343 346 353 360 361 358 358 361 360 360 360 358 357 358 358 359 360 360 360 365 368 359 349 349 351 351 350 350 350 352 354 356 358 359 359 360 361 361 361 361 359 359 357
324 325 325 323 323 327 322 319 322 322 320 318 317 315 314 317 317 318 331 340 338 340 347 354 358 358 357 360 360 360 361 360 360 359 358 358 358 359 360 364 372 368 353 348 351 351 349 349 350 352 355 357 358 359 359 360 360 360 360 360 360 359 357
325 324 322 319 319 324 324 322 322 321 320 318 317 316 315 316 317 322 339 346 342 346 356 357 358 359 358 362 362 363 363 361 362 360 359 358 356 358 361 364 373 372 357 349 350 351 349 348 350 352 354 357 358 359 360 359 360 361 360 359 359 359 357
324 322 322 321 320 321 320 317 316 317 319 319 317 316 313 315 316 317 333 347 346 353 365 364 365 365 360 362 363 363 363 361 361 359 358 358 356 356 361 364 371 369 357 350 350 350 349 348 350 353 354 356 357 358 359 360 360 361 361 360 359 359 358
318 320 324 326 324 325 321 317 317 317 318 317 315 317 314 312 314 312 323 343 348 354 361 360 365 368 363 364 365 364 364 362 363 361 356 357 358 356 359 363 368 365 356 353 353 351 350 349 352 353 354 355 356 357 359 359 360 360 360 360 359 359 358
321 323 327 327 325 328 325 321 322 321 321 317 313 317 317 311 313 310 318 340 352 356 359 358 363 367 364 364 367 366 367 367 369 367 362 360 361 362 364 365 365 359 352 350 352 353 353 352 353 353 353 355 355 356 357 358 359 359 359 359 359 359 359
326 326 327 328 326 327 325 323 325 321 320 319 316 321 321 316 315 312 320 342 353 355 358 360 362 365 363 363 365 365 366 369 369 366 364 364 363 366 370 369 362 354 350 350 350 350 354 355 355 355 354 355 355 354 356 357 358 358 357 357 357 357 358
328 329 328 329 328 327 326 326 327 323 322 323 320 321 323 321 322 325 334 348 353 354 358 359 358 361 361 359 359 359 361 364 362 363 366 367 364 363 365 365 360 355 353 352 349 350 356 358 357 357 356 357 356 355 355 356 355 355 355 355 355 355 356
330 334 330 327 327 327 326 326 326 325 326 326 322 322 324 325 329 336 343 349 354 356 358 360 361 363 365 364 359 357 359 358 356 360 364 366 363 358 358 359 358 358 356 354 353 355 359 360 359 357 356 357 358 356 356 357 356 354 353 353 354 353 354
330 337 335 331 329 324 321 322 324 324 327 328 325 324 325 328 333 340 345 350 353 355 359 365 368 366 366 366 361 357 358 356 355 358 358 358 357 355 355 356 357 359 359 358 359 359 359 359 358 358 357 357 358 356 356 356 356 355 353 354 354 353 353
326 334 335 331 327 323 320 321 322 323 327 327 324 323 326 331 337 340 347 350 348 350 358 365 368 370 366 361 359 358 356 353 354 356 356 356 356 353 353 354 355 357 357 357 358 359 358 357 358 358 358 356 356 356 356 354 354 354 353 354 356 355 353
321 324 326 327 326 324 324 323 322 323 325 325 323 327 333 337 337 340 350 351 346 349 356 357 361 365 361 356 357 356 354 352 351 350 351 354 355 353 351 351 350 351 351 353 354 356 357 357 358 358 357 355 354 354 354 353 353 354 354 355 358 358 358
319 320 323 324 324 324 324 324 324 325 326 329 330 334 339 340 338 343 352 353 350 350 352 354 355 355 352 352 353 352 352 353 350 347 348 350 352 352 350 349 349 347 347 349 350 352 352 352 354 355 355 356 355 354 355 354 354 354 355 356 358 358 359
318 320 322 322 324 325 322 323 327 328 328 333 336 338 340 341 341 343 348 350 352 351 349 350 350 350 349 349 349 349 351 351 348 347 348 347 348 349 348 348 349 347 346 347 347 349 349 348 349 350 350 352 354 353 352 352 354 355 355 356 357 357 356
319 320 320 321 323 322 320 324 329 329 328 332 336 338 340 340 340 342 345 349 352 350 347 347 347 347 347 346 347 349 350 349 347 347 348 348 347 347 346 346 348 347 345 346 346 347 348 348 348 349 349 350 350 349 347 346 349 350 351 352 352 352 352
321 320 318 321 322 319 323 332 333 329 332 334 337 339 341 340 342 344 347 350 351 348 346 348 347 345 346 346 347 348 350 350 348 347 349 348 346 346 345 345 346 345 344 345 346 346 345 345 346 347 348 348 348 349 347 347 347 346 346 348 348 346 348
320 322 320 322 323 322 330 340 335 330 335 337 337 340 340 339 342 345 348 351 350 346 346 347 346 344 343 343 342 343 347 349 348 347 346 345 344 344 344 344 345 345 344 344 344 344 343 343 344 344 344 344 344 346 347 349 349 349 350 353 352 350 349
322 325 323 322 325 330 334 337 331 329 334 336 337 338 338 337 340 341 344 347 347 345 345 346 345 342 340 339 338 339 342 345 346 346 345 344 344 344 343 343 343 342 344 344 344 344 344 343 343 343 343 343 343 343 344 344 345 347 349 352 353 353 352
323 326 327 328 333 337 333 332 331 329 329 331 334 336 335 335 337 340 342 345 345 344 344 345 345 344 341 338 336 337 339 341 342 342 341 339 340 340 340 342 342 341 342 343 343 343 342 342 343 343 342 341 341 341 341 341 342 343 344 346 348 349 349
324 324 327 331 335 336 334 334 334 331 328 329 333 337 336 334 334 340 343 343 343 343 342 342 344 344 342 339 337 335 337 339 339 338 335 332 331 331 332 335 337 337 338 339 340 341 341 341 341 340 339 338 338 338 338 339 340 340 341 342 343 345 346
324 325 325 327 332 338 341 339 334 329 328 327 330 338 340 336 333 339 343 342 342 343 342 342 344 344 343 342 337 334 334 336 334 332 331 328 326 326 326 327 329 329 331 333 335 336 337 338 338 338 338 337 337 337 337 336 337 337 337 338 339 342 345
321 323 324 327 334 341 343 338 332 328 329 327 326 338 341 339 336 338 341 342 342 342 342 343 345 347 345 341 337 333 332 331 328 327 328 326 324 325 324 325 326 326 328 329 330 331 331 331 332 334 335 335 335 335 335 335 335 335 335 336 336 338 341
321 322 325 332 337 340 341 337 332 329 328 325 328 338 340 338 337 339 340 342 342 342 342 342 345 348 346 340 336 333 331 328 325 325 326 325 324 325 324 324 324 324 326 326 327 329 329 328 329 329 330 331 332 333 333 333 334 334 334 334 334 335 337
324 325 330 336 337 336 336 335 330 329 331 332 335 340 341 338 338 340 340 341 341 342 342 341 342 343 341 337 334 331 331 330 327 325 324 323 323 323 322 323 323 323 324 324 325 326 328 329 328 327 327 328 329 329 330 330 331 332 332 332 333 333 334
326 329 333 336 335 332 332 334 331 331 338 339 337 339 339 336 338 340 339 340 341 340 340 339 338 336 335 333 332 331 330 330 328 326 325 324 323 322 322 323 323 323 323 323 323 324 326 327 328 327 327 328 328 328 329 328 328 328 329 330 330 331 332
326 329 333 336 335 332 332 335 333 333 338 339 336 336 337 337 338 339 339 340 340 338 337 336 335 335 334 332 331 330 329 328 327 326 325 325 324 324 324 324 324 324 324 323 323 323 323 325 327 327 327 327 327 327 327 328 328 327 326 325 325 326 328
328 329 332 336 335 333 333 336 335 335 337 337 335 336 337 337 338 339 339 340 340 338 337 336 334 335 334 332 330 329 327 326 325 324 322 322 323 324 324 324 324 323 324 325 324 323 323 324 326 326 325 325 325 324 325 327 328 328 328 326 324 324 325
330 332 333 334 333 332 332 334 334 333 333 333 333 334 335 337 338 339 339 340 339 339 338 337 335 335 334 332 329 327 325 324 324 322 320 319 321 323 322 322 321 322 323 325 324 324 325 325 324 323 323 324 323 322 324 326 327 327 327 326 325 325 325
332 332 332 333 332 331 330 331 333 333 331 331 333 333 335 337 337 338 340 340 339 340 339 338 338 336 335 334 331 327 325 324 323 322 320 319 320 321 320 320 320 320 321 323 325 325 325 325 324 322 322 322 322 322 323 324 326 326 325 325 325 324 324
334 333 332 332 331 331 332 332 333 332 331 331 334 335 336 336 337 338 339 339 339 339 339 339 339 337 337 338 336 331 326 324 322 321 320 319 320 321 321 322 322 320 319 320 323 324 324 324 324 323 321 320 319 321 322 323 324 324 324 325 325 324 324
337 335 334 332 331 332 333 333 332 333 333 333 334 335 336 336 336 335 335 336 338 338 337 338 339 337 337 337 337 334 329 324 322 320 319 319 321 323 323 324 324 323 320 318 320 322 322 322 321 320 320 319 316 315 317 319 320 321 323 324 325 324 323
336 334 333 333 333 332 332 332 332 333 334 334 334 334 333 334 335 334 333 334 335 336 335 336 336 337 337 335 334 335 332 327 323 322 320 321 323 324 325 325 324 324 322 319 319 320 320 320 319 318 318 318 317 316 316 315 316 320 323 325 324 322 322
334 335 336 336 336 336 333 331 331 332 333 334 335 333 332 333 334 335 334 334 333 333 333 333 334 336 336 333 332 333 332 329 325 323 322 323 324 325 325 325 324 324 323 322 320 318 316 316 317 317 317 318 318 319 319 318 318 321 324 325 323 320 320
335 336 336 336 337 338 335 331 330 331 332 335 335 333 333 332 331 333 335 336 335 334 333 331 332 334 333 331 331 331 331 329 326 324 323 324 325 325 325 326 326 326 325 324 322 319 316 314 314 315 316 317 317 318 320 321 321 322 323 324 322 321 320
334 334 335 336 336 336 334 332 332 331 330 333 334 333 333 332 328 328 332 333 333 334 334 332 331 332 332 330 330 331 330 330 328 326 325 326 327 327 327 327 327 325 324 324 323 321 319 318 316 315 314 316 316 316 317 320 320 320 321 322 322 322 322
333 333 335 335 335 335 334 333 332 329 326 329 332 331 329 327 323 324 328 328 326 329 333 333 331 332 331 330 330 330 329 329 329 329 328 328 329 329 327 326 325 323 323 324 322 320 320 320 319 317 317 317 316 314 314 317 319 319 318 319 321 322 322

ECMWFFLT2_925_thetae_123.txt.gz
Theta_e
324 323 323 323 321 322 325 322 323 331 335 327 321 324 328 323 325 337 342 349 360 358 350 357 361 359 359 358 359 360 357 356 356 356 354 352 355 360 358 352 346 342 340 342 345 347 348 349 350 352 353 353 354 354 354 353 353 353 352 351 352 353 354
325 322 323 325 322 324 324 317 322 330 327 328 326 322 325 324 318 325 341 351 355 350 346 356 364 361 361 361 359 360 361 358 357 356 354 352 353 357 360 357 351 344 341 341 343 346 347 348 350 352 353 354 354 354 354 354 354 354 353 353 353 353 354
325 325 325 327 325 325 324 319 323 324 318 325 329 320 320 323 322 331 342 345 346 348 351 358 362 360 361 362 359 361 361 359 358 356 354 352 351 355 360 361 358 350 342 342 343 344 346 347 349 351 353 354 354 354 355 354 354 355 354 354 354 353 353
324 326 325 324 324 326 326 323 325 324 320 322 323 321 322 321 323 333 338 340 345 350 355 359 360 360 362 361 361 362 360 359 359 356 354 353 352 354 358 360 362 356 345 342 343 344 345 347 348 351 353 354 355 355 355 355 355 355 355 355 354 354 354
324 324 323 323 324 327 326 322 322 323 324 324 318 317 320 319 326 337 338 339 347 352 356 358 358 359 361 361 362 363 361 359 358 356 355 354 353 353 354 356 362 360 349 344 344 344 345 346 348 351 353 354 355 356 356 356 355 356 356 355 355 355 355
324 323 324 324 326 328 326 322 323 323 323 321 316 316 320 318 322 335 339 342 348 352 353 354 355 356 356 356 359 362 361 359 359 357 355 355 354 353 352 354 359 360 353 348 345 345 345 346 348 351 353 354 355 356 357 356 356 357 356 356 356 356 356
325 325 327 327 326 328 326 324 325 327 326 321 316 318 323 318 319 333 344 349 351 350 348 350 352 353 353 352 353 356 356 355 356 356 357 358 358 355 354 355 358 357 353 349 348 347 347 347 349 351 353 354 356 356 356 357 357 357 357 357 356 357 357
335 326 326 328 325 326 330 328 327 331 334 329 322 323 331 333 333 337 343 349 352 349 347 349 351 352 352 350 350 352 352 352 352 352 354 356 360 361 359 357 355 352 349 348 348 348 348 348 350 352 353 354 355 356 357 357 357 357 358 358 357 357 357
344 334 332 330 326 330 334 330 329 333 339 338 330 330 341 346 343 341 344 350 352 350 348 350 351 352 352 350 350 350 350 351 350 350 351 351 355 357 355 354 355 354 352 348 346 347 348 348 349 351 352 354 355 355 357 357 358 358 358 358 358 358 357
341 341 339 330 326 335 336 333 333 335 340 342 335 336 347 350 347 347 351 352 351 350 349 349 350 351 352 352 351 349 350 350 348 349 350 349 350 351 350 350 352 352 352 349 347 348 348 348 348 349 350 353 354 353 354 354 355 356 358 358 358 358 358
340 341 343 335 332 335 331 331 338 338 340 344 340 342 347 348 348 350 351 350 351 352 351 351 350 349 351 353 351 349 349 347 347 348 348 348 349 349 348 350 351 350 350 349 348 349 348 348 349 349 349 352 353 352 352 351 352 352 355 357 358 357 357
338 340 341 336 334 333 328 332 338 338 341 345 347 347 344 343 348 351 350 351 351 352 353 352 350 350 350 351 351 350 348 346 347 348 348 348 347 346 346 348 350 350 350 350 349 349 349 350 350 350 350 351 352 352 352 352 353 353 354 356 357 356 356
331 332 330 331 333 332 333 337 338 338 341 344 346 348 347 346 350 351 350 351 352 353 353 350 349 348 348 348 349 349 348 347 347 347 347 347 347 347 347 347 347 347 348 349 348 348 350 351 350 351 351 350 351 351 351 351 352 353 355 356 356 355 356
329 326 324 330 334 335 339 341 340 338 340 341 343 344 346 347 349 348 348 350 352 350 349 347 345 344 345 347 348 348 348 347 346 347 348 348 347 347 348 347 347 346 347 347 347 348 350 350 350 351 350 351 351 351 351 351 351 352 355 356 355 354 355
329 328 326 330 334 336 339 340 340 338 338 343 344 343 345 347 346 347 347 349 350 348 344 343 341 341 345 348 348 348 347 346 346 347 347 347 348 347 347 347 346 346 346 346 345 347 348 349 350 350 349 350 350 350 351 351 350 351 354 355 354 353 355
325 326 327 331 332 332 336 338 338 337 338 342 342 343 346 346 346 348 348 348 349 346 342 341 341 342 345 347 347 347 347 345 346 347 347 347 347 347 346 346 346 346 345 345 345 345 346 348 349 349 348 349 349 350 350 350 350 350 351 353 354 353 354
326 328 328 330 331 331 337 339 336 335 338 341 342 344 346 347 348 350 349 347 346 345 342 342 343 343 344 343 343 344 346 346 345 345 346 346 345 345 345 345 345 345 344 344 344 344 344 346 347 348 348 348 348 348 349 349 350 350 350 350 350 351 351
329 335 332 333 337 337 337 336 334 334 338 342 346 346 345 346 348 348 347 346 346 344 341 341 343 342 340 338 337 338 341 343 343 342 341 341 341 341 341 342 343 344 344 343 343 343 343 343 344 345 346 347 347 347 348 348 349 350 349 349 348 349 349
327 338 340 338 339 337 335 337 339 338 337 337 341 342 341 344 346 346 347 347 346 344 341 339 339 336 334 333 333 333 334 336 337 337 336 336 336 336 336 338 339 340 342 342 341 341 341 341 342 343 344 345 346 345 345 346 347 347 347 347 347 347 347
325 334 340 339 336 334 334 337 338 337 336 336 340 344 343 342 342 344 347 346 344 344 342 339 338 336 333 332 331 331 332 332 332 331 331 332 332 332 333 334 334 336 337 338 338 338 337 338 339 340 342 344 345 345 345 345 345 345 345 346 346 345 345
329 335 335 334 333 332 333 337 339 340 339 337 341 348 348 343 340 343 345 344 343 343 342 341 340 338 336 334 333 331 330 329 328 328 328 328 329 330 331 331 332 333 334 335 335 335 335 336 336 337 339 341 343 344 344 344 344 344 345 345 345 346 346
333 340 336 330 331 334 337 341 342 341 337 334 338 347 349 345 342 342 344 344 343 341 342 343 340 338 341 341 335 331 329 327 325 325 324 325 326 328 329 330 330 331 332 332 333 333 334 334 334 335 336 337 338 338 339 341 342 342 343 343 344 344 345
329 338 340 335 336 339 343 345 343 337 336 334 335 342 347 346 342 342 343 344 344 342 342 342 338 339 346 345 336 331 331 327 324 324 324 323 325 326 327 328 329 329 330 331 331 331 331 331 332 333 334 334 333 332 333 336 337 338 339 340 342 343 343
336 341 342 339 338 336 338 343 342 334 331 331 332 339 345 345 342 342 344 345 345 344 343 340 339 340 343 340 335 332 330 325 322 323 323 323 324 325 325 327 327 328 329 329 329 329 329 329 330 331 331 331 330 329 330 332 333 334 335 337 339 341 342
343 345 341 337 338 339 338 342 340 332 327 328 333 339 343 344 344 343 344 345 344 343 342 340 340 338 334 332 332 333 330 326 323 322 322 323 323 323 324 325 326 327 327 327 327 327 328 328 328 328 328 328 327 327 328 329 329 330 332 334 336 338 339
336 345 345 338 336 338 338 339 337 331 328 330 335 338 340 342 344 343 344 344 342 340 339 336 334 332 329 329 332 333 331 328 325 322 322 323 323 323 324 324 325 326 326 326 327 326 327 327 327 327 327 327 327 327 327 327 327 327 328 330 333 335 337
332 340 342 337 334 333 332 332 332 332 333 337 340 340 340 343 346 345 344 342 339 337 335 331 329 330 330 330 331 329 329 328 325 322 322 323 322 323 324 323 324 325 325 325 325 324 325 326 326 326 326 326 326 326 326 327 327 326 326 327 328 331 333
338 340 339 339 341 338 333 333 336 337 336 338 343 345 342 341 343 343 343 340 335 333 333 331 330 331 331 330 329 328 327 326 322 320 321 322 322 323 324 324 324 324 324 323 323 323 323 324 324 325 325 325 324 324 325 326 326 325 325 325 325 327 329
334 340 341 342 340 336 333 336 341 339 334 335 343 347 343 340 340 341 343 339 333 331 331 331 332 332 331 331 330 328 327 324 321 320 321 321 322 323 323 324 324 323 323 323 322 322 322 322 322 323 324 323 323 323 324 325 325 324 325 325 325 325 326
330 333 333 333 332 331 332 335 336 336 336 337 341 344 342 340 340 341 341 337 333 332 332 333 333 332 331 331 330 328 327 324 319 318 320 321 321 323 323 324 324 323 323 322 322 321 320 320 320 321 322 323 321 321 323 325 324 323 324 326 326 326 325
335 337 332 330 332 332 333 334 333 334 336 337 341 344 343 341 341 342 340 336 333 332 332 333 335 332 331 332 329 327 328 324 318 317 319 319 319 320 320 321 323 324 323 323 322 322 321 320 319 317 318 319 320 320 322 323 324 324 323 325 326 326 325
339 337 333 332 331 329 330 332 333 336 337 337 339 342 342 342 341 338 335 333 334 334 332 334 335 332 330 332 330 329 327 323 318 317 318 318 318 319 319 319 320 321 323 323 323 321 320 318 317 315 313 313 316 317 318 319 322 323 323 323 325 325 325
334 330 330 332 331 329 329 329 331 335 337 338 339 339 339 341 341 338 334 332 332 332 331 331 333 333 331 328 327 330 329 322 318 318 318 318 319 321 322 322 320 318 319 320 320 319 318 317 316 315 313 312 313 315 315 315 318 321 322 323 324 324 324
334 333 332 331 332 333 332 331 333 334 334 337 339 338 339 342 342 341 339 334 330 329 328 328 331 335 333 325 322 324 325 320 318 319 318 317 319 321 323 324 323 320 319 317 314 315 316 316 316 317 316 314 313 315 316 316 317 319 322 322 323 324 324
337 334 330 330 334 334 331 331 334 333 332 337 339 338 340 342 338 337 341 340 335 332 330 327 329 333 330 324 321 321 321 320 319 320 319 318 319 321 323 324 323 322 321 319 316 314 312 312 313 314 315 315 315 315 317 319 320 321 321 320 321 323 323
335 331 329 332 336 334 330 331 335 331 328 334 339 338 339 338 332 329 335 337 336 336 334 329 328 329 327 324 321 320 320 320 320 320 320 318 318 319 323 325 324 323 323 322 321 318 314 311 310 310 310 312 313 314 314 317 319 321 321 320 320 321 322
339 335 330 330 333 334 331 331 332 327 323 328 334 334 332 331 326 326 329 330 328 332 334 330 328 329 328 326 323 321 321 321 321 321 320 319 318 319 322 324 324 323 324 324 323 321 318 314 313 311 310 310 311 311 310 313 317 320 321 321 321 321 321

ECMWFFLT2_925_thetae_129.txt.gz
Theta_e
321 320 320 322 320 319 321 324 322 322 328 328 324 324 325 322 321 327 335 338 338 339 344 351 353 353 354 353 353 353 350 349 350 351 353 353 353 352 347 343 340 341 344 346 348 348 348 349 350 350 350 351 351 352 352 351 351 350 349 348 349 350 350
322 320 319 323 323 321 321 319 320 323 327 328 329 330 330 326 323 324 327 333 336 336 340 350 355 354 355 354 354 354 353 351 350 350 352 353 354 354 352 347 341 341 343 345 347 348 348 349 350 350 351 351 350 351 351 352 352 352 350 350 350 351 351
321 322 321 322 325 325 322 320 322 322 321 323 327 329 331 329 327 325 323 329 338 341 344 352 356 357 357 355 354 354 355 354 352 350 351 352 353 355 354 350 344 342 343 345 346 348 349 350 350 351 351 351 351 351 352 352 352 351 351 351 353 353 352
320 323 323 321 324 328 326 326 330 327 322 321 323 325 327 330 331 330 325 325 336 346 351 355 357 358 357 355 354 354 354 353 353 352 350 351 353 355 355 353 348 345 344 345 347 349 350 351 351 351 351 351 351 352 352 352 352 352 352 352 353 354 353
319 321 324 323 324 326 327 328 328 328 324 320 321 322 322 325 329 332 326 322 334 348 352 354 357 356 354 353 354 354 352 350 351 352 352 351 351 353 355 354 352 349 345 344 346 348 350 351 351 352 352 352 353 353 353 353 353 353 353 353 354 354 354
318 320 323 323 324 325 329 329 327 330 327 321 320 319 319 320 324 331 329 323 335 349 349 351 355 354 352 351 351 351 349 347 348 350 351 351 351 351 352 353 353 352 349 346 346 347 348 351 351 351 353 353 354 354 354 354 353 353 353 353 354 354 354
319 322 323 323 323 324 329 333 332 334 332 327 323 318 318 320 322 331 331 327 340 351 348 349 353 352 351 349 347 348 347 345 347 349 349 350 351 351 352 353 353 352 349 346 347 347 348 350 351 352 353 354 354 355 355 355 355 354 354 354 354 355 355
321 322 323 324 324 323 327 333 336 336 335 335 332 325 323 323 325 330 328 328 343 351 348 349 350 349 351 349 347 347 346 347 348 349 349 350 350 350 351 352 352 350 348 346 348 349 347 347 350 352 353 354 354 355 355 355 355 355 354 354 355 355 356
320 321 321 321 321 324 329 333 337 339 339 339 336 333 331 329 333 335 326 328 345 351 348 348 348 348 349 348 348 347 346 349 349 348 349 349 350 350 349 349 350 350 350 348 348 349 347 347 348 352 353 353 354 355 355 354 355 355 354 353 354 355 356
317 319 319 318 321 324 329 334 338 340 341 338 333 330 328 328 338 343 335 337 349 351 347 347 347 349 349 348 349 348 347 348 348 348 348 347 348 349 349 348 349 350 351 349 347 347 347 348 348 349 351 352 353 354 355 355 354 354 354 353 353 355 355
316 318 320 323 326 325 326 332 337 340 341 339 335 331 329 331 339 343 343 345 348 347 347 349 348 349 350 349 348 348 348 348 347 348 347 347 347 347 347 348 347 348 350 349 348 346 346 347 348 350 351 352 352 352 353 353 353 354 353 353 353 352 352
319 320 322 325 327 327 329 332 336 339 341 341 340 336 337 339 338 341 346 348 347 346 348 348 348 349 349 349 348 348 349 348 348 348 347 347 348 346 346 346 346 347 348 349 349 348 347 347 348 348 349 351 353 353 352 351 352 354 353 353 353 352 350
320 321 321 325 329 331 335 335 335 339 339 339 341 341 342 342 340 342 345 346 346 346 345 346 347 347 348 348 347 347 347 346 346 346 346 346 347 347 347 346 346 347 347 347 348 348 349 348 348 348 347 348 350 352 353 353 352 353 354 353 353 353 353
322 323 323 327 331 333 337 336 335 338 339 339 341 342 342 342 342 342 341 342 345 344 343 344 344 344 345 345 344 344 344 345 345 344 344 344 345 346 346 346 346 345 345 346 346 346 347 347 347 349 349 348 348 349 351 353 353 352 353 354 353 354 354
321 326 328 329 331 333 335 335 335 337 339 339 340 340 340 339 340 339 335 338 344 343 342 343 342 341 341 341 341 343 344 343 343 342 342 342 343 344 343 343 343 342 341 342 342 343 343 343 344 346 347 349 349 348 349 350 351 352 352 353 355 354 354
317 326 330 329 331 331 329 331 335 336 338 339 340 341 340 337 337 337 335 336 342 343 342 341 340 339 338 338 338 340 341 341 340 340 341 341 341 341 340 339 339 339 338 339 339 339 339 340 341 342 344 346 348 349 349 348 348 349 350 351 353 354 354
317 327 330 327 328 327 325 328 333 336 339 341 340 342 342 338 335 336 338 340 341 341 341 341 340 337 336 335 334 335 338 339 338 338 339 339 338 338 338 337 336 336 336 337 337 336 336 337 337 339 340 343 346 348 349 349 349 349 349 350 351 352 353
319 327 328 326 326 326 326 330 332 334 339 341 341 342 342 339 336 336 338 340 340 340 341 341 339 335 333 333 332 331 333 336 337 337 336 336 336 335 335 334 333 334 335 335 335 334 333 334 335 336 338 341 344 346 347 348 349 349 350 350 351 351 351
322 328 327 326 327 326 328 332 332 333 336 336 338 340 340 340 339 338 339 339 339 340 340 339 336 333 331 331 330 330 329 331 334 334 333 334 334 333 332 332 332 332 333 333 333 332 332 332 333 335 336 337 339 340 342 344 345 346 348 348 349 350 350
324 327 326 325 327 327 329 332 332 333 334 333 332 334 337 340 340 340 340 339 338 339 338 337 335 333 332 331 330 328 327 328 329 331 331 331 331 332 331 331 331 331 330 330 330 331 330 331 331 332 333 335 336 337 338 339 341 343 345 345 347 348 348
324 326 325 326 327 328 331 334 334 333 332 331 330 331 334 338 339 339 340 339 338 339 338 336 334 334 335 336 333 329 326 327 328 328 329 328 329 331 330 330 329 329 329 329 329 329 329 329 330 330 330 332 334 335 335 336 338 340 342 343 344 345 346
325 327 326 328 327 325 330 334 333 330 329 330 330 329 332 336 337 337 339 339 338 339 338 336 335 335 337 340 338 330 326 326 327 327 328 328 329 330 329 329 329 328 328 328 327 328 328 328 329 328 328 330 331 332 333 335 336 337 338 340 341 343 344
326 327 324 327 327 325 329 332 328 327 329 330 330 327 328 333 336 336 339 339 338 338 337 336 337 337 338 341 338 330 325 326 326 327 328 329 329 329 329 328 327 327 327 327 326 326 327 328 328 327 327 328 329 330 332 334 334 335 336 337 338 339 341
327 326 322 323 325 326 330 329 326 326 328 329 328 326 327 333 335 336 338 339 338 338 337 336 337 339 339 339 335 328 325 326 327 327 328 328 329 329 329 328 327 326 326 325 324 325 325 326 327 326 326 326 326 328 330 331 333 333 334 336 337 338 339
326 326 322 321 323 327 330 328 325 326 328 328 327 326 329 336 337 336 337 338 337 337 337 337 338 338 336 334 330 326 325 327 327 327 327 327 328 329 328 327 327 326 325 324 323 323 323 324 326 326 326 326 326 327 327 329 330 331 332 334 335 335 336
324 325 322 320 321 326 329 327 326 327 328 327 327 328 331 336 338 337 336 336 337 336 336 337 337 334 330 328 326 325 325 326 327 328 328 328 328 328 328 327 326 325 324 323 322 321 322 323 324 325 326 327 327 327 326 327 328 329 331 331 331 331 331
325 325 324 320 320 324 327 328 328 328 328 329 330 332 334 335 337 336 335 334 334 334 335 335 333 330 327 325 325 325 325 325 326 327 328 329 328 328 327 326 325 324 323 321 320 319 319 321 322 324 325 327 327 327 326 327 327 328 328 327 327 326 326
325 324 324 323 323 325 327 328 329 328 328 329 333 336 336 336 336 334 333 332 331 331 333 333 330 328 327 326 326 326 325 324 325 326 327 327 328 327 327 326 324 323 323 321 319 317 316 316 318 320 323 325 326 326 326 326 325 325 324 323 323 323 322
325 324 325 325 326 326 325 326 327 328 328 328 332 335 336 335 335 334 333 331 329 329 331 330 328 326 326 326 325 325 324 324 325 326 326 326 327 326 326 325 324 323 323 322 320 318 316 314 314 315 318 321 322 324 325 325 324 324 323 323 322 321 320
325 326 326 326 328 328 326 326 326 329 330 329 331 333 334 334 334 333 332 330 328 328 329 328 327 326 326 325 325 324 324 324 325 326 325 326 326 325 325 325 324 323 323 321 320 320 318 316 315 314 314 316 319 321 322 323 324 324 323 323 322 321 321
325 326 328 328 328 328 328 328 328 329 331 330 331 333 334 334 333 332 331 329 328 328 328 328 327 326 325 325 325 325 325 325 325 325 325 324 324 323 323 323 322 322 322 321 321 320 318 316 315 315 314 315 318 320 321 322 323 323 322 322 322 322 322
327 328 328 328 327 327 327 328 330 331 332 331 332 333 333 333 333 332 331 329 327 327 327 328 327 326 325 325 326 325 325 326 326 325 324 323 322 322 321 321 321 322 321 320 320 320 317 312 311 312 313 314 316 319 321 321 322 324 324 322 323 323 323
327 327 327 327 328 328 328 328 328 330 333 333 333 333 332 332 332 331 330 330 328 328 328 328 327 326 325 326 326 325 325 326 326 324 323 323 323 324 323 322 322 323 321 319 319 319 316 311 309 310 311 311 312 317 321 321 321 323 325 324 323 325 324
326 328 329 330 330 330 329 329 328 329 332 334 333 333 333 333 332 331 330 330 330 329 329 329 327 326 326 326 326 326 325 326 325 323 322 323 323 324 324 323 323 324 323 322 322 320 315 312 312 312 312 310 309 313 318 321 321 321 324 325 326 326 326
326 329 332 332 332 331 330 329 329 328 331 334 334 334 334 333 333 333 332 331 330 329 329 329 328 327 327 326 326 326 325 325 323 321 320 322 323 323 323 324 325 326 325 325 325 323 319 316 315 314 314 314 312 310 313 318 320 321 323 325 326 326 327
328 329 332 331 330 330 329 328 329 329 331 334 334 334 334 333 334 335 334 333 333 331 330 330 330 330 329 327 326 326 326 324 322 319 318 318 319 320 320 322 324 326 326 326 326 325 323 320 318 317 316 317 316 314 312 313 316 319 321 323 324 324 325
331 329 330 330 330 329 326 327 328 330 331 334 333 333 334 334 334 334 334 335 335 333 332 332 331 331 330 328 327 327 327 324 322 319 318 317 318 319 320 320 322 324 325 325 325 325 325 323 322 320 319 318 318 318 316 314 314 315 317 320 322 323 322

ECMWFFLT2_925_thetae_132.txt.gz
Theta_e
326 325 325 326 322 319 321 321 316 319 325 321 314 315 318 316 316 319 319 323 333 341 345 349 351 352 353 353 354 355 353 352 352 353 352 352 355 355 352 349 348 347 347 349 349 350 351 351 351 351 352 354 356 357 358 358 357 358 359 359 357 357 358
325 325 325 327 325 323 320 316 318 324 327 324 318 316 318 317 316 317 317 319 326 330 336 349 354 351 353 354 354 355 355 353 353 353 353 352 355 358 356 350 348 349 349 349 350 350 350 351 350 351 353 354 356 357 357 356 357 356 357 357 356 356 357
324 326 324 323 325 327 323 320 324 324 319 317 318 315 315 316 316 316 316 317 321 325 334 348 353 352 355 354 353 355 355 353 353 352 354 354 354 358 358 352 348 348 349 350 350 350 350 351 351 351 353 354 355 357 356 355 355 354 355 355 355 355 356
322 323 322 318 318 325 326 324 326 325 319 317 317 316 315 315 315 315 315 315 323 336 345 350 353 355 355 354 354 356 353 351 351 350 353 354 353 357 358 356 352 350 348 348 349 349 350 352 352 352 352 354 354 355 355 354 353 354 354 353 354 355 355
318 318 322 320 320 323 322 320 320 320 320 319 319 318 316 315 315 316 316 313 322 344 353 351 354 354 353 353 354 354 351 349 349 350 351 353 353 354 356 357 358 355 350 347 347 349 349 351 353 352 352 353 354 354 355 356 355 356 356 353 353 355 355
314 318 326 327 327 328 325 322 320 319 320 317 316 316 314 315 314 315 317 313 322 345 351 349 353 352 351 353 351 350 350 350 351 351 351 352 353 353 353 355 356 355 352 349 347 348 350 352 353 353 353 354 354 355 355 356 357 358 357 355 354 355 356
318 324 328 326 327 330 330 327 325 326 324 317 314 314 314 314 313 315 317 313 325 348 350 348 352 350 350 352 350 350 350 351 351 351 352 352 352 352 352 353 354 354 351 349 348 349 350 352 352 352 354 355 355 357 357 357 357 359 358 356 355 357 358
321 324 325 326 328 328 326 328 329 329 326 323 322 320 319 315 312 316 316 314 328 348 351 348 350 350 352 351 350 350 350 351 351 351 352 352 351 351 351 352 353 352 350 348 350 351 350 350 352 353 355 356 357 358 359 358 359 359 359 357 356 358 359
317 318 321 322 324 324 324 328 333 331 330 330 327 326 325 317 314 317 315 315 333 349 349 349 349 349 351 350 348 349 350 350 351 350 351 351 351 351 351 351 351 351 349 348 350 353 354 353 352 352 354 356 357 357 359 359 359 359 359 358 357 358 359
313 314 317 317 319 322 323 328 332 332 333 331 325 324 322 318 322 325 317 321 341 352 349 349 349 348 349 350 349 348 349 349 349 350 350 350 351 351 351 351 350 350 350 350 350 352 354 355 353 352 353 355 355 356 357 358 358 359 359 359 359 358 359
314 315 319 321 321 320 320 324 329 330 333 332 327 323 321 322 328 329 327 335 344 347 349 350 349 348 349 349 349 348 349 349 348 349 349 349 350 349 349 350 350 350 351 350 350 349 350 352 351 351 353 354 354 354 356 357 357 358 359 359 359 359 359
318 319 321 322 323 321 320 323 326 328 332 331 327 323 325 333 333 330 337 346 342 343 350 350 347 348 348 348 348 347 348 347 347 348 348 349 350 349 349 349 348 349 349 349 349 349 350 349 347 347 347 348 349 350 352 354 353 354 357 360 360 360 360
320 321 321 321 323 324 325 326 325 327 330 329 327 326 331 340 338 336 344 348 344 345 348 346 345 348 346 345 346 345 345 345 345 345 346 348 348 347 346 346 345 345 345 346 347 347 347 347 347 347 346 345 345 346 348 351 352 351 353 356 360 360 359
319 321 321 322 323 324 327 328 328 329 330 330 331 332 336 341 341 343 345 345 346 346 344 343 344 344 343 342 343 343 343 343 342 342 344 345 344 343 342 342 341 341 341 342 343 343 344 343 344 345 346 346 347 349 350 352 353 353 351 351 356 360 358
317 321 323 323 323 323 324 327 330 330 329 332 333 335 339 341 341 343 344 343 345 343 341 343 342 341 342 341 340 341 342 341 341 341 342 342 341 339 339 339 338 338 339 340 340 341 341 341 342 342 343 345 348 350 352 352 352 354 353 352 356 359 358
314 320 322 322 323 323 320 322 327 327 327 330 333 336 338 336 337 340 338 338 341 339 339 341 340 340 341 340 340 340 340 341 340 340 341 340 338 338 337 337 337 336 337 338 339 339 339 339 340 341 342 344 346 349 351 352 352 352 353 353 355 357 360
312 319 321 320 321 319 317 321 327 329 330 332 333 336 338 335 336 336 332 333 337 338 339 341 340 340 340 340 339 338 339 340 340 339 339 338 336 336 336 335 336 336 336 337 337 338 338 338 338 340 342 343 344 347 348 350 351 351 352 353 353 355 358
313 318 320 320 318 316 320 328 332 332 334 334 334 336 337 335 336 335 333 336 339 338 340 342 340 340 339 338 337 336 336 338 338 337 337 336 335 335 334 334 334 335 337 337 336 336 336 336 337 339 340 341 342 344 346 347 348 349 350 350 352 354 356
313 317 319 318 317 319 326 334 335 333 335 335 335 337 337 336 337 337 335 337 339 339 339 339 338 337 337 336 337 336 334 335 337 336 335 334 334 333 333 333 334 334 335 336 336 335 334 335 336 337 338 340 341 342 343 344 345 346 347 347 348 349 352
315 316 316 317 320 323 327 333 335 334 335 335 333 333 336 338 339 339 338 338 339 339 338 337 336 336 336 336 336 335 333 334 334 334 333 333 333 332 332 332 333 333 333 334 335 334 333 333 334 336 337 339 340 341 341 342 342 343 344 344 344 345 346
316 314 314 317 319 319 322 330 335 335 334 335 332 330 334 337 337 339 340 340 339 338 338 337 337 336 337 338 337 334 333 332 332 333 334 332 332 333 333 331 331 331 331 332 333 333 333 332 333 335 337 339 340 340 341 341 341 341 341 341 342 342 342
317 314 314 316 315 316 324 333 336 333 331 332 332 329 331 335 335 336 340 341 340 338 338 337 337 338 339 341 339 334 331 331 331 332 333 332 331 332 331 330 329 329 329 330 331 332 332 331 331 333 335 337 338 339 339 340 340 340 339 340 340 340 340
316 315 314 315 314 319 329 334 334 332 330 331 331 327 328 334 335 335 338 341 339 338 337 337 337 338 338 340 338 333 330 331 331 331 333 332 331 330 329 329 328 327 328 328 328 330 331 330 330 331 333 335 336 336 337 338 338 338 338 337 337 338 338
315 315 314 314 315 323 333 333 331 331 331 331 330 326 327 333 335 335 337 340 339 338 338 337 337 337 339 340 337 331 330 332 332 331 332 331 329 328 328 328 326 326 327 326 326 327 328 329 330 330 330 332 334 335 335 335 336 337 336 335 334 334 334
314 315 314 314 317 327 334 330 329 330 331 329 327 327 332 336 335 336 338 338 338 338 338 337 337 338 338 337 334 332 332 333 332 331 329 328 327 326 326 327 325 324 324 324 324 326 327 328 328 328 330 331 332 333 333 332 333 334 334 333 330 328 328
314 316 315 314 318 329 332 329 329 331 329 327 327 330 337 338 335 337 337 337 338 338 337 337 337 337 335 333 332 331 332 332 333 331 329 327 326 325 325 325 323 321 320 320 321 323 326 327 328 328 329 330 331 332 332 331 330 330 331 331 329 326 324
317 317 316 315 318 328 332 330 331 331 329 329 331 335 338 337 335 336 336 336 337 337 337 337 336 335 332 331 330 330 330 331 330 328 327 327 327 326 324 323 322 320 318 317 318 320 322 325 328 328 329 330 330 331 332 331 329 329 329 329 329 327 325
318 315 317 321 324 330 331 329 331 332 332 332 334 335 337 336 334 334 335 336 337 336 336 336 335 334 332 330 329 329 328 327 326 325 326 327 327 326 325 323 322 320 319 317 317 318 319 322 325 327 328 329 330 331 332 332 331 330 330 329 329 327 327
323 321 325 331 331 331 330 330 332 333 332 333 334 333 334 334 333 333 334 336 336 335 335 335 334 333 332 330 328 328 326 325 324 325 326 326 325 324 324 324 324 322 321 319 318 318 319 320 322 324 326 328 329 330 331 330 330 330 330 329 329 328 327
328 329 331 333 332 331 330 330 331 332 331 331 331 331 332 332 332 333 334 335 335 334 334 334 333 333 332 330 328 326 324 323 323 325 325 325 324 323 323 325 324 322 322 321 319 319 320 319 319 320 322 324 327 328 329 328 328 329 329 329 329 328 326
325 326 330 332 331 331 330 329 331 333 332 330 330 330 331 332 332 333 334 335 335 334 333 333 333 332 331 330 328 325 323 323 324 324 325 325 325 324 325 326 325 324 324 323 322 322 321 320 319 318 319 322 324 326 327 328 329 329 329 329 328 327 326
327 329 333 333 332 331 330 330 330 332 331 331 332 332 332 333 333 333 334 335 334 333 333 333 333 332 330 329 328 325 324 325 325 324 325 326 326 327 328 329 328 327 327 326 324 323 324 323 321 319 318 321 323 324 326 328 329 330 329 329 329 328 327
330 333 333 332 331 331 332 331 331 331 330 331 332 332 332 333 333 332 333 333 333 333 334 333 332 331 330 329 327 326 326 327 326 325 326 327 328 329 330 330 329 329 329 328 325 324 324 324 324 322 320 320 322 324 326 327 329 329 330 330 329 329 328
325 329 331 330 329 330 330 332 332 331 329 330 332 332 331 331 332 332 332 332 332 333 333 333 332 331 330 330 327 326 325 326 326 325 325 327 328 329 330 329 329 329 329 329 327 326 326 325 325 325 324 322 321 322 324 326 328 329 329 329 328 328 327
324 327 330 330 328 328 330 331 331 331 330 330 332 332 331 331 332 333 332 332 332 331 332 332 331 331 331 330 328 325 324 325 325 324 325 325 326 328 329 328 328 329 329 328 328 328 327 327 326 326 326 325 323 321 322 323 325 326 328 328 327 327 326
326 328 330 330 328 328 329 330 330 331 331 330 330 331 331 330 331 332 332 332 332 331 331 331 331 331 331 330 328 326 325 324 323 324 325 325 326 327 328 328 328 328 328 328 328 328 327 327 327 327 326 326 325 324 323 322 322 323 324 325 325 325 325
329 329 331 331 330 330 330 330 330 331 332 331 330 330 330 331 331 332 333 334 334 332 331 332 331 330 330 329 328 327 326 324 324 324 325 325 325 326 327 327 327 328 328 328 328 327 327 327 327 327 327 326 326 325 325 324 323 322 322 323 323 323 322

ECMWFFLT2_925_thetae_135.txt.gz
Theta_e
325 325 324 326 321 318 322 322 315 318 324 321 312 311 314 312 314 316 314 320 334 340 344 351 350 348 349 351 356 355 352 353 354 354 353 354 356 357 358 354 352 353 347 346 348 348 348 348 349 349 349 351 351 352 356 359 361 361 361 360 358 358 358
324 324 324 325 325 323 321 316 317 324 325 322 317 313 314 314 314 314 311 316 325 328 335 348 349 349 349 347 353 355 354 354 354 355 354 353 355 357 358 357 353 354 353 347 345 347 348 348 348 349 349 351 351 351 354 357 360 360 360 360 357 357 358
323 326 323 321 323 326 322 319 323 324 316 316 317 313 313 314 313 314 311 311 318 325 333 344 347 349 349 345 350 354 354 354 354 355 356 354 354 355 356 356 355 355 353 353 351 347 348 349 349 349 348 349 351 351 352 355 356 356 356 357 356 356 356
323 324 321 316 319 325 325 323 324 324 318 316 316 314 315 314 312 315 312 312 326 337 343 349 350 352 352 349 351 353 354 354 352 353 355 354 353 353 354 355 356 356 354 351 352 349 350 350 349 350 349 347 349 350 351 352 353 352 352 353 355 356 355
319 318 320 318 320 323 322 319 317 319 320 319 318 316 315 314 314 315 313 316 333 347 350 353 353 352 353 352 351 351 352 353 352 353 353 353 353 353 354 354 354 356 357 353 351 350 351 351 349 351 350 348 350 350 350 352 352 351 350 352 354 355 353
314 318 326 325 325 325 323 321 318 320 320 318 317 316 314 313 313 314 313 317 333 348 350 352 352 350 353 353 350 351 353 354 353 354 353 353 354 353 353 355 353 356 357 354 353 353 351 351 352 353 354 353 353 352 353 354 354 352 352 350 351 353 351
318 324 327 325 325 326 325 325 324 326 323 318 315 314 315 314 313 315 312 314 331 348 349 350 352 351 353 352 350 352 353 353 354 354 354 354 355 354 353 354 354 356 356 353 353 353 352 353 353 353 355 355 355 355 355 356 356 356 354 350 349 352 352
320 323 325 325 326 325 323 324 326 327 324 322 321 320 320 318 315 316 312 313 330 346 349 350 352 352 353 351 351 353 352 353 354 354 355 354 355 356 354 354 354 354 354 352 351 353 354 353 351 352 355 356 355 356 357 357 358 358 356 352 351 352 354
315 317 320 321 323 324 322 323 327 329 328 327 326 324 323 320 317 318 315 316 331 346 349 350 350 350 351 350 351 352 352 353 352 353 355 354 353 355 355 354 353 353 353 352 351 353 355 354 353 353 355 356 357 358 360 361 360 360 360 358 356 354 354
313 315 317 317 319 322 322 324 326 328 329 327 325 323 320 318 320 322 320 323 336 349 350 349 349 350 350 351 351 351 352 351 350 352 353 352 351 352 354 354 353 353 352 351 351 351 354 355 354 353 354 357 359 358 359 362 360 358 358 358 358 356 357
315 316 319 322 322 319 317 320 323 326 329 328 327 322 318 320 321 321 326 333 337 344 350 349 349 351 350 351 351 349 350 349 349 350 350 349 350 350 351 351 351 352 352 351 351 350 351 353 352 352 353 354 357 358 358 359 359 357 356 357 357 356 357
318 319 321 322 323 318 316 319 321 324 327 328 327 321 320 325 321 319 334 343 336 340 348 347 348 351 350 349 349 348 348 347 346 347 346 346 347 347 347 347 347 349 348 349 350 349 350 351 351 352 351 350 352 354 356 357 357 357 356 355 356 357 356
320 321 320 320 321 319 320 321 321 323 326 326 325 323 325 331 326 324 338 344 340 343 347 346 347 349 347 346 346 344 344 345 345 344 344 343 343 343 343 343 344 345 344 346 348 347 348 349 350 351 351 350 351 351 352 353 355 357 357 354 354 356 357
319 320 321 321 320 319 320 323 323 325 325 325 326 327 330 335 335 335 339 343 346 346 345 346 347 345 344 345 343 342 342 344 345 343 342 342 342 342 342 342 342 342 342 345 345 345 346 346 347 349 349 350 351 349 347 346 348 352 355 355 354 354 354
316 319 321 321 321 319 319 321 324 325 325 325 327 329 333 334 335 340 342 342 344 344 343 346 345 343 344 343 342 342 342 342 344 343 341 341 341 340 341 341 340 340 341 344 344 344 345 345 345 346 347 349 351 350 348 347 346 348 352 355 355 355 354
312 318 321 320 320 320 317 317 322 323 322 323 327 331 334 332 331 337 340 338 340 343 343 345 343 343 344 342 342 342 341 341 341 341 340 339 339 339 340 340 339 339 340 341 342 343 343 343 344 344 346 347 349 351 351 350 350 350 352 355 355 355 354
311 317 321 319 318 316 314 316 322 324 323 326 329 331 334 333 331 332 334 336 340 343 342 342 343 343 343 343 342 340 340 341 339 339 339 337 336 337 338 339 339 339 339 340 341 341 341 342 343 343 344 346 347 348 349 349 350 351 353 354 354 354 353
311 316 321 318 314 313 316 324 327 327 328 329 330 331 333 334 333 333 333 336 340 341 342 342 344 343 342 341 340 338 339 339 339 338 337 336 336 336 336 337 339 340 340 340 340 340 340 341 341 342 344 344 345 346 347 347 347 348 349 350 351 351 351
312 315 319 315 313 317 325 330 329 327 328 330 330 332 335 334 333 335 336 337 338 340 341 341 340 341 340 339 338 338 338 338 340 339 337 337 337 336 335 336 338 339 339 339 339 339 340 340 341 342 343 344 344 345 345 345 345 345 346 346 346 346 347
314 314 314 313 316 323 328 328 328 327 327 328 327 328 333 335 335 337 338 338 339 339 339 338 338 339 339 338 338 337 336 337 339 339 338 337 336 335 334 334 337 338 337 337 337 338 339 340 341 342 343 343 344 344 344 344 344 344 344 343 344 343 344
315 312 311 314 317 319 322 327 330 329 327 330 329 327 331 336 337 337 337 338 339 338 338 339 339 338 339 340 339 337 335 335 337 338 338 336 334 333 331 330 334 336 335 336 336 336 338 339 340 340 341 342 343 343 343 343 343 342 342 342 341 341 342
316 313 312 314 314 314 320 330 333 329 327 331 332 328 331 335 335 334 335 337 339 339 338 339 339 339 340 341 340 337 334 334 334 335 335 333 332 330 328 328 331 332 333 335 335 334 336 337 338 339 339 340 341 341 341 341 341 341 340 340 339 339 339
316 314 313 313 312 316 326 332 331 328 327 330 329 326 328 334 336 333 334 336 338 339 338 338 338 339 340 341 341 337 333 333 334 333 333 331 329 327 326 327 329 329 331 332 333 334 334 334 335 336 336 337 337 338 338 338 338 338 338 338 338 337 336
314 314 313 312 315 323 332 329 327 328 329 329 328 324 327 334 335 334 336 338 338 339 339 339 337 338 339 340 339 335 333 334 334 333 332 330 328 327 325 325 326 327 328 329 331 332 332 332 333 333 333 334 333 333 334 334 334 334 334 335 335 334 334
312 312 312 311 316 327 331 325 326 330 329 328 326 325 330 335 334 334 338 338 337 337 338 339 338 337 338 338 336 334 334 334 332 330 328 326 326 326 325 323 323 323 324 327 329 330 330 331 331 331 332 333 331 331 331 331 332 332 331 332 332 331 331
312 313 313 312 317 328 330 325 327 329 326 325 327 332 336 335 333 335 337 336 335 335 336 337 337 336 336 335 334 334 334 333 331 329 326 325 324 324 323 322 321 321 322 324 326 328 329 329 329 330 332 333 332 332 331 330 331 331 330 330 329 329 329
314 313 313 312 317 328 331 326 328 329 326 327 332 335 335 334 333 335 336 335 336 335 336 337 336 335 336 335 334 333 333 332 331 330 328 327 326 324 323 322 320 320 320 321 322 324 327 328 329 330 332 333 333 332 332 332 331 331 331 330 328 327 327
314 312 315 320 323 329 329 326 328 331 331 332 334 334 334 334 333 333 335 337 336 336 338 338 335 334 335 334 334 333 331 328 327 328 329 328 327 326 325 323 321 320 320 320 320 321 323 326 328 330 331 333 332 331 332 332 331 331 331 330 329 328 327
319 319 325 330 330 329 329 328 330 333 333 332 332 333 334 334 332 332 334 336 336 337 338 338 336 335 334 334 333 332 329 326 326 327 327 325 325 326 325 325 324 322 321 321 320 320 320 322 325 327 329 331 332 331 330 331 331 331 330 329 329 328 327
324 327 329 329 328 329 330 330 332 333 333 331 331 332 333 332 330 331 333 333 333 335 336 337 337 336 335 333 333 331 327 325 326 326 325 324 325 325 326 326 326 325 324 324 323 322 321 320 322 324 326 328 331 331 330 330 331 331 330 330 329 328 327
324 325 328 328 327 328 330 331 332 332 331 331 331 331 332 332 331 331 332 332 332 333 334 336 337 336 335 333 332 330 327 325 326 327 326 326 327 327 328 327 327 327 327 327 327 325 324 321 321 323 324 326 329 330 330 331 331 331 331 330 330 329 328
327 328 331 331 328 328 329 330 331 332 331 331 331 331 332 332 331 331 331 331 331 331 332 335 336 335 334 332 331 329 326 326 327 328 328 328 329 329 330 329 329 329 329 329 329 329 327 325 323 322 323 324 327 329 331 332 332 332 331 331 330 329 329
329 333 334 332 330 330 330 329 331 332 332 332 332 332 331 331 331 331 330 330 331 331 331 332 335 335 334 332 330 328 327 328 329 329 329 330 330 330 330 330 330 330 330 330 330 330 330 329 327 325 323 323 324 327 329 331 332 332 331 330 329 328 328
324 330 334 332 329 330 330 329 330 331 332 332 332 331 330 330 330 330 329 329 331 333 332 332 334 334 333 332 330 328 329 329 329 329 330 330 329 329 330 330 330 330 330 330 331 331 330 330 330 328 327 325 324 325 326 327 329 331 331 330 328 326 325
322 327 332 331 328 329 331 331 330 331 331 331 331 331 330 329 329 329 329 329 331 332 333 333 334 334 333 331 329 329 329 329 329 329 329 329 329 329 329 329 329 329 330 330 330 331 330 330 330 330 329 328 327 326 326 325 326 327 329 328 327 326 324
325 326 330 329 327 328 331 331 331 331 330 329 330 330 330 329 329 329 329 329 330 331 332 333 334 334 333 330 328 328 328 328 327 328 328 328 329 329 329 329 329 329 329 329 329 329 329 329 329 329 328 328 328 328 327 327 326 327 327 327 325 324 324
328 328 330 330 328 328 331 331 330 330 330 330 329 329 329 329 329 330 330 331 330 330 331 332 333 334 333 330 327 327 327 327 326 327 328 328 329 329 329 329 329 329 330 329 329 329 329 328 328 328 328 327 327 328 328 328 328 328 327 327 324 322 321

ECMWFFLT2_925_thetae_138.txt.gz
Theta_e
326 326 324 326 322 318 321 321 316 318 324 322 312 310 313 313 313 314 319 332 341 345 349 350 350 353 355 355 355 354 354 356 356 356 355 354 356 358 359 360 357 353 353 352 349 346 347 347 348 349 352 352 355 361 362 362 363 361 360 361 359 359 358
325 326 324 325 325 323 320 316 317 323 326 324 316 312 312 313 315 312 316 331 336 335 343 348 348 352 353 354 356 354 355 356 356 355 352 352 356 357 357 359 358 358 357 354 352 349 349 349 348 348 351 353 355 359 361 361 363 362 360 360 359 359 359
324 327 324 321 323 326 322 320 324 322 317 317 316 314 312 312 314 312 315 330 332 329 339 345 346 349 350 352 355 354 356 356 356 354 353 354 355 354 356 358 360 362 359 355 352 349 350 350 350 349 349 353 354 356 359 361 363 362 360 360 359 358 358
324 325 321 316 317 323 324 322 325 323 317 316 314 314 314 313 314 313 317 330 336 335 345 349 349 352 351 352 355 355 356 356 355 356 355 354 352 352 355 358 359 359 359 356 351 350 351 350 352 353 349 351 351 351 356 359 361 362 359 359 358 357 358
321 319 320 320 319 321 322 319 319 318 318 320 318 316 315 312 314 314 314 327 338 343 350 352 350 351 351 351 354 355 356 355 355 356 355 353 353 352 353 356 356 355 357 358 354 353 353 351 353 352 348 349 348 348 351 354 358 361 358 357 357 357 357
315 318 325 327 326 325 325 321 319 319 319 320 318 318 317 312 314 314 312 325 340 348 350 351 349 350 350 350 352 354 356 355 354 355 355 353 353 353 351 352 353 354 356 357 356 356 356 356 356 351 347 347 347 349 352 351 354 358 356 354 355 356 356
318 323 326 326 326 327 327 324 324 324 321 318 314 315 317 315 315 317 313 324 341 349 348 349 349 349 350 349 351 353 352 352 353 354 354 352 352 351 349 349 352 352 354 355 355 355 356 358 356 353 351 350 349 353 354 351 350 351 351 351 353 355 356
322 324 324 325 326 326 324 323 324 323 321 322 320 319 320 317 316 318 315 322 339 347 347 350 348 347 348 347 349 351 350 350 350 351 352 350 350 350 348 348 350 351 351 351 353 355 357 357 357 357 356 354 353 354 354 351 350 350 350 351 353 356 356
316 318 319 321 324 324 322 321 323 325 325 327 326 323 323 320 317 318 316 323 339 348 349 350 347 347 348 347 348 350 349 349 348 349 350 349 349 349 348 349 350 351 352 351 352 354 357 357 356 357 357 355 354 353 353 353 352 353 353 352 353 354 353
313 315 316 317 320 322 323 323 324 326 326 326 324 321 320 320 319 320 319 326 341 350 350 348 347 348 350 350 349 349 349 348 347 348 349 349 351 349 348 350 351 353 354 352 352 353 355 355 354 355 355 355 354 353 353 355 356 357 357 355 355 355 352
316 316 319 324 325 320 318 321 322 324 326 327 326 319 318 321 320 320 327 333 337 342 348 349 348 349 350 350 348 348 349 348 346 347 346 348 350 347 347 349 350 353 353 352 352 351 351 352 352 352 352 351 355 356 355 357 359 360 359 356 356 357 355
319 321 322 324 324 319 317 319 319 322 325 326 324 318 321 325 320 321 335 339 332 337 349 351 349 349 349 348 348 347 348 347 346 346 345 345 346 345 346 346 347 349 349 349 351 350 350 350 350 351 351 350 353 354 354 356 358 359 359 358 357 357 356
320 322 322 322 322 319 319 318 317 321 322 322 321 320 324 327 322 325 337 339 337 343 348 348 348 349 347 347 347 346 346 345 344 344 343 344 344 344 345 345 346 346 346 348 349 348 349 349 349 351 351 351 352 352 352 353 353 355 357 357 357 357 356
321 322 323 322 320 319 318 318 319 321 322 322 322 323 327 330 328 334 340 340 344 349 347 347 348 346 345 346 345 344 345 344 343 342 342 342 342 343 343 343 344 344 344 346 347 347 347 348 348 350 350 352 352 352 353 352 349 349 350 352 355 356 356
318 321 323 321 320 318 317 318 321 322 322 322 322 324 328 330 332 341 343 339 344 349 348 348 346 344 345 345 343 345 344 343 342 341 340 340 340 342 342 343 343 343 343 344 344 345 346 346 347 348 349 350 351 352 353 352 350 348 347 349 353 354 355
312 318 320 319 320 320 316 315 319 321 321 320 321 327 331 330 332 338 337 333 339 346 347 347 346 345 346 344 344 344 343 342 341 340 339 339 338 339 341 343 343 342 342 343 343 344 344 345 346 347 348 349 350 351 352 352 352 351 348 350 353 354 355
311 316 319 318 318 315 313 317 321 321 323 324 324 329 333 333 332 333 330 332 341 347 346 345 346 346 345 344 343 342 341 341 339 338 338 337 336 338 339 341 343 342 341 342 343 343 343 344 345 346 347 348 349 350 350 350 351 351 350 351 352 352 352
312 316 319 319 316 312 315 324 328 326 326 327 326 327 331 334 334 332 333 337 343 345 343 343 344 344 344 342 341 341 340 340 339 338 338 336 335 337 338 340 342 342 341 342 343 342 343 344 345 346 346 347 347 348 348 348 348 348 348 348 348 348 348
313 317 317 314 312 316 324 330 330 328 327 327 328 328 332 334 335 334 336 338 341 342 342 343 343 343 342 340 340 340 339 339 339 338 337 336 335 336 337 339 340 340 340 341 342 342 342 343 344 345 345 346 346 345 346 346 345 345 345 344 344 344 345
315 314 313 313 316 324 329 329 328 327 327 327 324 325 331 335 335 336 338 339 340 341 341 342 342 341 340 340 339 338 338 339 339 338 338 336 333 333 336 338 339 339 338 339 340 341 341 341 343 343 343 344 344 343 344 344 344 343 343 342 342 341 341
316 312 310 314 316 318 322 326 329 327 327 328 325 325 332 338 335 335 338 340 340 340 340 340 340 339 340 341 339 338 337 337 337 337 338 335 333 332 333 335 339 339 338 337 339 340 340 340 341 341 341 341 341 341 341 341 341 341 340 340 340 339 340
316 312 311 314 313 315 322 329 331 329 326 329 330 329 333 337 334 334 337 340 340 340 340 340 340 339 341 342 341 339 337 336 335 335 335 335 334 334 332 333 337 338 337 336 336 337 338 338 338 338 339 339 339 338 338 338 338 338 337 337 336 337 338
315 313 312 312 314 321 330 332 330 328 327 329 328 326 329 336 336 333 334 338 340 339 339 340 341 341 341 342 341 339 336 335 334 333 333 332 330 330 330 331 332 334 336 336 335 335 335 335 335 335 335 336 336 335 335 335 335 335 335 334 334 335 337
314 314 313 312 316 326 333 329 326 327 328 329 326 322 327 336 336 333 334 337 339 339 340 340 339 339 340 340 339 337 335 335 334 332 331 330 328 327 327 327 328 330 334 335 334 333 333 334 334 333 332 333 333 333 333 332 332 332 332 332 332 334 336
312 313 312 312 318 329 331 326 326 328 327 326 323 324 332 337 334 334 335 336 337 339 339 339 339 339 339 339 338 337 335 335 334 331 329 328 327 325 323 324 325 326 330 332 331 331 332 333 333 333 333 333 332 332 332 331 331 330 329 329 331 333 336
313 313 312 311 318 330 331 325 327 327 323 323 326 332 337 335 334 335 336 335 336 337 337 337 338 338 338 337 337 336 335 333 332 329 327 325 324 322 322 322 323 324 327 329 329 330 331 331 331 332 334 333 333 333 332 332 331 330 329 328 329 331 332
315 313 311 312 319 330 330 326 329 329 325 327 334 337 334 332 334 335 334 335 336 336 337 338 337 337 338 336 336 335 333 331 329 328 326 324 323 322 321 321 321 322 323 325 327 329 331 331 332 332 332 333 332 332 332 332 331 331 330 329 329 329 329
315 312 314 320 325 329 327 326 331 332 331 333 335 333 332 332 333 334 335 334 333 334 337 338 337 337 337 336 336 335 332 330 330 329 328 327 325 324 322 321 321 321 321 322 324 326 328 330 332 333 333 332 332 331 332 332 331 331 330 328 327 327 326
321 321 326 329 330 329 327 329 332 332 331 331 331 331 333 333 334 336 336 335 334 335 337 336 336 337 337 335 335 334 331 329 329 328 328 327 326 325 324 323 323 322 322 322 322 323 325 327 330 332 333 333 332 332 332 332 331 331 330 329 328 326 325
325 329 332 331 329 329 329 329 331 331 329 329 329 331 333 332 332 335 336 335 336 337 337 336 335 335 335 335 333 331 328 327 327 327 326 326 325 325 325 325 325 325 324 324 323 323 324 325 327 329 331 332 333 332 331 332 332 331 331 330 329 328 327
323 327 331 330 327 327 330 330 330 330 330 329 330 332 333 332 331 333 335 335 336 336 336 337 337 335 335 334 333 330 328 327 326 326 326 326 326 327 327 327 327 328 327 327 326 324 324 324 325 326 328 330 332 332 331 331 332 331 331 330 329 328 328
326 329 332 331 328 327 330 330 330 329 329 330 331 332 333 333 331 331 333 334 335 336 336 337 337 336 335 334 332 330 329 329 328 327 328 329 329 329 329 329 330 330 331 330 329 328 326 325 324 324 325 327 329 331 333 333 332 332 331 329 328 329 329
327 332 333 332 330 329 329 330 330 330 330 331 332 332 331 331 331 331 330 331 332 335 336 336 336 335 334 334 332 330 329 330 330 329 330 331 330 330 331 331 331 331 331 331 332 331 330 328 327 326 325 325 326 328 330 331 332 333 331 328 326 325 327
324 329 333 333 331 329 329 330 330 332 332 331 332 332 331 331 331 330 330 330 331 331 333 334 335 335 334 333 330 329 330 331 331 330 331 331 331 331 331 331 331 331 331 331 332 332 331 331 330 329 329 328 327 327 328 328 330 331 330 328 325 323 324
325 327 331 334 333 330 330 331 332 332 333 332 331 331 331 331 330 329 330 331 331 330 331 332 334 334 333 331 329 330 330 331 331 331 331 331 331 330 330 331 331 331 331 331 331 331 331 331 330 330 330 329 329 328 329 328 329 330 329 327 326 325 325
329 330 331 333 332 329 329 332 332 332 332 331 331 331 331 330 329 329 330 331 332 331 331 333 334 333 332 331 330 330 331 331 331 331 331 330 331 330 330 330 330 330 330 330 330 330 331 330 330 329 328 328 329 329 329 328 329 330 328 325 323 323 325
330 331 332 332 330 329 330 332 332 332 332 331 330 331 331 330 330 329 330 332 333 332 332 333 334 332 331 331 331 330 331 331 331 330 330 330 331 330 330 330 330 331 330 330 330 330 329 329 329 328 327 326 327 328 328 327 328 329 328 326 325 324 324

ECMWFFLT2_925_thetae_141.txt.gz
Theta_e
325 327 325 326 323 321 324 321 318 319 323 325 317 316 318 314 324 342 344 346 351 351 353 356 354 358 360 359 360 358 359 361 361 361 361 360 363 365 365 364 363 360 355 353 352 349 348 350 350 352 354 355 357 358 358 360 359 359 360 359 357 357 355
326 327 325 326 324 324 322 316 318 325 327 329 323 319 320 315 325 345 347 345 348 346 350 357 355 356 356 356 356 357 358 357 356 358 358 358 361 362 364 366 365 361 355 352 352 351 351 349 350 353 355 356 359 359 357 358 360 359 360 360 359 357 356
326 328 324 323 324 326 323 319 324 325 319 322 324 320 320 316 324 344 347 343 347 347 349 353 352 352 352 351 351 352 352 351 351 353 352 353 356 359 362 362 361 359 356 354 354 354 353 351 349 353 355 356 358 358 356 355 357 358 358 359 360 359 357
325 326 321 318 320 324 324 322 325 324 317 320 322 320 320 318 322 338 344 345 349 350 350 351 351 351 352 352 352 350 350 349 349 350 351 352 355 357 359 357 356 357 357 357 356 354 355 352 348 349 351 354 356 356 354 354 356 357 355 355 356 357 358
321 320 321 322 322 322 321 319 319 320 319 322 326 322 318 318 322 329 340 347 350 353 354 353 353 351 351 354 354 351 350 349 348 350 352 353 354 355 356 356 356 356 356 356 354 353 355 354 350 348 349 351 352 352 352 353 356 357 356 354 353 353 355
315 318 325 326 326 326 323 321 320 320 322 321 324 325 321 320 320 321 335 347 350 353 354 353 354 352 350 352 353 351 352 350 350 351 352 352 353 352 351 352 354 354 353 353 354 353 354 355 355 353 352 352 352 352 352 351 354 356 355 354 354 353 353
318 322 327 325 326 328 326 326 325 323 324 321 319 322 322 320 320 320 333 346 352 353 352 352 353 351 350 351 352 352 352 350 351 352 352 351 351 349 347 349 351 352 351 350 352 354 354 356 358 356 353 354 355 353 351 349 351 354 354 353 352 352 354
324 324 326 325 325 326 323 326 327 323 324 324 323 325 325 324 322 322 333 345 351 352 353 353 351 350 352 352 353 353 351 350 351 352 352 351 350 349 348 349 351 351 350 348 351 354 355 355 355 353 351 352 354 354 352 349 349 351 353 353 351 351 353
324 327 329 327 329 329 323 324 325 324 324 327 328 328 330 331 324 322 333 344 349 352 356 354 351 352 352 351 352 352 349 349 348 348 348 348 347 346 347 348 349 351 351 350 352 354 353 351 350 350 349 348 349 351 353 352 351 352 352 351 350 351 352
321 325 327 326 327 328 325 324 325 325 325 327 329 331 333 332 328 330 338 343 348 355 356 353 353 354 352 351 352 351 350 348 346 346 346 345 345 345 345 346 347 349 350 350 351 351 349 348 348 348 348 348 348 349 352 354 355 355 354 352 350 350 352
321 324 328 331 328 323 321 321 323 325 325 327 332 331 331 331 330 336 343 344 348 353 354 354 355 354 353 352 352 351 351 347 345 345 344 344 346 345 346 346 347 349 349 349 350 349 348 348 347 347 347 347 348 349 351 354 357 357 356 355 352 352 353
322 325 326 327 325 321 319 318 319 322 321 324 328 325 329 336 334 336 345 347 345 349 354 355 355 354 353 352 351 351 349 346 344 344 343 344 345 344 345 346 347 348 348 347 348 348 348 349 347 347 347 346 346 347 348 350 354 358 358 356 354 355 356
320 322 322 324 323 321 321 319 317 319 318 320 322 321 329 343 341 340 349 349 347 350 353 352 353 353 351 350 350 348 347 345 342 341 342 343 344 343 344 345 346 347 346 346 347 346 347 348 348 347 348 348 347 346 347 349 352 355 357 357 357 358 359
320 323 324 326 323 321 321 321 321 321 320 321 321 321 333 346 345 346 352 353 352 353 352 351 352 350 348 348 348 346 346 345 342 341 342 343 344 344 344 344 345 345 345 345 345 345 346 346 347 348 349 350 350 348 349 351 352 350 350 353 355 356 357
319 322 323 324 324 321 319 320 323 322 320 321 320 324 336 345 347 349 351 353 355 354 350 350 351 349 348 347 347 347 346 345 342 341 341 342 344 345 345 345 344 344 344 344 343 344 344 345 347 348 349 350 349 349 349 351 351 349 348 349 350 352 353
317 319 319 320 320 320 317 318 323 323 319 320 324 331 337 341 345 349 349 349 353 353 350 350 349 347 347 347 347 347 346 345 343 342 341 341 342 343 344 344 344 344 344 344 343 344 344 345 346 347 349 349 349 349 349 349 351 351 350 349 348 349 351
318 318 318 319 317 317 317 321 326 327 325 325 330 336 338 337 341 346 347 349 353 352 350 350 349 347 346 347 347 346 345 345 343 342 341 340 340 342 343 344 344 344 344 343 343 343 344 345 347 347 348 348 348 349 348 348 349 349 349 348 346 347 347
317 319 320 321 319 317 321 329 330 329 330 329 330 334 337 337 340 344 348 351 352 350 348 348 348 347 346 346 346 345 345 344 343 342 341 340 341 341 342 343 343 343 343 343 342 342 343 345 346 346 347 347 347 346 346 346 345 344 344 344 343 344 345
318 320 319 319 320 323 330 336 333 331 331 328 329 335 337 337 339 343 347 348 348 348 347 346 346 346 345 344 345 345 345 344 343 342 340 340 341 340 341 343 342 340 342 342 341 342 343 343 344 344 344 345 344 343 343 342 342 341 341 341 341 341 342
320 319 317 319 324 330 335 334 332 333 330 325 331 338 340 338 340 342 345 346 346 346 345 344 344 343 342 342 343 343 344 344 344 342 340 339 338 338 339 341 340 339 340 341 341 341 341 342 342 341 341 341 341 340 339 338 337 338 338 339 339 340 341
320 317 317 321 322 328 337 335 330 333 332 331 338 341 341 341 342 342 344 344 345 345 344 344 343 341 342 343 342 341 341 342 342 341 339 337 335 335 336 338 339 338 337 339 339 338 338 339 340 338 337 337 337 336 335 334 334 334 335 337 338 338 338
322 320 319 319 316 324 338 339 330 331 332 332 338 341 343 344 342 342 344 344 344 344 343 343 343 342 344 345 344 342 340 339 339 337 335 333 333 333 333 335 337 336 336 336 337 336 335 335 336 336 335 334 333 333 333 333 332 333 334 336 337 336 336
320 319 318 318 317 327 345 343 330 328 329 330 334 339 344 346 340 341 344 343 344 344 342 343 344 345 347 347 345 343 339 336 335 334 333 331 330 331 331 331 332 334 335 335 334 335 333 332 333 334 333 332 332 331 330 330 331 332 334 336 336 336 336
319 318 317 318 321 336 351 343 331 329 330 332 331 332 340 345 338 340 343 343 345 345 343 344 345 347 349 347 344 342 338 335 333 331 329 328 328 330 330 329 330 332 334 334 333 334 333 332 333 333 332 332 332 330 329 328 329 331 333 335 337 337 336
320 319 317 316 325 341 346 337 331 329 330 334 331 331 342 347 340 340 342 343 346 347 346 347 347 347 347 345 343 342 340 338 332 328 327 327 326 327 327 327 329 331 332 332 332 333 333 333 333 333 332 333 332 331 330 329 329 329 329 331 334 336 336
320 320 318 316 325 339 339 333 335 334 334 339 338 339 344 343 339 340 342 342 344 347 346 346 346 344 343 342 341 341 341 340 333 327 325 324 323 322 322 324 328 329 330 331 332 332 333 332 332 332 331 331 331 331 331 330 330 329 328 328 330 332 333
320 320 317 316 324 338 339 339 343 342 341 344 345 344 342 339 338 340 341 340 342 343 343 343 342 341 341 339 339 339 339 336 331 325 324 323 322 321 321 322 325 326 328 330 331 332 333 333 332 331 331 331 331 330 331 330 329 327 326 327 328 329 331
325 321 321 325 334 340 341 342 345 344 343 346 346 343 341 339 338 340 341 342 341 341 342 342 340 340 340 339 339 338 334 330 327 326 325 324 323 323 322 322 323 324 326 328 330 331 333 333 333 332 331 332 331 330 330 330 329 327 325 324 324 325 326
335 333 335 340 343 341 338 340 342 341 342 344 343 341 340 339 339 341 342 342 342 342 342 340 340 340 339 338 338 335 332 330 329 328 326 324 324 324 324 323 323 323 324 326 328 330 331 332 332 333 332 332 332 332 331 330 330 329 328 325 323 323 322
338 340 341 342 340 337 336 337 340 341 338 336 337 339 340 341 340 340 341 340 341 342 342 340 340 340 339 338 337 334 332 331 330 328 326 325 325 325 325 325 325 324 324 324 326 327 329 330 331 331 332 332 332 332 331 331 331 329 328 328 326 325 324
335 337 342 342 337 335 336 337 339 340 337 336 339 342 341 341 341 339 340 340 341 341 341 341 341 340 339 339 338 334 331 330 328 326 326 325 325 325 326 325 325 324 324 324 324 325 325 327 328 329 331 332 333 333 332 332 331 329 328 328 328 327 326
335 341 346 342 336 336 338 337 338 340 340 341 343 342 340 340 340 339 339 340 340 340 341 342 340 339 339 339 337 333 332 329 327 326 327 328 328 329 329 328 328 327 326 325 324 324 324 325 325 326 328 330 331 333 333 332 331 329 327 325 326 327 327
336 343 344 340 337 337 336 336 340 343 344 344 342 339 339 339 339 339 339 338 338 339 341 341 339 338 340 339 334 333 334 332 329 329 330 331 331 331 331 331 331 330 329 328 327 326 326 325 325 325 326 327 328 329 330 330 329 328 326 324 324 325 326
335 341 343 342 343 341 337 338 341 343 343 343 342 340 339 339 338 340 339 337 337 338 339 338 338 340 341 337 331 331 334 333 331 331 331 331 331 331 331 331 331 331 331 331 330 329 328 328 328 328 327 327 328 328 328 328 326 325 325 325 325 324 325
334 340 344 346 348 346 342 340 341 343 343 342 343 343 341 338 339 340 340 338 338 339 338 335 336 339 338 333 330 332 332 331 331 331 331 331 332 331 331 331 332 331 331 331 331 330 330 329 329 329 329 329 328 328 328 327 325 323 323 323 324 324 324
336 338 345 349 347 343 341 340 340 342 342 341 342 343 341 338 337 338 338 337 337 339 338 336 334 335 333 329 329 332 331 331 332 332 331 331 331 331 331 331 331 331 331 331 331 330 330 329 329 328 329 328 328 327 328 328 326 324 323 323 322 322 323
340 342 345 347 345 342 340 340 341 341 340 339 341 342 339 337 336 335 335 336 335 335 337 336 334 333 330 329 330 331 331 332 332 331 331 332 331 331 331 331 330 330 330 330 330 330 329 328 327 326 327 328 327 325 325 327 328 327 325 326 326 323 323

ECMWFFLT2_925_thetae_144.txt.gz
Theta_e
324 324 326 327 324 325 327 325 320 319 326 328 320 321 328 335 344 349 347 349 352 354 353 351 349 350 351 352 351 351 350 351 355 356 353 353 359 362 361 362 363 358 350 346 349 351 350 349 349 353 356 355 355 356 355 353 353 355 355 352 351 351 352
326 326 327 328 325 327 326 319 322 326 326 329 328 323 327 340 348 349 346 348 351 351 350 353 353 354 355 354 351 352 352 351 353 353 352 352 355 357 359 359 358 354 350 348 350 353 351 349 350 353 355 356 356 356 356 355 354 356 356 353 353 353 353
325 329 326 325 327 329 326 322 326 325 317 321 328 322 323 338 350 351 346 346 350 350 352 357 357 356 360 358 353 353 352 351 352 352 352 353 353 355 355 354 353 352 351 351 352 353 352 350 351 354 355 357 357 356 357 355 355 357 357 355 355 355 354
325 332 327 319 324 328 325 325 325 326 324 322 324 321 323 337 349 351 347 346 351 355 356 359 358 357 358 357 354 353 351 351 352 352 353 353 353 354 353 352 352 351 350 350 350 351 352 352 352 354 355 357 358 357 357 356 355 357 359 357 356 356 355
322 325 325 319 323 324 320 322 321 323 326 325 325 323 321 331 344 349 350 349 352 359 361 359 359 358 356 355 354 353 351 351 352 351 352 352 351 351 350 350 351 350 350 351 352 352 351 352 353 353 355 356 357 356 356 355 356 357 359 359 358 357 356
315 320 325 322 326 327 324 324 321 321 323 323 327 326 321 327 337 343 348 349 353 360 359 357 358 357 354 354 354 353 351 351 351 351 350 349 350 349 347 348 350 349 349 350 353 353 351 352 353 352 353 353 353 353 353 352 353 355 356 358 358 357 356
317 321 325 323 325 328 330 329 326 326 327 328 329 325 323 328 334 339 346 348 354 360 357 356 358 355 354 354 353 352 351 350 349 349 348 346 346 346 346 347 348 348 348 349 353 354 351 351 352 352 353 351 350 350 351 351 353 353 353 354 356 358 356
337 333 333 334 330 328 328 327 327 329 325 329 334 331 330 332 332 340 347 348 353 359 358 357 355 353 354 353 352 351 349 349 347 346 346 345 344 344 345 346 348 348 347 349 351 352 351 350 350 350 350 350 350 350 349 350 351 353 353 351 352 355 356
335 333 334 334 331 329 328 326 327 328 326 331 333 331 337 335 329 337 346 347 350 354 356 356 354 354 354 351 350 349 347 347 346 345 345 345 344 344 344 346 348 349 348 348 349 349 350 349 347 347 348 349 351 351 349 348 348 350 352 352 351 351 352
327 327 326 326 327 328 329 327 325 324 328 335 331 329 336 334 330 339 344 345 351 355 356 356 354 355 353 350 349 348 347 346 344 345 345 344 345 345 345 346 348 349 348 348 347 347 347 347 345 346 347 348 350 350 350 349 348 348 349 350 352 350 349
332 330 332 335 332 325 322 323 322 320 325 338 341 336 335 335 338 343 343 345 352 355 356 355 354 355 353 350 349 347 347 346 344 345 345 344 344 344 345 347 347 347 347 347 347 347 346 345 344 344 345 347 350 351 352 352 351 350 350 349 349 349 349
332 331 332 332 327 322 319 318 319 320 322 333 339 331 330 339 344 342 344 350 352 353 356 356 355 355 353 350 349 349 347 346 344 344 344 344 344 344 345 346 346 346 346 346 346 346 346 346 345 344 344 345 347 350 352 355 354 354 353 351 350 350 350
327 327 325 325 322 322 322 319 319 321 321 326 331 330 336 350 349 343 346 351 351 352 356 356 355 355 352 349 349 347 346 345 343 343 344 344 344 344 344 345 345 345 345 344 344 345 346 347 346 346 346 346 345 344 346 350 353 353 352 353 354 354 353
324 327 324 326 323 320 322 323 322 322 323 330 336 337 346 354 350 347 351 353 352 352 353 354 353 351 350 349 347 346 346 345 344 344 344 344 344 344 344 344 344 345 344 343 343 344 345 346 348 349 349 348 346 344 344 347 351 350 348 350 352 354 354
326 330 326 323 321 320 320 324 327 322 324 337 345 343 345 351 352 351 352 353 353 352 350 351 350 348 349 348 347 347 346 344 344 344 343 343 344 343 343 344 344 344 343 342 342 343 345 346 348 349 349 348 347 347 348 350 352 350 349 348 348 349 351
322 328 323 320 323 322 319 324 329 325 323 331 341 344 346 352 352 351 352 354 354 351 349 349 348 348 349 348 347 348 346 344 344 343 342 343 343 343 344 344 344 344 343 342 342 343 345 347 348 348 349 348 348 349 350 351 351 350 349 348 347 349 349
321 327 322 320 324 321 321 329 331 330 332 333 338 342 345 348 350 352 354 354 352 350 349 349 348 348 348 348 347 347 345 345 344 342 342 343 343 343 343 343 344 345 343 342 342 344 345 346 347 347 347 347 346 346 346 347 348 348 347 346 346 347 347
321 329 331 329 324 319 327 341 336 331 336 338 338 341 343 345 348 353 355 352 350 349 348 348 348 347 347 346 345 345 345 345 344 342 342 343 343 343 343 343 343 342 342 342 342 343 343 344 344 344 343 343 342 343 342 342 344 344 344 344 345 345 345
320 332 338 329 322 325 337 342 334 333 336 338 343 346 346 349 350 351 352 350 348 348 347 346 347 346 346 346 345 344 345 344 344 343 341 342 343 342 343 343 340 339 341 341 341 341 341 341 341 340 339 339 339 340 340 340 340 341 341 342 343 343 344
320 325 326 323 326 337 345 338 331 335 339 340 345 347 346 349 350 350 351 349 347 347 346 345 345 344 344 345 344 344 345 344 345 344 342 342 341 338 339 340 338 338 339 339 339 340 338 337 338 337 335 336 337 337 338 338 338 339 340 340 341 342 342
325 324 324 330 332 332 339 341 334 334 338 340 346 346 344 346 347 348 350 348 346 346 345 343 343 342 343 344 343 342 343 344 343 340 338 338 336 334 335 337 337 337 337 336 337 338 336 334 334 333 333 333 334 335 336 336 336 337 338 338 339 340 341
333 333 328 329 325 324 339 352 341 334 337 338 341 345 346 346 345 345 347 348 345 344 344 342 341 342 344 345 344 342 342 342 341 336 333 332 332 333 334 335 335 336 336 335 334 335 335 334 333 332 331 331 332 334 335 335 336 336 336 337 337 338 340
329 333 327 323 321 326 345 356 343 333 334 336 342 348 347 347 345 343 345 346 345 343 342 341 341 343 345 345 343 342 342 339 337 335 333 330 330 331 330 330 333 335 335 334 333 333 333 333 332 329 329 329 331 332 334 335 336 336 336 336 336 337 338
328 332 326 323 325 333 349 359 348 334 333 337 342 342 344 346 344 342 344 344 343 342 342 341 341 344 348 347 343 340 339 335 333 333 332 329 328 329 329 329 332 333 334 334 333 333 332 332 332 330 329 329 329 330 331 333 335 337 336 336 336 337 337
329 327 320 321 329 338 344 346 342 334 331 332 333 336 344 347 342 341 342 342 341 342 341 341 342 345 347 346 342 338 337 336 332 329 328 328 327 327 328 330 332 332 333 333 333 332 332 332 332 332 331 330 330 329 330 331 333 334 335 336 336 336 337
328 328 323 321 328 337 338 337 340 338 331 330 337 344 345 343 341 341 341 340 341 341 340 342 345 345 343 341 340 338 336 336 332 326 325 326 326 326 328 330 331 332 332 332 332 331 331 330 330 331 331 330 330 329 329 329 330 331 333 334 334 332 332
329 329 323 318 324 337 338 335 339 344 342 343 346 345 341 339 342 342 340 341 341 340 342 344 344 342 339 338 339 336 333 332 329 324 323 323 323 326 329 329 331 332 332 333 332 331 329 326 326 328 330 330 329 328 327 327 328 329 330 330 330 329 328
331 328 325 328 337 347 345 342 344 346 347 347 343 340 340 341 341 341 342 343 341 340 343 343 340 340 339 339 338 334 330 330 326 323 322 321 321 325 328 329 331 332 332 333 333 332 331 329 328 329 330 329 330 329 328 324 323 324 325 323 324 327 328
339 339 341 346 352 351 347 350 353 347 341 340 339 338 340 340 339 341 343 342 340 340 340 340 339 339 339 338 336 332 329 329 326 323 323 323 322 324 326 327 330 331 331 332 332 332 332 332 331 332 331 331 331 331 330 326 323 323 323 320 319 320 321
339 341 340 342 345 344 340 342 345 343 339 340 339 338 340 340 339 340 340 340 340 339 338 339 339 339 338 337 333 329 328 329 325 322 323 324 323 324 324 325 327 328 329 331 331 331 332 332 332 332 332 332 332 331 330 328 326 325 324 321 318 316 316
334 336 337 339 338 338 340 340 340 339 339 339 338 339 340 340 339 338 338 339 339 337 338 339 339 338 337 335 331 329 330 330 326 322 323 324 324 324 324 324 325 326 327 328 328 329 330 331 332 332 332 332 332 330 329 327 327 327 325 322 320 318 319
337 340 341 342 338 334 337 338 338 340 341 340 339 339 339 338 338 339 338 337 337 338 338 338 337 337 337 335 331 331 332 329 324 322 323 324 324 324 325 324 324 325 325 325 326 327 327 328 330 331 331 331 330 329 327 325 325 327 327 325 323 322 321
339 339 338 340 338 335 333 335 339 344 343 341 340 339 338 339 340 339 338 336 336 336 337 337 337 337 337 334 330 331 332 328 324 323 324 326 326 326 325 324 323 323 324 324 325 325 326 326 327 328 329 329 328 327 325 324 324 325 326 326 326 325 324
338 342 343 340 337 336 335 336 340 341 338 338 340 339 339 340 340 340 339 337 335 335 335 335 336 338 337 331 327 328 329 326 325 327 328 329 329 328 326 325 324 324 325 325 325 326 326 326 327 328 328 328 326 325 324 324 324 323 324 325 326 326 326
341 348 351 346 341 341 341 340 339 337 336 338 340 339 340 340 340 339 339 339 338 337 335 333 334 335 332 327 325 327 327 326 328 330 330 330 331 330 329 328 328 327 327 327 327 327 328 328 328 328 328 328 326 324 323 322 322 322 321 322 324 325 325
338 341 349 350 345 342 342 340 339 337 335 336 338 338 339 340 338 337 338 339 339 338 336 334 332 330 327 324 326 328 327 328 330 330 330 331 331 331 330 331 330 330 329 329 329 329 328 329 328 327 326 326 324 324 323 322 323 324 324 323 323 324 325
340 342 350 351 346 343 343 341 339 337 336 336 337 337 336 336 335 334 336 338 335 335 337 335 331 328 326 325 327 328 328 329 330 330 330 331 331 330 331 331 330 330 330 329 329 329 328 329 328 327 325 323 322 323 325 324 324 325 325 325 324 324 325